Darstellungsparameter: Aktuell verwendete Einstellungen:
Skalierung der Graphiken ... ?
xyx+y,   Skalierungsfaktor:      Skalierung: Modus: x, Faktor: 1
Darstellungszeitraum ... ?
Vom - - bis: - -   Zeitraum: 26.12.2019 - 15.01.2020
Min/Max/Avg-Anzeige ... ?
Zeige MMA aktuell
Zeige MMA Monat
Zeige MMA alles
Zeige --A aktuell
Zeige --A Monat
Zeige --A alles
Keine MMA-Anzeige
MMA:
Average (ber die Originaldaten)
MMA-Basis: 26.12.2019 - 15.01.2020
Quicknavigation für Darstellung... ?
Tage:      1T, 2T, 3T, 5T -1T -2T -3T -5T +1T +2T +3T +5T
Wochen: 1W, 2W, 3W -1W -2W -3W +1W +2W +3W
Monate: 1M, 3M, 6M -1M -3M -6M +1M +3M +6M
Jahre:    1J, 3J, 5J, 10J -1J -3J -5J -10J +1J +3J +5J +10J
Nutze für die Darstellung ... ?
Originaldaten oder Mittelwerte auf ...
Stundenbasis Tagesbasis Wochenbasis
Monatsbasis Jahresbasis      Datenbasis: Original-Daten
Darstellen als:
Statistik (Auto) Statistik J:M      Darstellung:
Zur Graphik,    zurück zur Übersicht aller Sensoren.
 
Tabellarische Datenbersicht: ?
 
Sensor: Nr:Datum:Temp:Abs-Feuchte:Windchill:Wind:
Aussen-T/F 1 26-12-2019 00:00:00 5.5 C 6.67 g/m*3 5.5 C 1.6 km/h
2 26-12-2019 00:05:00 5.4 C 6.63 g/m*3 5.4 C 0 km/h
3 26-12-2019 00:10:00 5.4 C 6.63 g/m*3 5.4 C 0 km/h
4 26-12-2019 00:15:00 5.3 C 6.58 g/m*3 5.3 C 0 km/h
5 26-12-2019 00:20:00 5.1 C 6.5 g/m*3 5.1 C 0 km/h
6 26-12-2019 00:25:00 4.9 C 6.41 g/m*3 4.9 C 0 km/h
7 26-12-2019 00:30:00 4.8 C 6.37 g/m*3 4.8 C 0 km/h
8 26-12-2019 00:35:00 4.7 C 6.33 g/m*3 4.7 C 0 km/h
9 26-12-2019 00:40:00 4.6 C 6.29 g/m*3 4.6 C 0 km/h
10 26-12-2019 00:45:00 4.6 C 6.29 g/m*3 4.6 C 0 km/h
11 26-12-2019 00:50:00 4.7 C 6.39 g/m*3 4.7 C 3.2 km/h
12 26-12-2019 00:55:00 4.8 C 6.44 g/m*3 4.8 C 0 km/h
13 26-12-2019 01:00:00 4.9 C 6.48 g/m*3 4.9 C 0 km/h
14 26-12-2019 01:05:00 4.9 C 6.48 g/m*3 4.9 C 0 km/h
15 26-12-2019 01:10:00 5 C 6.52 g/m*3 5 C 1.6 km/h
16 26-12-2019 01:15:00 5.1 C 6.57 g/m*3 5.1 C 0 km/h
17 26-12-2019 01:20:00 5.1 C 6.57 g/m*3 5.1 C 1.6 km/h
18 26-12-2019 01:25:00 5.2 C 6.61 g/m*3 5.2 C 0 km/h
19 26-12-2019 01:30:00 5.2 C 6.61 g/m*3 5.2 C 0 km/h
20 26-12-2019 01:35:00 5.2 C 6.61 g/m*3 5.2 C 0 km/h
21 26-12-2019 01:40:00 5.2 C 6.61 g/m*3 5.2 C 0 km/h
22 26-12-2019 01:45:00 5.2 C 6.61 g/m*3 5.2 C 3.2 km/h
23 26-12-2019 01:50:00 5.2 C 6.61 g/m*3 5.2 C 4.8 km/h
24 26-12-2019 01:55:00 5.2 C 6.61 g/m*3 5.2 C 1.6 km/h
25 26-12-2019 02:00:00 5.2 C 6.61 g/m*3 5.2 C 3.2 km/h
Sensor: Nr:Datum:Temp:Abs-Feuchte:Windchill:Wind:
Aussen-T/F 26 26-12-2019 02:05:00 5.2 C 6.61 g/m*3 5.2 C 3.2 km/h
27 26-12-2019 02:10:00 5.2 C 6.61 g/m*3 5.2 C 0 km/h
28 26-12-2019 02:15:00 5.2 C 6.61 g/m*3 5.2 C 0 km/h
29 26-12-2019 02:20:00 5.2 C 6.61 g/m*3 5.2 C 1.6 km/h
30 26-12-2019 02:25:00 5.2 C 6.61 g/m*3 5.2 C 0 km/h
31 26-12-2019 02:30:00 5.1 C 6.57 g/m*3 5.1 C 0 km/h
32 26-12-2019 02:35:00 5 C 6.52 g/m*3 5 C 0 km/h
33 26-12-2019 02:40:00 4.9 C 6.48 g/m*3 4.9 C 1.6 km/h
34 26-12-2019 02:45:00 4.9 C 6.48 g/m*3 4.9 C 0 km/h
35 26-12-2019 02:50:00 4.9 C 6.48 g/m*3 4.9 C 1.6 km/h
36 26-12-2019 02:55:00 4.9 C 6.48 g/m*3 4.9 C 1.6 km/h
37 26-12-2019 03:00:00 5 C 6.52 g/m*3 5 C 0 km/h
38 26-12-2019 03:05:00 5 C 6.52 g/m*3 5 C 0 km/h
39 26-12-2019 03:10:00 5 C 6.52 g/m*3 5 C 0 km/h
40 26-12-2019 03:15:00 5 C 6.52 g/m*3 5 C 0 km/h
41 26-12-2019 03:20:00 5 C 6.52 g/m*3 5 C 0 km/h
42 26-12-2019 03:25:00 5 C 6.52 g/m*3 5 C 0 km/h
43 26-12-2019 03:30:00 4.9 C 6.48 g/m*3 4.9 C 0 km/h
44 26-12-2019 03:35:00 4.9 C 6.48 g/m*3 4.9 C 0 km/h
45 26-12-2019 03:40:00 4.9 C 6.48 g/m*3 4.9 C 0 km/h
46 26-12-2019 03:45:00 4.9 C 6.48 g/m*3 4.9 C 3.2 km/h
47 26-12-2019 03:50:00 4.9 C 6.48 g/m*3 4.9 C 0 km/h
48 26-12-2019 03:55:00 4.8 C 6.44 g/m*3 4.8 C 0 km/h
49 26-12-2019 04:00:00 4.8 C 6.44 g/m*3 4.8 C 0 km/h
50 26-12-2019 04:05:00 4.7 C 6.39 g/m*3 4.7 C 0 km/h
Sensor: Nr:Datum:Temp:Abs-Feuchte:Windchill:Wind:
Aussen-T/F 51 26-12-2019 04:10:00 4.6 C 6.35 g/m*3 4.6 C 1.6 km/h
52 26-12-2019 04:15:00 4.6 C 6.35 g/m*3 4.6 C 1.6 km/h
53 26-12-2019 04:20:00 4.5 C 6.31 g/m*3 4.5 C 0 km/h
54 26-12-2019 04:25:00 4.5 C 6.31 g/m*3 4.5 C 0 km/h
55 26-12-2019 04:30:00 4.4 C 6.27 g/m*3 4.4 C 0 km/h
56 26-12-2019 04:35:00 4.3 C 6.23 g/m*3 4.3 C 1.6 km/h
57 26-12-2019 04:40:00 4.2 C 6.19 g/m*3 4.2 C 3.2 km/h
58 26-12-2019 04:45:00 4.1 C 6.14 g/m*3 4.1 C 0 km/h
59 26-12-2019 04:50:00 4.1 C 6.14 g/m*3 4.1 C 0 km/h
60 26-12-2019 04:55:00 4 C 6.1 g/m*3 4 C 0 km/h
61 26-12-2019 05:00:00 4.1 C 6.14 g/m*3 4.1 C 0 km/h
62 26-12-2019 05:05:00 4.1 C 6.14 g/m*3 4.1 C 1.6 km/h
63 26-12-2019 05:10:00 4.2 C 6.25 g/m*3 4.2 C 0 km/h
64 26-12-2019 05:15:00 4.2 C 6.25 g/m*3 4.2 C 0 km/h
65 26-12-2019 05:20:00 4.3 C 6.29 g/m*3 4.3 C 0 km/h
66 26-12-2019 05:25:00 4.3 C 6.29 g/m*3 4.3 C 0 km/h
67 26-12-2019 05:30:00 4.3 C 6.29 g/m*3 4.3 C 0 km/h
68 26-12-2019 05:35:00 4.4 C 6.33 g/m*3 4.4 C 0 km/h
69 26-12-2019 05:40:00 4.3 C 6.29 g/m*3 4.3 C 0 km/h
70 26-12-2019 05:45:00 4.3 C 6.29 g/m*3 4.3 C 0 km/h
71 26-12-2019 05:50:00 4.3 C 6.29 g/m*3 4.3 C 0 km/h
72 26-12-2019 05:55:00 4.3 C 6.29 g/m*3 4.3 C 0 km/h
73 26-12-2019 06:00:00 4.3 C 6.29 g/m*3 4.3 C 0 km/h
74 26-12-2019 06:05:00 4.3 C 6.29 g/m*3 4.3 C 0 km/h
75 26-12-2019 06:10:00 4.3 C 6.29 g/m*3 4.3 C 0 km/h
Sensor: Nr:Datum:Temp:Abs-Feuchte:Windchill:Wind:
Aussen-T/F 76 26-12-2019 06:15:00 4.3 C 6.29 g/m*3 4.3 C 0 km/h
77 26-12-2019 06:20:00 4.3 C 6.29 g/m*3 4.3 C 0 km/h
78 26-12-2019 06:25:00 4.3 C 6.29 g/m*3 4.3 C 0 km/h
79 26-12-2019 06:30:00 4.3 C 6.29 g/m*3 4.3 C 0 km/h
80 26-12-2019 06:35:00 4.3 C 6.29 g/m*3 4.3 C 0 km/h
81 26-12-2019 06:40:00 4.3 C 6.29 g/m*3 4.3 C 0 km/h
82 26-12-2019 06:45:00 4.4 C 6.33 g/m*3 4.4 C 0 km/h
83 26-12-2019 06:50:00 4.4 C 6.33 g/m*3 4.4 C 0 km/h
84 26-12-2019 06:55:00 4.4 C 6.33 g/m*3 4.4 C 0 km/h
85 26-12-2019 07:00:00 4.4 C 6.33 g/m*3 4.4 C 0 km/h
86 26-12-2019 07:05:00 4.4 C 6.33 g/m*3 4.4 C 0 km/h
87 26-12-2019 07:10:00 4.4 C 6.33 g/m*3 4.4 C 0 km/h
88 26-12-2019 07:15:00 4.3 C 6.29 g/m*3 4.3 C 0 km/h
89 26-12-2019 07:20:00 4.3 C 6.29 g/m*3 4.3 C 0 km/h
90 26-12-2019 07:25:00 4.3 C 6.29 g/m*3 4.3 C 0 km/h
91 26-12-2019 07:30:00 4.3 C 6.29 g/m*3 4.3 C 0 km/h
92 26-12-2019 07:35:00 4.3 C 6.29 g/m*3 4.3 C 0 km/h
93 26-12-2019 07:40:00 4.3 C 6.29 g/m*3 4.3 C 0 km/h
94 26-12-2019 07:45:00 4.3 C 6.29 g/m*3 4.3 C 0 km/h
95 26-12-2019 07:50:00 4.3 C 6.29 g/m*3 4.3 C 0 km/h
96 26-12-2019 07:55:00 4.3 C 6.29 g/m*3 4.3 C 0 km/h
97 26-12-2019 08:00:00 4.2 C 6.25 g/m*3 4.2 C 0 km/h
98 26-12-2019 08:05:00 4.2 C 6.25 g/m*3 4.2 C 0 km/h
99 26-12-2019 08:10:00 4.2 C 6.25 g/m*3 4.2 C 0 km/h
100 26-12-2019 08:15:00 4.2 C 6.25 g/m*3 4.2 C 0 km/h
Sensor: Nr:Datum:Temp:Abs-Feuchte:Windchill:Wind:
Aussen-T/F 101 26-12-2019 08:20:00 4.2 C 6.25 g/m*3 4.2 C 0 km/h
102 26-12-2019 08:25:00 4.2 C 6.25 g/m*3 4.2 C 0 km/h
103 26-12-2019 08:30:00 4.2 C 6.25 g/m*3 4.2 C 0 km/h
104 26-12-2019 08:35:00 4.2 C 6.25 g/m*3 4.2 C 0 km/h
105 26-12-2019 08:40:00 4.3 C 6.29 g/m*3 4.3 C 0 km/h
106 26-12-2019 08:45:00 4.3 C 6.29 g/m*3 4.3 C 0 km/h
107 26-12-2019 08:50:00 4.3 C 6.29 g/m*3 4.3 C 0 km/h
108 26-12-2019 08:55:00 4.3 C 6.29 g/m*3 4.3 C 0 km/h
109 26-12-2019 09:00:00 4.3 C 6.29 g/m*3 4.3 C 0 km/h
110 26-12-2019 09:05:00 4.3 C 6.29 g/m*3 4.3 C 0 km/h
111 26-12-2019 09:10:00 4.3 C 6.29 g/m*3 4.3 C 0 km/h
112 26-12-2019 09:15:00 4.3 C 6.29 g/m*3 4.3 C 0 km/h
113 26-12-2019 09:20:00 4.3 C 6.29 g/m*3 4.3 C 0 km/h
114 26-12-2019 09:25:00 4.3 C 6.29 g/m*3 4.3 C 0 km/h
115 26-12-2019 09:30:00 4.3 C 6.29 g/m*3 4.3 C 0 km/h
116 26-12-2019 09:35:00 4.4 C 6.33 g/m*3 4.4 C 0 km/h
117 26-12-2019 09:40:00 4.4 C 6.33 g/m*3 4.4 C 0 km/h
118 26-12-2019 09:45:00 4.4 C 6.33 g/m*3 4.4 C 0 km/h
119 26-12-2019 09:50:00 4.4 C 6.33 g/m*3 4.4 C 0 km/h
120 26-12-2019 09:55:00 4.5 C 6.38 g/m*3 4.5 C 0 km/h
121 26-12-2019 10:00:00 4.5 C 6.38 g/m*3 4.5 C 0 km/h
122 26-12-2019 10:05:00 4.5 C 6.38 g/m*3 4.5 C 0 km/h
123 26-12-2019 10:10:00 4.5 C 6.38 g/m*3 4.5 C 0 km/h
124 26-12-2019 10:15:00 4.5 C 6.38 g/m*3 4.5 C 0 km/h
125 26-12-2019 10:20:00 4.6 C 6.42 g/m*3 4.6 C 0 km/h
Sensor: Nr:Datum:Temp:Abs-Feuchte:Windchill:Wind:
Aussen-T/F 126 26-12-2019 10:25:00 4.6 C 6.42 g/m*3 4.6 C 0 km/h
127 26-12-2019 10:30:00 4.6 C 6.42 g/m*3 4.6 C 0 km/h
128 26-12-2019 10:35:00 4.7 C 6.46 g/m*3 4.7 C 0 km/h
129 26-12-2019 10:40:00 4.8 C 6.5 g/m*3 4.8 C 0 km/h
130 26-12-2019 10:45:00 4.8 C 6.5 g/m*3 4.8 C 0 km/h
131 26-12-2019 10:50:00 4.9 C 6.55 g/m*3 4.9 C 0 km/h
132 26-12-2019 10:55:00 4.9 C 6.55 g/m*3 4.9 C 0 km/h
133 26-12-2019 11:00:00 5.1 C 6.63 g/m*3 5.1 C 0 km/h
134 26-12-2019 11:05:00 5.1 C 6.63 g/m*3 5.1 C 0 km/h
135 26-12-2019 11:10:00 5.2 C 6.68 g/m*3 5.2 C 0 km/h
136 26-12-2019 11:15:00 5.3 C 6.72 g/m*3 5.3 C 0 km/h
137 26-12-2019 11:20:00 5.4 C 6.77 g/m*3 5.4 C 1.6 km/h
138 26-12-2019 11:25:00 5.6 C 6.86 g/m*3 5.6 C 0 km/h
139 26-12-2019 11:30:00 5.6 C 6.86 g/m*3 5.6 C 0 km/h
140 26-12-2019 11:35:00 5.7 C 6.9 g/m*3 5.7 C 0 km/h
141 26-12-2019 11:40:00 5.7 C 6.9 g/m*3 5.7 C 0 km/h
142 26-12-2019 11:45:00 5.7 C 6.9 g/m*3 5.7 C 0 km/h
143 26-12-2019 11:50:00 5.8 C 6.95 g/m*3 5.8 C 0 km/h
144 26-12-2019 11:55:00 5.8 C 6.95 g/m*3 5.8 C 0 km/h
145 26-12-2019 12:00:00 5.7 C 6.9 g/m*3 5.7 C 0 km/h
146 26-12-2019 12:05:00 5.8 C 6.95 g/m*3 5.8 C 0 km/h
147 26-12-2019 12:10:00 5.7 C 6.9 g/m*3 5.7 C 0 km/h
148 26-12-2019 12:15:00 5.8 C 6.95 g/m*3 5.8 C 0 km/h
149 26-12-2019 12:20:00 5.7 C 6.9 g/m*3 5.7 C 0 km/h
150 26-12-2019 12:25:00 5.8 C 6.95 g/m*3 5.8 C 0 km/h
Sensor: Nr:Datum:Temp:Abs-Feuchte:Windchill:Wind:
Aussen-T/F 151 26-12-2019 12:30:00 5.9 C 6.99 g/m*3 5.9 C 0 km/h
152 26-12-2019 12:35:00 5.9 C 6.99 g/m*3 5.9 C 0 km/h
153 26-12-2019 12:40:00 6 C 7.04 g/m*3 6 C 0 km/h
154 26-12-2019 12:45:00 6.1 C 7.09 g/m*3 6.1 C 0 km/h
155 26-12-2019 12:50:00 6.1 C 7.09 g/m*3 6.1 C 0 km/h
156 26-12-2019 12:55:00 6.2 C 7.06 g/m*3 6.2 C 0 km/h
157 26-12-2019 13:00:00 6.2 C 7.06 g/m*3 6.2 C 0 km/h
158 26-12-2019 13:05:00 6.2 C 7.06 g/m*3 6.2 C 0 km/h
159 26-12-2019 13:10:00 6.3 C 7.11 g/m*3 6.3 C 0 km/h
160 26-12-2019 13:15:00 6.3 C 7.11 g/m*3 6.3 C 0 km/h
161 26-12-2019 13:20:00 6.3 C 7.11 g/m*3 6.3 C 0 km/h
162 26-12-2019 13:25:00 6.3 C 7.11 g/m*3 6.3 C 0 km/h
163 26-12-2019 13:30:00 6.3 C 7.11 g/m*3 6.3 C 0 km/h
164 26-12-2019 13:35:00 6.3 C 7.11 g/m*3 6.3 C 0 km/h
165 26-12-2019 13:40:00 6.3 C 7.11 g/m*3 6.3 C 0 km/h
166 26-12-2019 13:45:00 6.3 C 7.11 g/m*3 6.3 C 0 km/h
167 26-12-2019 13:50:00 6.2 C 7.06 g/m*3 6.2 C 0 km/h
168 26-12-2019 13:55:00 6.2 C 7.06 g/m*3 6.2 C 0 km/h
169 26-12-2019 14:00:00 6.2 C 7.06 g/m*3 6.2 C 0 km/h
170 26-12-2019 14:05:00 6.2 C 7.06 g/m*3 6.2 C 0 km/h
171 26-12-2019 14:10:00 6.2 C 7.06 g/m*3 6.2 C 0 km/h
172 26-12-2019 14:15:00 6.3 C 7.11 g/m*3 6.3 C 0 km/h
173 26-12-2019 14:20:00 6.3 C 7.11 g/m*3 6.3 C 0 km/h
174 26-12-2019 14:25:00 6.3 C 7.11 g/m*3 6.3 C 0 km/h
175 26-12-2019 14:30:00 6.3 C 7.03 g/m*3 6.3 C 0 km/h
Sensor: Nr:Datum:Temp:Abs-Feuchte:Windchill:Wind:
Aussen-T/F 176 26-12-2019 14:35:00 6.3 C 7.03 g/m*3 6.3 C 0 km/h
177 26-12-2019 14:40:00 6.3 C 7.03 g/m*3 6.3 C 0 km/h
178 26-12-2019 14:45:00 6.3 C 7.03 g/m*3 6.3 C 0 km/h
179 26-12-2019 14:50:00 6.3 C 7.03 g/m*3 6.3 C 0 km/h
180 26-12-2019 14:55:00 6.3 C 7.03 g/m*3 6.3 C 0 km/h
181 26-12-2019 15:00:00 6.3 C 7.03 g/m*3 6.3 C 0 km/h
182 26-12-2019 15:05:00 6.2 C 6.99 g/m*3 6.2 C 0 km/h
183 26-12-2019 15:10:00 6.2 C 6.99 g/m*3 6.2 C 0 km/h
184 26-12-2019 15:15:00 6.2 C 6.99 g/m*3 6.2 C 0 km/h
185 26-12-2019 15:20:00 6.1 C 6.94 g/m*3 6.1 C 0 km/h
186 26-12-2019 15:25:00 6.1 C 6.94 g/m*3 6.1 C 0 km/h
187 26-12-2019 15:30:00 6 C 6.9 g/m*3 6 C 0 km/h
188 26-12-2019 15:35:00 5.9 C 6.85 g/m*3 5.9 C 0 km/h
189 26-12-2019 15:40:00 5.8 C 6.81 g/m*3 5.8 C 0 km/h
190 26-12-2019 15:45:00 5.8 C 6.81 g/m*3 5.8 C 0 km/h
191 26-12-2019 15:50:00 5.8 C 6.81 g/m*3 5.8 C 0 km/h
192 26-12-2019 15:55:00 5.7 C 6.76 g/m*3 5.7 C 0 km/h
193 26-12-2019 16:00:00 5.6 C 6.72 g/m*3 5.6 C 0 km/h
194 26-12-2019 16:05:00 5.6 C 6.72 g/m*3 5.6 C 0 km/h
195 26-12-2019 16:10:00 5.5 C 6.67 g/m*3 5.5 C 0 km/h
196 26-12-2019 16:15:00 5.4 C 6.63 g/m*3 5.4 C 0 km/h
197 26-12-2019 16:20:00 5.3 C 6.58 g/m*3 5.3 C 0 km/h
198 26-12-2019 16:25:00 5.3 C 6.58 g/m*3 5.3 C 0 km/h
199 26-12-2019 16:30:00 5.3 C 6.58 g/m*3 5.3 C 0 km/h
200 26-12-2019 16:35:00 5.3 C 6.58 g/m*3 5.3 C 0 km/h
Sensor: Nr:Datum:Temp:Abs-Feuchte:Windchill:Wind:
Aussen-T/F 201 26-12-2019 16:40:00 5.2 C 6.54 g/m*3 5.2 C 0 km/h
202 26-12-2019 16:45:00 5.2 C 6.54 g/m*3 5.2 C 0 km/h
203 26-12-2019 16:50:00 5.2 C 6.61 g/m*3 5.2 C 0 km/h
204 26-12-2019 16:55:00 5.2 C 6.61 g/m*3 5.2 C 0 km/h
205 26-12-2019 17:00:00 5.2 C 6.61 g/m*3 5.2 C 0 km/h
206 26-12-2019 17:05:00 5.1 C 6.57 g/m*3 5.1 C 0 km/h
207 26-12-2019 17:10:00 5.1 C 6.57 g/m*3 5.1 C 0 km/h
208 26-12-2019 17:15:00 5.1 C 6.57 g/m*3 5.1 C 0 km/h
209 26-12-2019 17:20:00 5.1 C 6.57 g/m*3 5.1 C 0 km/h
210 26-12-2019 17:25:00 5.1 C 6.57 g/m*3 5.1 C 0 km/h
211 26-12-2019 17:30:00 5 C 6.52 g/m*3 5 C 0 km/h
212 26-12-2019 17:35:00 5 C 6.52 g/m*3 5 C 0 km/h
213 26-12-2019 17:40:00 5 C 6.52 g/m*3 5 C 3.2 km/h
214 26-12-2019 17:45:00 4.9 C 6.48 g/m*3 4.9 C 0 km/h
215 26-12-2019 17:50:00 4.9 C 6.48 g/m*3 4.9 C 0 km/h
216 26-12-2019 17:55:00 4.9 C 6.48 g/m*3 4.9 C 0 km/h
217 26-12-2019 18:00:00 4.9 C 6.48 g/m*3 4.9 C 0 km/h
218 26-12-2019 18:05:00 4.9 C 6.48 g/m*3 4.9 C 0 km/h
219 26-12-2019 18:10:00 4.8 C 6.44 g/m*3 4.8 C 0 km/h
220 26-12-2019 18:15:00 4.8 C 6.44 g/m*3 4.8 C 0 km/h
221 26-12-2019 18:20:00 4.8 C 6.44 g/m*3 4.8 C 0 km/h
222 26-12-2019 18:25:00 4.8 C 6.44 g/m*3 4.8 C 0 km/h
223 26-12-2019 18:30:00 4.8 C 6.44 g/m*3 4.8 C 0 km/h
224 26-12-2019 18:35:00 4.8 C 6.44 g/m*3 4.8 C 0 km/h
225 26-12-2019 18:40:00 4.8 C 6.44 g/m*3 4.8 C 0 km/h
Sensor: Nr:Datum:Temp:Abs-Feuchte:Windchill:Wind:
Aussen-T/F 226 26-12-2019 18:45:00 4.8 C 6.44 g/m*3 4.8 C 0 km/h
227 26-12-2019 18:50:00 4.8 C 6.44 g/m*3 4.8 C 0 km/h
228 26-12-2019 18:55:00 4.8 C 6.44 g/m*3 4.8 C 0 km/h
229 26-12-2019 19:00:00 4.8 C 6.44 g/m*3 4.8 C 0 km/h
230 26-12-2019 19:05:00 4.8 C 6.44 g/m*3 4.8 C 1.6 km/h
231 26-12-2019 19:10:00 4.8 C 6.44 g/m*3 4.8 C 0 km/h
232 26-12-2019 19:15:00 4.8 C 6.44 g/m*3 4.8 C 0 km/h
233 26-12-2019 19:20:00 4.8 C 6.44 g/m*3 4.8 C 0 km/h
234 26-12-2019 19:25:00 4.8 C 6.44 g/m*3 4.8 C 0 km/h
235 26-12-2019 19:30:00 4.7 C 6.39 g/m*3 4.7 C 0 km/h
236 26-12-2019 19:35:00 4.7 C 6.39 g/m*3 4.7 C 0 km/h
237 26-12-2019 19:40:00 4.7 C 6.39 g/m*3 4.7 C 0 km/h
238 26-12-2019 19:45:00 4.7 C 6.39 g/m*3 4.7 C 0 km/h
239 26-12-2019 19:50:00 4.7 C 6.39 g/m*3 4.7 C 0 km/h
240 26-12-2019 19:55:00 4.6 C 6.35 g/m*3 4.6 C 0 km/h
241 26-12-2019 20:00:00 4.6 C 6.35 g/m*3 4.6 C 0 km/h
242 26-12-2019 20:05:00 4.6 C 6.35 g/m*3 4.6 C 3.2 km/h
243 26-12-2019 20:10:00 4.7 C 6.39 g/m*3 4.7 C 0 km/h
244 26-12-2019 20:15:00 4.7 C 6.39 g/m*3 4.7 C 0 km/h
245 26-12-2019 20:20:00 4.7 C 6.39 g/m*3 4.7 C 0 km/h
246 26-12-2019 20:25:00 4.7 C 6.39 g/m*3 4.7 C 0 km/h
247 26-12-2019 20:30:00 4.8 C 6.44 g/m*3 4.8 C 0 km/h
248 26-12-2019 20:35:00 4.7 C 6.39 g/m*3 4.7 C 0 km/h
249 26-12-2019 20:40:00 4.8 C 6.44 g/m*3 4.8 C 0 km/h
250 26-12-2019 20:45:00 4.7 C 6.39 g/m*3 4.7 C 0 km/h
Sensor: Nr:Datum:Temp:Abs-Feuchte:Windchill:Wind:
Aussen-T/F 251 26-12-2019 20:50:00 4.8 C 6.44 g/m*3 4.8 C 0 km/h
252 26-12-2019 20:55:00 4.8 C 6.44 g/m*3 4.8 C 0 km/h
253 26-12-2019 21:00:00 4.7 C 6.39 g/m*3 4.7 C 1.6 km/h
254 26-12-2019 21:05:00 4.8 C 6.44 g/m*3 4.8 C 0 km/h
255 26-12-2019 21:10:00 4.8 C 6.44 g/m*3 4.8 C 0 km/h
256 26-12-2019 21:15:00 4.8 C 6.44 g/m*3 4.8 C 0 km/h
257 26-12-2019 21:20:00 4.8 C 6.44 g/m*3 4.8 C 0 km/h
258 26-12-2019 21:25:00 4.8 C 6.44 g/m*3 4.8 C 0 km/h
259 26-12-2019 21:30:00 4.8 C 6.44 g/m*3 4.8 C 0 km/h
260 26-12-2019 21:35:00 4.8 C 6.44 g/m*3 4.8 C 1.6 km/h
261 26-12-2019 21:40:00 4.8 C 6.44 g/m*3 4.8 C 3.2 km/h
262 26-12-2019 21:45:00 4.8 C 6.44 g/m*3 4.8 C 0 km/h
263 26-12-2019 21:50:00 4.8 C 6.44 g/m*3 4.8 C 0 km/h
264 26-12-2019 21:55:00 4.8 C 6.44 g/m*3 4.8 C 0 km/h
265 26-12-2019 22:00:00 4.8 C 6.44 g/m*3 4.8 C 0 km/h
266 26-12-2019 22:05:00 4.9 C 6.48 g/m*3 4.9 C 0 km/h
267 26-12-2019 22:10:00 4.9 C 6.48 g/m*3 4.9 C 0 km/h
268 26-12-2019 22:15:00 4.9 C 6.48 g/m*3 4.9 C 0 km/h
269 26-12-2019 22:20:00 4.9 C 6.48 g/m*3 4.9 C 1.6 km/h
270 26-12-2019 22:25:00 4.9 C 6.48 g/m*3 4.9 C 0 km/h
271 26-12-2019 22:30:00 4.9 C 6.48 g/m*3 4.9 C 0 km/h
272 26-12-2019 22:35:00 4.9 C 6.48 g/m*3 4.9 C 0 km/h
273 26-12-2019 22:40:00 4.9 C 6.48 g/m*3 4.9 C 0 km/h
274 26-12-2019 22:45:00 4.9 C 6.48 g/m*3 4.9 C 0 km/h
275 26-12-2019 22:50:00 4.9 C 6.48 g/m*3 4.9 C 0 km/h
Sensor: Nr:Datum:Temp:Abs-Feuchte:Windchill:Wind:
Aussen-T/F 276 26-12-2019 22:55:00 4.9 C 6.48 g/m*3 4.9 C 0 km/h
277 26-12-2019 23:00:00 4.9 C 6.48 g/m*3 4.9 C 0 km/h
278 26-12-2019 23:05:00 4.9 C 6.48 g/m*3 4.9 C 3.2 km/h
279 26-12-2019 23:10:00 4.9 C 6.48 g/m*3 4.9 C 0 km/h
280 26-12-2019 23:15:00 4.9 C 6.48 g/m*3 4.9 C 0 km/h
281 26-12-2019 23:20:00 4.9 C 6.48 g/m*3 4.9 C 0 km/h
282 26-12-2019 23:25:00 4.9 C 6.48 g/m*3 4.9 C 0 km/h
283 26-12-2019 23:30:00 4.9 C 6.48 g/m*3 4.9 C 1.6 km/h
284 26-12-2019 23:35:00 4.9 C 6.48 g/m*3 4.9 C 0 km/h
285 26-12-2019 23:40:00 4.9 C 6.48 g/m*3 4.9 C 0 km/h
286 26-12-2019 23:45:00 4.9 C 6.48 g/m*3 4.9 C 0 km/h
287 26-12-2019 23:50:00 4.9 C 6.48 g/m*3 4.9 C 0 km/h
288 26-12-2019 23:55:00 4.9 C 6.48 g/m*3 4.9 C 0 km/h
289 27-12-2019 00:00:00 4.9 C 6.48 g/m*3 4.9 C 0 km/h
290 27-12-2019 00:05:00 4.9 C 6.48 g/m*3 4.9 C 0 km/h
291 27-12-2019 00:10:00 4.9 C 6.48 g/m*3 4.9 C 0 km/h
292 27-12-2019 00:15:00 4.9 C 6.48 g/m*3 4.9 C 0 km/h
293 27-12-2019 00:20:00 4.9 C 6.48 g/m*3 4.9 C 0 km/h
294 27-12-2019 00:25:00 4.9 C 6.48 g/m*3 4.9 C 0 km/h
295 27-12-2019 00:30:00 4.9 C 6.48 g/m*3 4.9 C 0 km/h
296 27-12-2019 00:35:00 4.9 C 6.48 g/m*3 4.9 C 0 km/h
297 27-12-2019 00:40:00 4.9 C 6.48 g/m*3 4.9 C 0 km/h
298 27-12-2019 00:45:00 4.9 C 6.48 g/m*3 4.9 C 0 km/h
299 27-12-2019 00:50:00 4.9 C 6.55 g/m*3 4.9 C 0 km/h
300 27-12-2019 00:55:00 4.9 C 6.55 g/m*3 4.9 C 0 km/h
Sensor: Nr:Datum:Temp:Abs-Feuchte:Windchill:Wind:
Aussen-T/F 301 27-12-2019 01:00:00 4.9 C 6.55 g/m*3 4.9 C 0 km/h
302 27-12-2019 01:05:00 4.9 C 6.55 g/m*3 4.9 C 0 km/h
303 27-12-2019 01:10:00 4.9 C 6.55 g/m*3 4.9 C 0 km/h
304 27-12-2019 01:15:00 4.9 C 6.55 g/m*3 4.9 C 0 km/h
305 27-12-2019 01:20:00 4.9 C 6.55 g/m*3 4.9 C 0 km/h
306 27-12-2019 01:25:00 4.9 C 6.55 g/m*3 4.9 C 0 km/h
307 27-12-2019 01:30:00 4.9 C 6.55 g/m*3 4.9 C 0 km/h
308 27-12-2019 01:35:00 4.9 C 6.55 g/m*3 4.9 C 0 km/h
309 27-12-2019 01:40:00 4.9 C 6.55 g/m*3 4.9 C 0 km/h
310 27-12-2019 01:45:00 4.9 C 6.55 g/m*3 4.9 C 0 km/h
311 27-12-2019 01:50:00 5 C 6.59 g/m*3 5 C 0 km/h
312 27-12-2019 01:55:00 5 C 6.59 g/m*3 5 C 0 km/h
313 27-12-2019 02:00:00 5 C 6.59 g/m*3 5 C 0 km/h
314 27-12-2019 02:05:00 5 C 6.59 g/m*3 5 C 0 km/h
315 27-12-2019 02:10:00 5 C 6.59 g/m*3 5 C 0 km/h
316 27-12-2019 02:15:00 5 C 6.59 g/m*3 5 C 0 km/h
317 27-12-2019 02:20:00 5 C 6.59 g/m*3 5 C 0 km/h
318 27-12-2019 02:25:00 5 C 6.59 g/m*3 5 C 0 km/h
319 27-12-2019 02:30:00 5 C 6.59 g/m*3 5 C 0 km/h
320 27-12-2019 02:35:00 5 C 6.59 g/m*3 5 C 0 km/h
321 27-12-2019 02:40:00 4.9 C 6.55 g/m*3 4.9 C 0 km/h
322 27-12-2019 02:45:00 4.9 C 6.55 g/m*3 4.9 C 0 km/h
323 27-12-2019 02:50:00 5 C 6.59 g/m*3 5 C 0 km/h
324 27-12-2019 02:55:00 5 C 6.59 g/m*3 5 C 0 km/h
325 27-12-2019 03:00:00 5 C 6.59 g/m*3 5 C 0 km/h
Sensor: Nr:Datum:Temp:Abs-Feuchte:Windchill:Wind:
Aussen-T/F 326 27-12-2019 03:05:00 5 C 6.59 g/m*3 5 C 0 km/h
327 27-12-2019 03:10:00 5.1 C 6.63 g/m*3 5.1 C 0 km/h
328 27-12-2019 03:15:00 5.1 C 6.63 g/m*3 5.1 C 0 km/h
329 27-12-2019 03:20:00 5.1 C 6.63 g/m*3 5.1 C 0 km/h
330 27-12-2019 03:25:00 5.1 C 6.63 g/m*3 5.1 C 0 km/h
331 27-12-2019 03:30:00 5.1 C 6.63 g/m*3 5.1 C 0 km/h
332 27-12-2019 03:35:00 5.1 C 6.63 g/m*3 5.1 C 0 km/h
333 27-12-2019 03:40:00 5.1 C 6.63 g/m*3 5.1 C 0 km/h
334 27-12-2019 03:45:00 5.1 C 6.63 g/m*3 5.1 C 0 km/h
335 27-12-2019 03:50:00 5.1 C 6.63 g/m*3 5.1 C 0 km/h
336 27-12-2019 03:55:00 5.1 C 6.63 g/m*3 5.1 C 0 km/h
337 27-12-2019 04:00:00 5.1 C 6.63 g/m*3 5.1 C 0 km/h
338 27-12-2019 04:05:00 5.1 C 6.63 g/m*3 5.1 C 0 km/h
339 27-12-2019 04:10:00 5.1 C 6.63 g/m*3 5.1 C 0 km/h
340 27-12-2019 04:15:00 5.1 C 6.63 g/m*3 5.1 C 0 km/h
341 27-12-2019 04:20:00 5.1 C 6.63 g/m*3 5.1 C 0 km/h
342 27-12-2019 04:25:00 5.2 C 6.68 g/m*3 5.2 C 0 km/h
343 27-12-2019 04:30:00 5.2 C 6.68 g/m*3 5.2 C 0 km/h
344 27-12-2019 04:35:00 5.2 C 6.68 g/m*3 5.2 C 0 km/h
345 27-12-2019 04:40:00 5.2 C 6.68 g/m*3 5.2 C 0 km/h
346 27-12-2019 04:45:00 5.2 C 6.68 g/m*3 5.2 C 0 km/h
347 27-12-2019 04:50:00 5.2 C 6.68 g/m*3 5.2 C 0 km/h
348 27-12-2019 04:55:00 5.2 C 6.68 g/m*3 5.2 C 0 km/h
349 27-12-2019 05:00:00 5.2 C 6.68 g/m*3 5.2 C 0 km/h
350 27-12-2019 05:05:00 5.2 C 6.68 g/m*3 5.2 C 0 km/h
Sensor: Nr:Datum:Temp:Abs-Feuchte:Windchill:Wind:
Aussen-T/F 351 27-12-2019 05:10:00 5.2 C 6.68 g/m*3 5.2 C 0 km/h
352 27-12-2019 05:15:00 5.2 C 6.68 g/m*3 5.2 C 0 km/h
353 27-12-2019 05:20:00 5.2 C 6.68 g/m*3 5.2 C 0 km/h
354 27-12-2019 05:25:00 5.2 C 6.68 g/m*3 5.2 C 0 km/h
355 27-12-2019 05:30:00 5.2 C 6.68 g/m*3 5.2 C 0 km/h
356 27-12-2019 05:35:00 5.2 C 6.68 g/m*3 5.2 C 0 km/h
357 27-12-2019 05:40:00 5.2 C 6.68 g/m*3 5.2 C 0 km/h
358 27-12-2019 05:45:00 5.2 C 6.68 g/m*3 5.2 C 0 km/h
359 27-12-2019 05:50:00 5.2 C 6.68 g/m*3 5.2 C 0 km/h
360 27-12-2019 05:55:00 5.2 C 6.68 g/m*3 5.2 C 0 km/h
361 27-12-2019 06:00:00 5.2 C 6.68 g/m*3 5.2 C 0 km/h
362 27-12-2019 06:05:00 5.3 C 6.72 g/m*3 5.3 C 0 km/h
363 27-12-2019 06:10:00 5.3 C 6.72 g/m*3 5.3 C 0 km/h
364 27-12-2019 06:15:00 5.3 C 6.72 g/m*3 5.3 C 0 km/h
365 27-12-2019 06:20:00 5.3 C 6.72 g/m*3 5.3 C 0 km/h
366 27-12-2019 06:25:00 5.3 C 6.72 g/m*3 5.3 C 0 km/h
367 27-12-2019 06:30:00 5.3 C 6.72 g/m*3 5.3 C 0 km/h
368 27-12-2019 06:35:00 5.3 C 6.72 g/m*3 5.3 C 0 km/h
369 27-12-2019 06:40:00 5.3 C 6.72 g/m*3 5.3 C 0 km/h
370 27-12-2019 06:45:00 5.3 C 6.72 g/m*3 5.3 C 0 km/h
371 27-12-2019 06:50:00 5.3 C 6.72 g/m*3 5.3 C 0 km/h
372 27-12-2019 06:55:00 5.3 C 6.72 g/m*3 5.3 C 0 km/h
373 27-12-2019 07:00:00 5.3 C 6.72 g/m*3 5.3 C 0 km/h
374 27-12-2019 07:05:00 5.3 C 6.72 g/m*3 5.3 C 0 km/h
375 27-12-2019 07:10:00 5.3 C 6.72 g/m*3 5.3 C 0 km/h
Sensor: Nr:Datum:Temp:Abs-Feuchte:Windchill:Wind:
Aussen-T/F 376 27-12-2019 07:15:00 5.3 C 6.72 g/m*3 5.3 C 0 km/h
377 27-12-2019 07:20:00 5.3 C 6.72 g/m*3 5.3 C 0 km/h
378 27-12-2019 07:25:00 5.3 C 6.72 g/m*3 5.3 C 0 km/h
379 27-12-2019 07:30:00 5.3 C 6.72 g/m*3 5.3 C 0 km/h
380 27-12-2019 07:35:00 5.3 C 6.72 g/m*3 5.3 C 0 km/h
381 27-12-2019 07:40:00 5.3 C 6.72 g/m*3 5.3 C 0 km/h
382 27-12-2019 07:45:00 5.3 C 6.72 g/m*3 5.3 C 0 km/h
383 27-12-2019 07:50:00 5.3 C 6.72 g/m*3 5.3 C 0 km/h
384 27-12-2019 07:55:00 5.3 C 6.72 g/m*3 5.3 C 0 km/h
385 27-12-2019 08:00:00 5.2 C 6.68 g/m*3 5.2 C 0 km/h
386 27-12-2019 08:05:00 5.2 C 6.68 g/m*3 5.2 C 3.2 km/h
387 27-12-2019 08:10:00 5.2 C 6.68 g/m*3 5.2 C 0 km/h
388 27-12-2019 08:15:00 5.2 C 6.68 g/m*3 5.2 C 0 km/h
389 27-12-2019 08:20:00 5.1 C 6.63 g/m*3 5.1 C 0 km/h
390 27-12-2019 08:25:00 5.1 C 6.63 g/m*3 5.1 C 0 km/h
391 27-12-2019 08:30:00 5.1 C 6.63 g/m*3 5.1 C 0 km/h
392 27-12-2019 08:35:00 5.1 C 6.63 g/m*3 5.1 C 0 km/h
393 27-12-2019 08:40:00 5.1 C 6.63 g/m*3 5.1 C 0 km/h
394 27-12-2019 08:45:00 5.1 C 6.63 g/m*3 5.1 C 0 km/h
395 27-12-2019 08:50:00 5.1 C 6.63 g/m*3 5.1 C 0 km/h
396 27-12-2019 08:55:00 5.1 C 6.63 g/m*3 5.1 C 0 km/h
397 27-12-2019 09:00:00 5.2 C 6.68 g/m*3 5.2 C 3.2 km/h
398 27-12-2019 09:05:00 5.2 C 6.68 g/m*3 5.2 C 0 km/h
399 27-12-2019 09:10:00 5.2 C 6.68 g/m*3 5.2 C 1.6 km/h
400 27-12-2019 09:15:00 5.3 C 6.72 g/m*3 5.3 C 0 km/h
Sensor: Nr:Datum:Temp:Abs-Feuchte:Windchill:Wind:
Aussen-T/F 401 27-12-2019 09:20:00 5.2 C 6.68 g/m*3 5.2 C 1.6 km/h
402 27-12-2019 09:25:00 5.2 C 6.68 g/m*3 5.2 C 0 km/h
403 27-12-2019 09:30:00 5.2 C 6.68 g/m*3 5.2 C 0 km/h
404 27-12-2019 09:35:00 5.3 C 6.72 g/m*3 5.3 C 1.6 km/h
405 27-12-2019 09:40:00 5.3 C 6.72 g/m*3 5.3 C 0 km/h
406 27-12-2019 09:45:00 5.3 C 6.72 g/m*3 5.3 C 0 km/h
407 27-12-2019 09:50:00 5.3 C 6.72 g/m*3 5.3 C 4.8 km/h
408 27-12-2019 09:55:00 5.4 C 6.77 g/m*3 5.4 C 1.6 km/h
409 27-12-2019 10:00:00 5.4 C 6.77 g/m*3 5.4 C 0 km/h
410 27-12-2019 10:05:00 5.5 C 6.81 g/m*3 5.5 C 0 km/h
411 27-12-2019 10:10:00 5.5 C 6.81 g/m*3 5.5 C 0 km/h
412 27-12-2019 10:15:00 5.6 C 6.86 g/m*3 5.6 C 3.2 km/h
413 27-12-2019 10:20:00 5.6 C 6.86 g/m*3 5.6 C 0 km/h
414 27-12-2019 10:25:00 5.6 C 6.86 g/m*3 5.6 C 0 km/h
415 27-12-2019 10:30:00 5.6 C 6.86 g/m*3 5.6 C 0 km/h
416 27-12-2019 10:35:00 5.6 C 6.86 g/m*3 5.6 C 0 km/h
417 27-12-2019 10:40:00 5.6 C 6.86 g/m*3 5.6 C 0 km/h
418 27-12-2019 10:45:00 5.6 C 6.86 g/m*3 5.6 C 1.6 km/h
419 27-12-2019 10:50:00 5.6 C 6.86 g/m*3 5.6 C 0 km/h
420 27-12-2019 10:55:00 5.7 C 6.9 g/m*3 5.7 C 0 km/h
421 27-12-2019 11:00:00 5.7 C 6.9 g/m*3 5.7 C 0 km/h
422 27-12-2019 11:05:00 5.7 C 6.9 g/m*3 5.7 C 3.2 km/h
423 27-12-2019 11:10:00 5.6 C 6.86 g/m*3 5.6 C 3.2 km/h
424 27-12-2019 11:15:00 5.6 C 6.86 g/m*3 5.6 C 1.6 km/h
425 27-12-2019 11:20:00 5.6 C 6.86 g/m*3 5.6 C 0 km/h
Sensor: Nr:Datum:Temp:Abs-Feuchte:Windchill:Wind:
Aussen-T/F 426 27-12-2019 11:25:00 5.6 C 6.86 g/m*3 5.6 C 0 km/h
427 27-12-2019 11:30:00 5.7 C 6.9 g/m*3 5.7 C 0 km/h
428 27-12-2019 11:35:00 5.7 C 6.9 g/m*3 5.7 C 0 km/h
429 27-12-2019 11:40:00 5.8 C 6.95 g/m*3 5.8 C 0 km/h
430 27-12-2019 11:45:00 5.8 C 6.95 g/m*3 5.8 C 0 km/h
431 27-12-2019 11:50:00 5.8 C 6.95 g/m*3 5.8 C 4.8 km/h
432 27-12-2019 11:55:00 5.8 C 6.95 g/m*3 5.8 C 3.2 km/h
433 27-12-2019 12:00:00 5.8 C 6.95 g/m*3 5.8 C 4.8 km/h
434 27-12-2019 12:05:00 5.9 C 6.92 g/m*3 5.9 C 4.8 km/h
435 27-12-2019 12:10:00 5.9 C 6.92 g/m*3 5.9 C 4.8 km/h
436 27-12-2019 12:15:00 6 C 6.97 g/m*3 6 C 4.8 km/h
437 27-12-2019 12:20:00 6.1 C 6.94 g/m*3 6.1 C 4.8 km/h
438 27-12-2019 12:25:00 6.1 C 6.94 g/m*3 4.86 C 6.4 km/h
439 27-12-2019 12:30:00 6.1 C 6.94 g/m*3 6.1 C 1.6 km/h
440 27-12-2019 12:35:00 6.2 C 6.99 g/m*3 6.2 C 1.6 km/h
441 27-12-2019 12:40:00 6.3 C 7.03 g/m*3 6.3 C 0 km/h
442 27-12-2019 12:45:00 6.3 C 6.96 g/m*3 6.3 C 3.2 km/h
443 27-12-2019 12:50:00 6.3 C 6.96 g/m*3 6.3 C 0 km/h
444 27-12-2019 12:55:00 6.3 C 6.96 g/m*3 6.3 C 3.2 km/h
445 27-12-2019 13:00:00 6.3 C 6.96 g/m*3 6.3 C 3.2 km/h
446 27-12-2019 13:05:00 6.2 C 6.84 g/m*3 6.2 C 4.8 km/h
447 27-12-2019 13:10:00 6.2 C 6.84 g/m*3 6.2 C 3.2 km/h
448 27-12-2019 13:15:00 6.2 C 6.84 g/m*3 6.2 C 1.6 km/h
449 27-12-2019 13:20:00 6.2 C 6.84 g/m*3 6.2 C 1.6 km/h
450 27-12-2019 13:25:00 6.2 C 6.84 g/m*3 6.2 C 4.8 km/h
Sensor: Nr:Datum:Temp:Abs-Feuchte:Windchill:Wind:
Aussen-T/F 451 27-12-2019 13:30:00 6.1 C 6.79 g/m*3 4.86 C 6.4 km/h
452 27-12-2019 13:35:00 6.1 C 6.79 g/m*3 4.86 C 6.4 km/h
453 27-12-2019 13:40:00 6.2 C 6.84 g/m*3 6.2 C 0 km/h
454 27-12-2019 13:45:00 6.1 C 6.72 g/m*3 6.1 C 1.6 km/h
455 27-12-2019 13:50:00 6.2 C 6.84 g/m*3 6.2 C 0 km/h
456 27-12-2019 13:55:00 6.2 C 6.77 g/m*3 6.2 C 0 km/h
457 27-12-2019 14:00:00 6.2 C 6.77 g/m*3 6.2 C 0 km/h
458 27-12-2019 14:05:00 6.2 C 6.77 g/m*3 6.2 C 4.8 km/h
459 27-12-2019 14:10:00 6.3 C 6.81 g/m*3 6.3 C 4.8 km/h
460 27-12-2019 14:15:00 6.3 C 6.74 g/m*3 6.3 C 1.6 km/h
461 27-12-2019 14:20:00 6.3 C 6.74 g/m*3 6.3 C 3.2 km/h
462 27-12-2019 14:25:00 6.3 C 6.74 g/m*3 6.3 C 3.2 km/h
463 27-12-2019 14:30:00 6.3 C 6.74 g/m*3 6.3 C 0 km/h
464 27-12-2019 14:35:00 6.4 C 6.78 g/m*3 6.4 C 0 km/h
465 27-12-2019 14:40:00 6.3 C 6.66 g/m*3 6.3 C 3.2 km/h
466 27-12-2019 14:45:00 6.3 C 6.51 g/m*3 5.1 C 6.4 km/h
467 27-12-2019 14:50:00 6.2 C 6.47 g/m*3 4.98 C 6.4 km/h
468 27-12-2019 14:55:00 6.2 C 6.47 g/m*3 6.2 C 1.6 km/h
469 27-12-2019 15:00:00 6.2 C 6.4 g/m*3 4.52 C 8.1 km/h
470 27-12-2019 15:05:00 6.2 C 6.47 g/m*3 6.2 C 1.6 km/h
471 27-12-2019 15:10:00 6.2 C 6.47 g/m*3 6.2 C 0 km/h
472 27-12-2019 15:15:00 6.2 C 6.47 g/m*3 6.2 C 0 km/h
473 27-12-2019 15:20:00 6.3 C 6.59 g/m*3 6.3 C 0 km/h
474 27-12-2019 15:25:00 6.3 C 6.59 g/m*3 6.3 C 0 km/h
475 27-12-2019 15:30:00 6.2 C 6.55 g/m*3 6.2 C 1.6 km/h
Sensor: Nr:Datum:Temp:Abs-Feuchte:Windchill:Wind:
Aussen-T/F 476 27-12-2019 15:35:00 6.2 C 6.55 g/m*3 6.2 C 0 km/h
477 27-12-2019 15:40:00 6.2 C 6.55 g/m*3 6.2 C 0 km/h
478 27-12-2019 15:45:00 6.2 C 6.55 g/m*3 6.2 C 0 km/h
479 27-12-2019 15:50:00 6.2 C 6.55 g/m*3 6.2 C 0 km/h
480 27-12-2019 15:55:00 6.2 C 6.62 g/m*3 6.2 C 0 km/h
481 27-12-2019 16:00:00 6.1 C 6.58 g/m*3 6.1 C 0 km/h
482 27-12-2019 16:05:00 6.1 C 6.58 g/m*3 6.1 C 0 km/h
483 27-12-2019 16:10:00 6.1 C 6.58 g/m*3 6.1 C 0 km/h
484 27-12-2019 16:15:00 6 C 6.6 g/m*3 6 C 0 km/h
485 27-12-2019 16:20:00 5.9 C 6.56 g/m*3 5.9 C 0 km/h
486 27-12-2019 16:25:00 5.8 C 6.52 g/m*3 5.8 C 0 km/h
487 27-12-2019 16:30:00 5.8 C 6.52 g/m*3 5.8 C 0 km/h
488 27-12-2019 16:35:00 5.7 C 6.48 g/m*3 5.7 C 0 km/h
489 27-12-2019 16:40:00 5.6 C 6.43 g/m*3 5.6 C 0 km/h
490 27-12-2019 16:45:00 5.6 C 6.5 g/m*3 5.6 C 0 km/h
491 27-12-2019 16:50:00 5.5 C 6.46 g/m*3 5.5 C 0 km/h
492 27-12-2019 16:55:00 5.4 C 6.42 g/m*3 5.4 C 0 km/h
493 27-12-2019 17:00:00 5.4 C 6.42 g/m*3 5.4 C 0 km/h
494 27-12-2019 17:05:00 5.4 C 6.42 g/m*3 5.4 C 0 km/h
495 27-12-2019 17:10:00 5.3 C 6.38 g/m*3 5.3 C 0 km/h
496 27-12-2019 17:15:00 5.3 C 6.45 g/m*3 5.3 C 0 km/h
497 27-12-2019 17:20:00 5.3 C 6.45 g/m*3 5.3 C 0 km/h
498 27-12-2019 17:25:00 5.2 C 6.4 g/m*3 5.2 C 0 km/h
499 27-12-2019 17:30:00 5.2 C 6.4 g/m*3 5.2 C 0 km/h
500 27-12-2019 17:35:00 5.2 C 6.4 g/m*3 5.2 C 0 km/h
Sensor: Nr:Datum:Temp:Abs-Feuchte:Windchill:Wind:
Aussen-T/F 501 27-12-2019 17:40:00 5.2 C 6.4 g/m*3 5.2 C 0 km/h
502 27-12-2019 17:45:00 5.2 C 6.4 g/m*3 5.2 C 0 km/h
503 27-12-2019 17:50:00 5.2 C 6.4 g/m*3 5.2 C 0 km/h
504 27-12-2019 17:55:00 5.2 C 6.4 g/m*3 5.2 C 0 km/h
505 27-12-2019 18:00:00 5.1 C 6.36 g/m*3 5.1 C 3.2 km/h
506 27-12-2019 18:05:00 5.1 C 6.36 g/m*3 5.1 C 1.6 km/h
507 27-12-2019 18:10:00 5.1 C 6.36 g/m*3 5.1 C 0 km/h
508 27-12-2019 18:15:00 5.1 C 6.36 g/m*3 5.1 C 1.6 km/h
509 27-12-2019 18:20:00 5 C 6.32 g/m*3 5 C 3.2 km/h
510 27-12-2019 18:25:00 5 C 6.32 g/m*3 5 C 1.6 km/h
511 27-12-2019 18:30:00 5 C 6.32 g/m*3 5 C 0 km/h
512 27-12-2019 18:35:00 5 C 6.32 g/m*3 5 C 0 km/h
513 27-12-2019 18:40:00 5 C 6.32 g/m*3 5 C 0 km/h
514 27-12-2019 18:45:00 5 C 6.32 g/m*3 5 C 0 km/h
515 27-12-2019 18:50:00 4.9 C 6.28 g/m*3 4.9 C 0 km/h
516 27-12-2019 18:55:00 4.9 C 6.28 g/m*3 4.9 C 0 km/h
517 27-12-2019 19:00:00 4.9 C 6.28 g/m*3 4.9 C 0 km/h
518 27-12-2019 19:05:00 4.9 C 6.28 g/m*3 4.9 C 1.6 km/h
519 27-12-2019 19:10:00 4.9 C 6.28 g/m*3 4.9 C 0 km/h
520 27-12-2019 19:15:00 4.8 C 6.24 g/m*3 4.8 C 0 km/h
521 27-12-2019 19:20:00 4.8 C 6.24 g/m*3 4.8 C 3.2 km/h
522 27-12-2019 19:25:00 4.7 C 6.19 g/m*3 4.7 C 3.2 km/h
523 27-12-2019 19:30:00 4.7 C 6.19 g/m*3 4.7 C 1.6 km/h
524 27-12-2019 19:35:00 4.7 C 6.19 g/m*3 4.7 C 0 km/h
525 27-12-2019 19:40:00 4.7 C 6.19 g/m*3 4.7 C 0 km/h
Sensor: Nr:Datum:Temp:Abs-Feuchte:Windchill:Wind:
Aussen-T/F 526 27-12-2019 19:45:00 4.7 C 6.19 g/m*3 4.7 C 0 km/h
527 27-12-2019 19:50:00 4.7 C 6.19 g/m*3 4.7 C 0 km/h
528 27-12-2019 19:55:00 4.7 C 6.19 g/m*3 4.7 C 0 km/h
529 27-12-2019 20:00:00 4.6 C 6.15 g/m*3 4.6 C 0 km/h
530 27-12-2019 20:05:00 4.6 C 6.15 g/m*3 4.6 C 0 km/h
531 27-12-2019 20:10:00 4.5 C 6.11 g/m*3 4.5 C 0 km/h
532 27-12-2019 20:15:00 4.5 C 6.11 g/m*3 4.5 C 0 km/h
533 27-12-2019 20:20:00 4.5 C 6.11 g/m*3 4.5 C 0 km/h
534 27-12-2019 20:25:00 4.5 C 6.11 g/m*3 4.5 C 0 km/h
535 27-12-2019 20:30:00 4.5 C 6.11 g/m*3 4.5 C 0 km/h
536 27-12-2019 20:35:00 4.5 C 6.11 g/m*3 4.5 C 0 km/h
537 27-12-2019 20:40:00 4.6 C 6.15 g/m*3 4.6 C 0 km/h
538 27-12-2019 20:45:00 4.6 C 6.15 g/m*3 4.6 C 0 km/h
539 27-12-2019 20:50:00 4.6 C 6.15 g/m*3 4.6 C 0 km/h
540 27-12-2019 20:55:00 4.6 C 6.15 g/m*3 4.6 C 0 km/h
541 27-12-2019 21:00:00 4.6 C 6.22 g/m*3 4.6 C 0 km/h
542 27-12-2019 21:05:00 4.6 C 6.15 g/m*3 4.6 C 0 km/h
543 27-12-2019 21:10:00 4.6 C 6.15 g/m*3 4.6 C 0 km/h
544 27-12-2019 21:15:00 4.6 C 6.15 g/m*3 4.6 C 0 km/h
545 27-12-2019 21:20:00 4.6 C 6.15 g/m*3 4.6 C 0 km/h
546 27-12-2019 21:25:00 4.6 C 6.15 g/m*3 4.6 C 0 km/h
547 27-12-2019 21:30:00 4.6 C 6.15 g/m*3 4.6 C 0 km/h
548 27-12-2019 21:35:00 4.5 C 6.11 g/m*3 4.5 C 0 km/h
549 27-12-2019 21:40:00 4.4 C 6.07 g/m*3 4.4 C 0 km/h
550 27-12-2019 21:45:00 4.4 C 6.07 g/m*3 4.4 C 0 km/h
Sensor: Nr:Datum:Temp:Abs-Feuchte:Windchill:Wind:
Aussen-T/F 551 27-12-2019 21:50:00 4.4 C 6.07 g/m*3 4.4 C 0 km/h
552 27-12-2019 21:55:00 4.4 C 6.07 g/m*3 4.4 C 0 km/h
553 27-12-2019 22:00:00 4.3 C 6.03 g/m*3 4.3 C 0 km/h
554 27-12-2019 22:05:00 4.3 C 5.97 g/m*3 4.3 C 0 km/h
555 27-12-2019 22:10:00 4.2 C 5.93 g/m*3 4.2 C 0 km/h
556 27-12-2019 22:15:00 4.1 C 5.89 g/m*3 4.1 C 0 km/h
557 27-12-2019 22:20:00 4 C 5.85 g/m*3 4 C 0 km/h
558 27-12-2019 22:25:00 3.9 C 5.81 g/m*3 3.9 C 0 km/h
559 27-12-2019 22:30:00 3.8 C 5.77 g/m*3 3.8 C 0 km/h
560 27-12-2019 22:35:00 3.6 C 5.63 g/m*3 3.6 C 0 km/h
561 27-12-2019 22:40:00 3.3 C 5.52 g/m*3 3.3 C 0 km/h
562 27-12-2019 22:45:00 3.2 C 5.48 g/m*3 3.2 C 0 km/h
563 27-12-2019 22:50:00 3 C 5.41 g/m*3 3 C 0 km/h
564 27-12-2019 22:55:00 2.8 C 5.4 g/m*3 2.8 C 0 km/h
565 27-12-2019 23:00:00 2.7 C 5.36 g/m*3 2.7 C 0 km/h
566 27-12-2019 23:05:00 2.6 C 5.32 g/m*3 2.6 C 0 km/h
567 27-12-2019 23:10:00 2.4 C 5.25 g/m*3 2.4 C 0 km/h
568 27-12-2019 23:15:00 2.3 C 5.22 g/m*3 2.3 C 0 km/h
569 27-12-2019 23:20:00 2.2 C 5.18 g/m*3 2.2 C 0 km/h
570 27-12-2019 23:25:00 2 C 5.17 g/m*3 2 C 0 km/h
571 27-12-2019 23:30:00 1.9 C 5.13 g/m*3 1.9 C 0 km/h
572 27-12-2019 23:35:00 1.8 C 5.1 g/m*3 1.8 C 0 km/h
573 27-12-2019 23:40:00 1.7 C 5.06 g/m*3 1.7 C 0 km/h
574 27-12-2019 23:45:00 1.6 C 5.03 g/m*3 1.6 C 0 km/h
575 27-12-2019 23:50:00 1.5 C 4.99 g/m*3 1.5 C 0 km/h
Sensor: Nr:Datum:Temp:Abs-Feuchte:Windchill:Wind:
Aussen-T/F 576 27-12-2019 23:55:00 1.4 C 4.96 g/m*3 1.4 C 1.6 km/h
577 28-12-2019 00:00:00 1.4 C 5.01 g/m*3 1.4 C 0 km/h
578 28-12-2019 00:05:00 1.3 C 4.98 g/m*3 1.3 C 0 km/h
579 28-12-2019 00:10:00 1.3 C 4.98 g/m*3 1.3 C 0 km/h
580 28-12-2019 00:15:00 1.2 C 4.95 g/m*3 1.2 C 0 km/h
581 28-12-2019 00:20:00 1.2 C 4.95 g/m*3 1.2 C 1.6 km/h
582 28-12-2019 00:25:00 1.1 C 4.91 g/m*3 1.1 C 3.2 km/h
583 28-12-2019 00:30:00 1.1 C 4.91 g/m*3 1.1 C 3.2 km/h
584 28-12-2019 00:35:00 1 C 4.88 g/m*3 1 C 1.6 km/h
585 28-12-2019 00:40:00 0.9 C 4.85 g/m*3 0.9 C 3.2 km/h
586 28-12-2019 00:45:00 0.8 C 4.81 g/m*3 0.8 C 3.2 km/h
587 28-12-2019 00:50:00 0.8 C 4.81 g/m*3 0.8 C 4.8 km/h
588 28-12-2019 00:55:00 0.8 C 4.81 g/m*3 0.8 C 3.2 km/h
589 28-12-2019 01:00:00 0.8 C 4.86 g/m*3 0.8 C 1.6 km/h
590 28-12-2019 01:05:00 0.8 C 4.81 g/m*3 0.8 C 0 km/h
591 28-12-2019 01:10:00 0.8 C 4.81 g/m*3 0.8 C 1.6 km/h
592 28-12-2019 01:15:00 0.7 C 4.78 g/m*3 0.7 C 1.6 km/h
593 28-12-2019 01:20:00 0.6 C 4.8 g/m*3 0.6 C 0 km/h
594 28-12-2019 01:25:00 0.6 C 4.8 g/m*3 0.6 C 0 km/h
595 28-12-2019 01:30:00 0.5 C 4.71 g/m*3 0.5 C 0 km/h
596 28-12-2019 01:35:00 0.4 C 4.73 g/m*3 0.4 C 0 km/h
597 28-12-2019 01:40:00 0.4 C 4.73 g/m*3 0.4 C 0 km/h
598 28-12-2019 01:45:00 0.3 C 4.7 g/m*3 0.3 C 0 km/h
599 28-12-2019 01:50:00 0.3 C 4.7 g/m*3 0.3 C 0 km/h
600 28-12-2019 01:55:00 0.2 C 4.67 g/m*3 0.2 C 0 km/h
Sensor: Nr:Datum:Temp:Abs-Feuchte:Windchill:Wind:
Aussen-T/F 601 28-12-2019 02:00:00 0.2 C 4.67 g/m*3 0.2 C 0 km/h
602 28-12-2019 02:05:00 0.1 C 4.63 g/m*3 0.1 C 0 km/h
603 28-12-2019 02:10:00 0.1 C 4.63 g/m*3 0.1 C 0 km/h
604 28-12-2019 02:15:00 0 C 4.6 g/m*3 0 C 0 km/h
605 28-12-2019 02:20:00 -0.1 C 4.57 g/m*3 -0.1 C 0 km/h
606 28-12-2019 02:25:00 -0.1 C 4.57 g/m*3 -0.1 C 0 km/h
607 28-12-2019 02:30:00 -0.2 C 4.54 g/m*3 -0.2 C 0 km/h
608 28-12-2019 02:35:00 -0.2 C 4.54 g/m*3 -0.2 C 0 km/h
609 28-12-2019 02:40:00 -0.3 C 4.51 g/m*3 -0.3 C 0 km/h
610 28-12-2019 02:45:00 -0.3 C 4.51 g/m*3 -0.3 C 0 km/h
611 28-12-2019 02:50:00 -0.4 C 4.48 g/m*3 -0.4 C 0 km/h
612 28-12-2019 02:55:00 -0.4 C 4.48 g/m*3 -0.4 C 0 km/h
613 28-12-2019 03:00:00 -0.3 C 4.51 g/m*3 -0.3 C 0 km/h
614 28-12-2019 03:05:00 -0.4 C 4.48 g/m*3 -0.4 C 0 km/h
615 28-12-2019 03:10:00 -0.4 C 4.48 g/m*3 -0.4 C 0 km/h
616 28-12-2019 03:15:00 -0.5 C 4.45 g/m*3 -0.5 C 0 km/h
617 28-12-2019 03:20:00 -0.6 C 4.42 g/m*3 -0.6 C 0 km/h
618 28-12-2019 03:25:00 -0.6 C 4.42 g/m*3 -0.6 C 0 km/h
619 28-12-2019 03:30:00 -0.7 C 4.39 g/m*3 -0.7 C 0 km/h
620 28-12-2019 03:35:00 -0.7 C 4.39 g/m*3 -0.7 C 0 km/h
621 28-12-2019 03:40:00 -0.7 C 4.43 g/m*3 -0.7 C 0 km/h
622 28-12-2019 03:45:00 -0.7 C 4.43 g/m*3 -0.7 C 0 km/h
623 28-12-2019 03:50:00 -0.7 C 4.43 g/m*3 -0.7 C 0 km/h
624 28-12-2019 03:55:00 -0.7 C 4.43 g/m*3 -0.7 C 0 km/h
625 28-12-2019 04:00:00 -0.7 C 4.39 g/m*3 -0.7 C 0 km/h
Sensor: Nr:Datum:Temp:Abs-Feuchte:Windchill:Wind:
Aussen-T/F 626 28-12-2019 04:05:00 -0.8 C 4.35 g/m*3 -0.8 C 0 km/h
627 28-12-2019 04:10:00 -0.8 C 4.4 g/m*3 -0.8 C 0 km/h
628 28-12-2019 04:15:00 -0.8 C 4.4 g/m*3 -0.8 C 0 km/h
629 28-12-2019 04:20:00 -0.9 C 4.37 g/m*3 -0.9 C 0 km/h
630 28-12-2019 04:25:00 -0.9 C 4.37 g/m*3 -0.9 C 0 km/h
631 28-12-2019 04:30:00 -0.9 C 4.37 g/m*3 -0.9 C 0 km/h
632 28-12-2019 04:35:00 -1 C 4.34 g/m*3 -1 C 0 km/h
633 28-12-2019 04:40:00 -0.9 C 4.37 g/m*3 -0.9 C 0 km/h
634 28-12-2019 04:45:00 -1 C 4.34 g/m*3 -1 C 0 km/h
635 28-12-2019 04:50:00 -1 C 4.34 g/m*3 -1 C 0 km/h
636 28-12-2019 04:55:00 -1.1 C 4.31 g/m*3 -1.1 C 0 km/h
637 28-12-2019 05:00:00 -1.1 C 4.31 g/m*3 -1.1 C 0 km/h
638 28-12-2019 05:05:00 -1.1 C 4.31 g/m*3 -1.1 C 0 km/h
639 28-12-2019 05:10:00 -1.1 C 4.31 g/m*3 -1.1 C 0 km/h
640 28-12-2019 05:15:00 -1.2 C 4.28 g/m*3 -1.2 C 0 km/h
641 28-12-2019 05:20:00 -1.2 C 4.28 g/m*3 -1.2 C 0 km/h
642 28-12-2019 05:25:00 -1.2 C 4.28 g/m*3 -1.2 C 0 km/h
643 28-12-2019 05:30:00 -1.2 C 4.28 g/m*3 -1.2 C 0 km/h
644 28-12-2019 05:35:00 -1.2 C 4.28 g/m*3 -1.2 C 0 km/h
645 28-12-2019 05:40:00 -1.3 C 4.25 g/m*3 -1.3 C 0 km/h
646 28-12-2019 05:45:00 -1.2 C 4.28 g/m*3 -1.2 C 0 km/h
647 28-12-2019 05:50:00 -1.2 C 4.28 g/m*3 -1.2 C 0 km/h
648 28-12-2019 05:55:00 -1.2 C 4.28 g/m*3 -1.2 C 0 km/h
649 28-12-2019 06:00:00 -1.2 C 4.28 g/m*3 -1.2 C 1.6 km/h
650 28-12-2019 06:05:00 -1.2 C 4.28 g/m*3 -1.2 C 0 km/h
Sensor: Nr:Datum:Temp:Abs-Feuchte:Windchill:Wind:
Aussen-T/F 651 28-12-2019 06:10:00 -1.2 C 4.28 g/m*3 -1.2 C 0 km/h
652 28-12-2019 06:15:00 -1.2 C 4.28 g/m*3 -1.2 C 0 km/h
653 28-12-2019 06:20:00 -1.2 C 4.28 g/m*3 -1.2 C 0 km/h
654 28-12-2019 06:25:00 -1.3 C 4.25 g/m*3 -1.3 C 0 km/h
655 28-12-2019 06:30:00 -1.3 C 4.25 g/m*3 -1.3 C 0 km/h
656 28-12-2019 06:35:00 -1.3 C 4.25 g/m*3 -1.3 C 0 km/h
657 28-12-2019 06:40:00 -1.3 C 4.25 g/m*3 -1.3 C 0 km/h
658 28-12-2019 06:45:00 -1.3 C 4.25 g/m*3 -1.3 C 0 km/h
659 28-12-2019 06:50:00 -1.3 C 4.25 g/m*3 -1.3 C 0 km/h
660 28-12-2019 06:55:00 -1.3 C 4.25 g/m*3 -1.3 C 0 km/h
661 28-12-2019 07:00:00 -1.3 C 4.25 g/m*3 -1.3 C 0 km/h
662 28-12-2019 07:05:00 -1.3 C 4.25 g/m*3 -1.3 C 0 km/h
663 28-12-2019 07:10:00 -1.3 C 4.25 g/m*3 -1.3 C 0 km/h
664 28-12-2019 07:15:00 -1.3 C 4.25 g/m*3 -1.3 C 0 km/h
665 28-12-2019 07:20:00 -1.3 C 4.25 g/m*3 -1.3 C 0 km/h
666 28-12-2019 07:25:00 -1.4 C 4.22 g/m*3 -1.4 C 0 km/h
667 28-12-2019 07:30:00 -1.4 C 4.22 g/m*3 -1.4 C 0 km/h
668 28-12-2019 07:35:00 -1.4 C 4.22 g/m*3 -1.4 C 0 km/h
669 28-12-2019 07:40:00 -1.4 C 4.22 g/m*3 -1.4 C 0 km/h
670 28-12-2019 07:45:00 -1.4 C 4.22 g/m*3 -1.4 C 0 km/h
671 28-12-2019 07:50:00 -1.4 C 4.22 g/m*3 -1.4 C 0 km/h
672 28-12-2019 07:55:00 -1.4 C 4.22 g/m*3 -1.4 C 0 km/h
673 28-12-2019 08:00:00 -1.5 C 4.19 g/m*3 -1.5 C 0 km/h
674 28-12-2019 08:05:00 -1.5 C 4.19 g/m*3 -1.5 C 0 km/h
675 28-12-2019 08:10:00 -1.5 C 4.19 g/m*3 -1.5 C 0 km/h
Sensor: Nr:Datum:Temp:Abs-Feuchte:Windchill:Wind:
Aussen-T/F 676 28-12-2019 08:15:00 -1.6 C 4.16 g/m*3 -1.6 C 0 km/h
677 28-12-2019 08:20:00 -1.6 C 4.16 g/m*3 -1.6 C 0 km/h
678 28-12-2019 08:25:00 -1.6 C 4.16 g/m*3 -1.6 C 0 km/h
679 28-12-2019 08:30:00 -1.6 C 4.16 g/m*3 -1.6 C 0 km/h
680 28-12-2019 08:35:00 -1.7 C 4.13 g/m*3 -1.7 C 0 km/h
681 28-12-2019 08:40:00 -1.7 C 4.13 g/m*3 -1.7 C 0 km/h
682 28-12-2019 08:45:00 -1.7 C 4.13 g/m*3 -1.7 C 0 km/h
683 28-12-2019 08:50:00 -1.7 C 4.13 g/m*3 -1.7 C 0 km/h
684 28-12-2019 08:55:00 -1.7 C 4.13 g/m*3 -1.7 C 0 km/h
685 28-12-2019 09:00:00 -1.7 C 4.13 g/m*3 -1.7 C 0 km/h
686 28-12-2019 09:05:00 -1.6 C 4.16 g/m*3 -1.6 C 0 km/h
687 28-12-2019 09:10:00 -1.6 C 4.16 g/m*3 -1.6 C 0 km/h
688 28-12-2019 09:15:00 -1.6 C 4.16 g/m*3 -1.6 C 0 km/h
689 28-12-2019 09:20:00 -1.6 C 4.16 g/m*3 -1.6 C 0 km/h
690 28-12-2019 09:25:00 -1.6 C 4.16 g/m*3 -1.6 C 0 km/h
691 28-12-2019 09:30:00 -1.6 C 4.16 g/m*3 -1.6 C 0 km/h
692 28-12-2019 09:35:00 -1.6 C 4.16 g/m*3 -1.6 C 0 km/h
693 28-12-2019 09:40:00 -1.6 C 4.16 g/m*3 -1.6 C 0 km/h
694 28-12-2019 09:45:00 -1.4 C 4.22 g/m*3 -1.4 C 1.6 km/h
695 28-12-2019 09:50:00 -1.3 C 4.29 g/m*3 -1.3 C 0 km/h
696 28-12-2019 09:55:00 -1.1 C 4.35 g/m*3 -1.1 C 0 km/h
697 28-12-2019 10:00:00 -0.9 C 4.42 g/m*3 -0.9 C 0 km/h
698 28-12-2019 10:05:00 -0.8 C 4.45 g/m*3 -0.8 C 0 km/h
699 28-12-2019 10:10:00 -0.8 C 4.45 g/m*3 -0.8 C 0 km/h
700 28-12-2019 10:15:00 -0.8 C 4.45 g/m*3 -0.8 C 0 km/h
Sensor: Nr:Datum:Temp:Abs-Feuchte:Windchill:Wind:
Aussen-T/F 701 28-12-2019 10:20:00 -0.8 C 4.45 g/m*3 -0.8 C 0 km/h
702 28-12-2019 10:25:00 -0.7 C 4.48 g/m*3 -0.7 C 0 km/h
703 28-12-2019 10:30:00 -0.6 C 4.51 g/m*3 -0.6 C 3.2 km/h
704 28-12-2019 10:35:00 -0.6 C 4.51 g/m*3 -0.6 C 0 km/h
705 28-12-2019 10:40:00 -0.5 C 4.54 g/m*3 -0.5 C 0 km/h
706 28-12-2019 10:45:00 -0.4 C 4.57 g/m*3 -0.4 C 3.2 km/h
707 28-12-2019 10:50:00 -0.4 C 4.57 g/m*3 -0.4 C 3.2 km/h
708 28-12-2019 10:55:00 -0.3 C 4.6 g/m*3 -0.3 C 1.6 km/h
709 28-12-2019 11:00:00 -0.3 C 4.6 g/m*3 -0.3 C 0 km/h
710 28-12-2019 11:05:00 -0.2 C 4.64 g/m*3 -0.2 C 0 km/h
711 28-12-2019 11:10:00 -0.2 C 4.64 g/m*3 -0.2 C 1.6 km/h
712 28-12-2019 11:15:00 -0.2 C 4.64 g/m*3 -0.2 C 0 km/h
713 28-12-2019 11:20:00 -0.2 C 4.64 g/m*3 -0.2 C 3.2 km/h
714 28-12-2019 11:25:00 -0.1 C 4.67 g/m*3 -0.1 C 1.6 km/h
715 28-12-2019 11:30:00 0 C 4.7 g/m*3 0 C 0 km/h
716 28-12-2019 11:35:00 0.1 C 4.73 g/m*3 0.1 C 0 km/h
717 28-12-2019 11:40:00 0.1 C 4.73 g/m*3 0.1 C 0 km/h
718 28-12-2019 11:45:00 0.1 C 4.73 g/m*3 0.1 C 0 km/h
719 28-12-2019 11:50:00 0.1 C 4.73 g/m*3 0.1 C 0 km/h
720 28-12-2019 11:55:00 0.1 C 4.73 g/m*3 0.1 C 0 km/h
721 28-12-2019 12:00:00 0.2 C 4.77 g/m*3 0.2 C 0 km/h
722 28-12-2019 12:05:00 0.2 C 4.77 g/m*3 0.2 C 0 km/h
723 28-12-2019 12:10:00 0.3 C 4.8 g/m*3 0.3 C 0 km/h
724 28-12-2019 12:15:00 0.4 C 4.83 g/m*3 0.4 C 0 km/h
725 28-12-2019 12:20:00 0.5 C 4.86 g/m*3 0.5 C 0 km/h
Sensor: Nr:Datum:Temp:Abs-Feuchte:Windchill:Wind:
Aussen-T/F 726 28-12-2019 12:25:00 0.6 C 4.9 g/m*3 0.6 C 0 km/h
727 28-12-2019 12:30:00 0.6 C 4.9 g/m*3 0.6 C 0 km/h
728 28-12-2019 12:35:00 0.6 C 4.9 g/m*3 0.6 C 0 km/h
729 28-12-2019 12:40:00 0.7 C 4.93 g/m*3 0.7 C 0 km/h
730 28-12-2019 12:45:00 0.7 C 4.93 g/m*3 0.7 C 0 km/h
731 28-12-2019 12:50:00 0.8 C 4.97 g/m*3 0.8 C 0 km/h
732 28-12-2019 12:55:00 0.8 C 4.97 g/m*3 0.8 C 0 km/h
733 28-12-2019 13:00:00 0.9 C 5 g/m*3 0.9 C 0 km/h
734 28-12-2019 13:05:00 0.9 C 5 g/m*3 0.9 C 0 km/h
735 28-12-2019 13:10:00 1 C 5.03 g/m*3 1 C 0 km/h
736 28-12-2019 13:15:00 1.1 C 5.07 g/m*3 1.1 C 0 km/h
737 28-12-2019 13:20:00 1.2 C 5.1 g/m*3 1.2 C 0 km/h
738 28-12-2019 13:25:00 1.2 C 5.1 g/m*3 1.2 C 0 km/h
739 28-12-2019 13:30:00 1.3 C 5.14 g/m*3 1.3 C 0 km/h
740 28-12-2019 13:35:00 1.3 C 5.14 g/m*3 1.3 C 0 km/h
741 28-12-2019 13:40:00 1.3 C 5.14 g/m*3 1.3 C 0 km/h
742 28-12-2019 13:45:00 1.3 C 5.14 g/m*3 1.3 C 0 km/h
743 28-12-2019 13:50:00 1.3 C 5.14 g/m*3 1.3 C 1.6 km/h
744 28-12-2019 13:55:00 1.3 C 5.14 g/m*3 1.3 C 0 km/h
745 28-12-2019 14:00:00 1.3 C 5.14 g/m*3 1.3 C 0 km/h
746 28-12-2019 14:05:00 1.3 C 5.14 g/m*3 1.3 C 0 km/h
747 28-12-2019 14:10:00 1.3 C 5.14 g/m*3 1.3 C 0 km/h
748 28-12-2019 14:15:00 1.3 C 5.14 g/m*3 1.3 C 0 km/h
749 28-12-2019 14:20:00 1.4 C 5.17 g/m*3 1.4 C 0 km/h
750 28-12-2019 14:25:00 1.4 C 5.17 g/m*3 1.4 C 0 km/h
Sensor: Nr:Datum:Temp:Abs-Feuchte:Windchill:Wind:
Aussen-T/F 751 28-12-2019 14:30:00 1.4 C 5.17 g/m*3 1.4 C 0 km/h
752 28-12-2019 14:35:00 1.4 C 5.17 g/m*3 1.4 C 0 km/h
753 28-12-2019 14:40:00 1.3 C 5.14 g/m*3 1.3 C 0 km/h
754 28-12-2019 14:45:00 1.3 C 5.14 g/m*3 1.3 C 0 km/h
755 28-12-2019 14:50:00 1.3 C 5.14 g/m*3 1.3 C 0 km/h
756 28-12-2019 14:55:00 1.2 C 5.1 g/m*3 1.2 C 3.2 km/h
757 28-12-2019 15:00:00 1.2 C 5.1 g/m*3 1.2 C 1.6 km/h
758 28-12-2019 15:05:00 1.2 C 5.05 g/m*3 1.2 C 1.6 km/h
759 28-12-2019 15:10:00 1.2 C 5.05 g/m*3 1.2 C 0 km/h
760 28-12-2019 15:15:00 1.1 C 5.02 g/m*3 1.1 C 0 km/h
761 28-12-2019 15:20:00 1.1 C 5.02 g/m*3 1.1 C 0 km/h
762 28-12-2019 15:25:00 1.1 C 5.02 g/m*3 1.1 C 0 km/h
763 28-12-2019 15:30:00 1.1 C 5.02 g/m*3 1.1 C 0 km/h
764 28-12-2019 15:35:00 1 C 4.98 g/m*3 1 C 0 km/h
765 28-12-2019 15:40:00 1 C 4.98 g/m*3 1 C 0 km/h
766 28-12-2019 15:45:00 1 C 4.98 g/m*3 1 C 0 km/h
767 28-12-2019 15:50:00 1 C 4.98 g/m*3 1 C 0 km/h
768 28-12-2019 15:55:00 1 C 4.98 g/m*3 1 C 0 km/h
769 28-12-2019 16:00:00 1 C 4.98 g/m*3 1 C 0 km/h
770 28-12-2019 16:05:00 0.9 C 4.95 g/m*3 0.9 C 0 km/h
771 28-12-2019 16:10:00 0.9 C 4.95 g/m*3 0.9 C 0 km/h
772 28-12-2019 16:15:00 0.8 C 4.91 g/m*3 0.8 C 0 km/h
773 28-12-2019 16:20:00 0.8 C 4.91 g/m*3 0.8 C 0 km/h
774 28-12-2019 16:25:00 0.8 C 4.91 g/m*3 0.8 C 0 km/h
775 28-12-2019 16:30:00 0.7 C 4.88 g/m*3 0.7 C 0 km/h
Sensor: Nr:Datum:Temp:Abs-Feuchte:Windchill:Wind:
Aussen-T/F 776 28-12-2019 16:35:00 0.6 C 4.85 g/m*3 0.6 C 0 km/h
777 28-12-2019 16:40:00 0.6 C 4.85 g/m*3 0.6 C 0 km/h
778 28-12-2019 16:45:00 0.5 C 4.81 g/m*3 0.5 C 0 km/h
779 28-12-2019 16:50:00 0.4 C 4.78 g/m*3 0.4 C 0 km/h
780 28-12-2019 16:55:00 0.4 C 4.78 g/m*3 0.4 C 0 km/h
781 28-12-2019 17:00:00 0.3 C 4.75 g/m*3 0.3 C 0 km/h
782 28-12-2019 17:05:00 0.3 C 4.75 g/m*3 0.3 C 0 km/h
783 28-12-2019 17:10:00 0.3 C 4.75 g/m*3 0.3 C 0 km/h
784 28-12-2019 17:15:00 0.3 C 4.75 g/m*3 0.3 C 0 km/h
785 28-12-2019 17:20:00 0.3 C 4.75 g/m*3 0.3 C 0 km/h
786 28-12-2019 17:25:00 0.2 C 4.72 g/m*3 0.2 C 0 km/h
787 28-12-2019 17:30:00 0.2 C 4.72 g/m*3 0.2 C 0 km/h
788 28-12-2019 17:35:00 0.2 C 4.72 g/m*3 0.2 C 0 km/h
789 28-12-2019 17:40:00 0.1 C 4.68 g/m*3 0.1 C 0 km/h
790 28-12-2019 17:45:00 0.1 C 4.68 g/m*3 0.1 C 0 km/h
791 28-12-2019 17:50:00 0.1 C 4.68 g/m*3 0.1 C 0 km/h
792 28-12-2019 17:55:00 -0.1 C 4.62 g/m*3 -0.1 C 0 km/h
793 28-12-2019 18:00:00 -0.1 C 4.57 g/m*3 -0.1 C 0 km/h
794 28-12-2019 18:05:00 -0.2 C 4.54 g/m*3 -0.2 C 0 km/h
795 28-12-2019 18:10:00 -0.2 C 4.59 g/m*3 -0.2 C 0 km/h
796 28-12-2019 18:15:00 -0.3 C 4.56 g/m*3 -0.3 C 0 km/h
797 28-12-2019 18:20:00 -0.3 C 4.56 g/m*3 -0.3 C 0 km/h
798 28-12-2019 18:25:00 -0.3 C 4.56 g/m*3 -0.3 C 0 km/h
799 28-12-2019 18:30:00 -0.3 C 4.56 g/m*3 -0.3 C 0 km/h
800 28-12-2019 18:35:00 -0.3 C 4.56 g/m*3 -0.3 C 0 km/h
Sensor: Nr:Datum:Temp:Abs-Feuchte:Windchill:Wind:
Aussen-T/F 801 28-12-2019 18:40:00 -0.3 C 4.56 g/m*3 -0.3 C 0 km/h
802 28-12-2019 18:45:00 -0.3 C 4.56 g/m*3 -0.3 C 0 km/h
803 28-12-2019 18:50:00 -0.3 C 4.56 g/m*3 -0.3 C 0 km/h
804 28-12-2019 18:55:00 -0.4 C 4.52 g/m*3 -0.4 C 0 km/h
805 28-12-2019 19:00:00 -0.4 C 4.52 g/m*3 -0.4 C 0 km/h
806 28-12-2019 19:05:00 -0.4 C 4.52 g/m*3 -0.4 C 0 km/h
807 28-12-2019 19:10:00 -0.4 C 4.52 g/m*3 -0.4 C 0 km/h
808 28-12-2019 19:15:00 -0.5 C 4.49 g/m*3 -0.5 C 0 km/h
809 28-12-2019 19:20:00 -0.5 C 4.49 g/m*3 -0.5 C 0 km/h
810 28-12-2019 19:25:00 -0.5 C 4.49 g/m*3 -0.5 C 0 km/h
811 28-12-2019 19:30:00 -0.5 C 4.49 g/m*3 -0.5 C 0 km/h
812 28-12-2019 19:35:00 -0.6 C 4.46 g/m*3 -0.6 C 0 km/h
813 28-12-2019 19:40:00 -0.6 C 4.46 g/m*3 -0.6 C 0 km/h
814 28-12-2019 19:45:00 -0.6 C 4.46 g/m*3 -0.6 C 0 km/h
815 28-12-2019 19:50:00 -0.7 C 4.43 g/m*3 -0.7 C 0 km/h
816 28-12-2019 19:55:00 -0.6 C 4.46 g/m*3 -0.6 C 0 km/h
817 28-12-2019 20:00:00 -0.6 C 4.46 g/m*3 -0.6 C 0 km/h
818 28-12-2019 20:05:00 -0.6 C 4.46 g/m*3 -0.6 C 0 km/h
819 28-12-2019 20:10:00 -0.7 C 4.43 g/m*3 -0.7 C 0 km/h
820 28-12-2019 20:15:00 -0.6 C 4.46 g/m*3 -0.6 C 0 km/h
821 28-12-2019 20:20:00 -0.6 C 4.46 g/m*3 -0.6 C 3.2 km/h
822 28-12-2019 20:25:00 -0.6 C 4.46 g/m*3 -0.6 C 0 km/h
823 28-12-2019 20:30:00 -0.4 C 4.52 g/m*3 -0.4 C 0 km/h
824 28-12-2019 20:35:00 -0.3 C 4.56 g/m*3 -0.3 C 0 km/h
825 28-12-2019 20:40:00 -0.3 C 4.56 g/m*3 -0.3 C 0 km/h
Sensor: Nr:Datum:Temp:Abs-Feuchte:Windchill:Wind:
Aussen-T/F 826 28-12-2019 20:45:00 -0.3 C 4.56 g/m*3 -0.3 C 0 km/h
827 28-12-2019 20:50:00 -0.3 C 4.56 g/m*3 -0.3 C 0 km/h
828 28-12-2019 20:55:00 -0.3 C 4.56 g/m*3 -0.3 C 0 km/h
829 28-12-2019 21:00:00 -0.3 C 4.56 g/m*3 -0.3 C 0 km/h
830 28-12-2019 21:05:00 -0.3 C 4.56 g/m*3 -0.3 C 0 km/h
831 28-12-2019 21:10:00 -0.4 C 4.52 g/m*3 -0.4 C 0 km/h
832 28-12-2019 21:15:00 -0.4 C 4.52 g/m*3 -0.4 C 4.8 km/h
833 28-12-2019 21:20:00 -0.4 C 4.52 g/m*3 -0.4 C 1.6 km/h
834 28-12-2019 21:25:00 -0.4 C 4.52 g/m*3 -0.4 C 0 km/h
835 28-12-2019 21:30:00 -0.4 C 4.52 g/m*3 -0.4 C 0 km/h
836 28-12-2019 21:35:00 -0.4 C 4.52 g/m*3 -0.4 C 0 km/h
837 28-12-2019 21:40:00 -0.5 C 4.49 g/m*3 -0.5 C 0 km/h
838 28-12-2019 21:45:00 -0.6 C 4.46 g/m*3 -0.6 C 0 km/h
839 28-12-2019 21:50:00 -0.6 C 4.46 g/m*3 -0.6 C 3.2 km/h
840 28-12-2019 21:55:00 -0.7 C 4.43 g/m*3 -0.7 C 0 km/h
841 28-12-2019 22:00:00 -0.8 C 4.4 g/m*3 -0.8 C 0 km/h
842 28-12-2019 22:05:00 -0.8 C 4.4 g/m*3 -0.8 C 0 km/h
843 28-12-2019 22:10:00 -0.8 C 4.4 g/m*3 -0.8 C 0 km/h
844 28-12-2019 22:15:00 -0.9 C 4.37 g/m*3 -0.9 C 0 km/h
845 28-12-2019 22:20:00 -0.9 C 4.37 g/m*3 -0.9 C 0 km/h
846 28-12-2019 22:25:00 -1 C 4.34 g/m*3 -1 C 0 km/h
847 28-12-2019 22:30:00 -1 C 4.34 g/m*3 -1 C 0 km/h
848 28-12-2019 22:35:00 -1.1 C 4.31 g/m*3 -1.1 C 0 km/h
849 28-12-2019 22:40:00 -1.1 C 4.31 g/m*3 -1.1 C 0 km/h
850 28-12-2019 22:45:00 -1.1 C 4.31 g/m*3 -1.1 C 0 km/h
Sensor: Nr:Datum:Temp:Abs-Feuchte:Windchill:Wind:
Aussen-T/F 851 28-12-2019 22:50:00 -1.1 C 4.31 g/m*3 -1.1 C 0 km/h
852 28-12-2019 22:55:00 -1.1 C 4.31 g/m*3 -1.1 C 0 km/h
853 28-12-2019 23:00:00 -1.2 C 4.28 g/m*3 -1.2 C 0 km/h
854 28-12-2019 23:05:00 -1.2 C 4.28 g/m*3 -1.2 C 0 km/h
855 28-12-2019 23:10:00 -1.2 C 4.28 g/m*3 -1.2 C 0 km/h
856 28-12-2019 23:15:00 -1.2 C 4.28 g/m*3 -1.2 C 0 km/h
857 28-12-2019 23:20:00 -1.2 C 4.28 g/m*3 -1.2 C 0 km/h
858 28-12-2019 23:25:00 -1.2 C 4.28 g/m*3 -1.2 C 0 km/h
859 28-12-2019 23:30:00 -1.3 C 4.25 g/m*3 -1.3 C 0 km/h
860 28-12-2019 23:35:00 -1.3 C 4.25 g/m*3 -1.3 C 0 km/h
861 28-12-2019 23:40:00 -1.3 C 4.25 g/m*3 -1.3 C 0 km/h
862 28-12-2019 23:45:00 -1.3 C 4.25 g/m*3 -1.3 C 0 km/h
863 28-12-2019 23:50:00 -1.4 C 4.22 g/m*3 -1.4 C 0 km/h
864 28-12-2019 23:55:00 -1.4 C 4.22 g/m*3 -1.4 C 0 km/h
865 29-12-2019 00:00:00 -1.4 C 4.22 g/m*3 -1.4 C 0 km/h
866 29-12-2019 00:05:00 -1.4 C 4.22 g/m*3 -1.4 C 0 km/h
867 29-12-2019 00:10:00 -1.5 C 4.19 g/m*3 -1.5 C 0 km/h
868 29-12-2019 00:15:00 -1.5 C 4.19 g/m*3 -1.5 C 0 km/h
869 29-12-2019 00:20:00 -1.6 C 4.16 g/m*3 -1.6 C 0 km/h
870 29-12-2019 00:25:00 -1.6 C 4.16 g/m*3 -1.6 C 0 km/h
871 29-12-2019 00:30:00 -1.6 C 4.16 g/m*3 -1.6 C 0 km/h
872 29-12-2019 00:35:00 -1.6 C 4.16 g/m*3 -1.6 C 0 km/h
873 29-12-2019 00:40:00 -1.6 C 4.16 g/m*3 -1.6 C 0 km/h
874 29-12-2019 00:45:00 -1.7 C 4.13 g/m*3 -1.7 C 0 km/h
875 29-12-2019 00:50:00 -1.7 C 4.13 g/m*3 -1.7 C 0 km/h
Sensor: Nr:Datum:Temp:Abs-Feuchte:Windchill:Wind:
Aussen-T/F 876 29-12-2019 00:55:00 -1.8 C 4.1 g/m*3 -1.8 C 0 km/h
877 29-12-2019 01:00:00 -1.8 C 4.1 g/m*3 -1.8 C 0 km/h
878 29-12-2019 01:05:00 -1.8 C 4.1 g/m*3 -1.8 C 0 km/h
879 29-12-2019 01:10:00 -1.9 C 4.08 g/m*3 -1.9 C 0 km/h
880 29-12-2019 01:15:00 -1.9 C 4.08 g/m*3 -1.9 C 0 km/h
881 29-12-2019 01:20:00 -2 C 4.05 g/m*3 -2 C 0 km/h
882 29-12-2019 01:25:00 -1.9 C 4.08 g/m*3 -1.9 C 0 km/h
883 29-12-2019 01:30:00 -1.9 C 4.08 g/m*3 -1.9 C 0 km/h
884 29-12-2019 01:35:00 -1.9 C 4.08 g/m*3 -1.9 C 0 km/h
885 29-12-2019 01:40:00 -1.9 C 4.08 g/m*3 -1.9 C 0 km/h
886 29-12-2019 01:45:00 -2 C 4.05 g/m*3 -2 C 0 km/h
887 29-12-2019 01:50:00 -2 C 4.05 g/m*3 -2 C 0 km/h
888 29-12-2019 01:55:00 -2.1 C 4.02 g/m*3 -2.1 C 0 km/h
889 29-12-2019 02:00:00 -2.1 C 4.02 g/m*3 -2.1 C 0 km/h
890 29-12-2019 02:05:00 -2.2 C 3.99 g/m*3 -2.2 C 0 km/h
891 29-12-2019 02:10:00 -2.2 C 3.99 g/m*3 -2.2 C 0 km/h
892 29-12-2019 02:15:00 -2.2 C 3.99 g/m*3 -2.2 C 0 km/h
893 29-12-2019 02:20:00 -2.2 C 3.99 g/m*3 -2.2 C 0 km/h
894 29-12-2019 02:25:00 -2.3 C 3.96 g/m*3 -2.3 C 0 km/h
895 29-12-2019 02:30:00 -2.3 C 3.96 g/m*3 -2.3 C 0 km/h
896 29-12-2019 02:35:00 -2.3 C 3.96 g/m*3 -2.3 C 0 km/h
897 29-12-2019 02:40:00 -2.4 C 3.93 g/m*3 -2.4 C 0 km/h
898 29-12-2019 02:45:00 -2.3 C 3.96 g/m*3 -2.3 C 0 km/h
899 29-12-2019 02:50:00 -2.3 C 3.96 g/m*3 -2.3 C 0 km/h
900 29-12-2019 02:55:00 -2.3 C 3.96 g/m*3 -2.3 C 0 km/h
Sensor: Nr:Datum:Temp:Abs-Feuchte:Windchill:Wind:
Aussen-T/F 901 29-12-2019 03:00:00 -2.4 C 3.93 g/m*3 -2.4 C 0 km/h
902 29-12-2019 03:05:00 -2.4 C 3.93 g/m*3 -2.4 C 0 km/h
903 29-12-2019 03:10:00 -2.4 C 3.93 g/m*3 -2.4 C 0 km/h
904 29-12-2019 03:15:00 -2.4 C 3.93 g/m*3 -2.4 C 0 km/h
905 29-12-2019 03:20:00 -2.5 C 3.91 g/m*3 -2.5 C 0 km/h
906 29-12-2019 03:25:00 -2.6 C 3.88 g/m*3 -2.6 C 0 km/h
907 29-12-2019 03:30:00 -2.6 C 3.88 g/m*3 -2.6 C 0 km/h
908 29-12-2019 03:35:00 -2.6 C 3.88 g/m*3 -2.6 C 0 km/h
909 29-12-2019 03:40:00 -2.6 C 3.88 g/m*3 -2.6 C 0 km/h
910 29-12-2019 03:45:00 -2.6 C 3.88 g/m*3 -2.6 C 0 km/h
911 29-12-2019 03:50:00 -2.6 C 3.88 g/m*3 -2.6 C 0 km/h
912 29-12-2019 03:55:00 -2.6 C 3.88 g/m*3 -2.6 C 0 km/h
913 29-12-2019 04:00:00 -2.6 C 3.88 g/m*3 -2.6 C 0 km/h
914 29-12-2019 04:05:00 -2.6 C 3.88 g/m*3 -2.6 C 0 km/h
915 29-12-2019 04:10:00 -2.6 C 3.88 g/m*3 -2.6 C 0 km/h
916 29-12-2019 04:15:00 -2.6 C 3.88 g/m*3 -2.6 C 0 km/h
917 29-12-2019 04:20:00 -2.7 C 3.85 g/m*3 -2.7 C 0 km/h
918 29-12-2019 04:25:00 -2.7 C 3.85 g/m*3 -2.7 C 0 km/h
919 29-12-2019 04:30:00 -2.7 C 3.85 g/m*3 -2.7 C 0 km/h
920 29-12-2019 04:35:00 -2.6 C 3.88 g/m*3 -2.6 C 0 km/h
921 29-12-2019 04:40:00 -2.6 C 3.88 g/m*3 -2.6 C 0 km/h
922 29-12-2019 04:45:00 -2.7 C 3.85 g/m*3 -2.7 C 0 km/h
923 29-12-2019 04:50:00 -2.7 C 3.85 g/m*3 -2.7 C 0 km/h
924 29-12-2019 04:55:00 -2.7 C 3.85 g/m*3 -2.7 C 0 km/h
925 29-12-2019 05:00:00 -2.8 C 3.82 g/m*3 -2.8 C 0 km/h
Sensor: Nr:Datum:Temp:Abs-Feuchte:Windchill:Wind:
Aussen-T/F 926 29-12-2019 05:05:00 -2.8 C 3.82 g/m*3 -2.8 C 0 km/h
927 29-12-2019 05:10:00 -2.8 C 3.82 g/m*3 -2.8 C 0 km/h
928 29-12-2019 05:15:00 -2.9 C 3.8 g/m*3 -2.9 C 0 km/h
929 29-12-2019 05:20:00 -3 C 3.77 g/m*3 -3 C 0 km/h
930 29-12-2019 05:25:00 -3.1 C 3.74 g/m*3 -3.1 C 0 km/h
931 29-12-2019 05:30:00 -3.1 C 3.74 g/m*3 -3.1 C 0 km/h
932 29-12-2019 05:35:00 -3.1 C 3.74 g/m*3 -3.1 C 0 km/h
933 29-12-2019 05:40:00 -3.1 C 3.74 g/m*3 -3.1 C 0 km/h
934 29-12-2019 05:45:00 -3.1 C 3.74 g/m*3 -3.1 C 0 km/h
935 29-12-2019 05:50:00 -3.1 C 3.74 g/m*3 -3.1 C 0 km/h
936 29-12-2019 05:55:00 -3.1 C 3.74 g/m*3 -3.1 C 0 km/h
937 29-12-2019 06:00:00 -3.2 C 3.72 g/m*3 -3.2 C 0 km/h
938 29-12-2019 06:05:00 -3.2 C 3.72 g/m*3 -3.2 C 0 km/h
939 29-12-2019 06:10:00 -3.2 C 3.72 g/m*3 -3.2 C 0 km/h
940 29-12-2019 06:15:00 -3.2 C 3.72 g/m*3 -3.2 C 0 km/h
941 29-12-2019 06:20:00 -3.3 C 3.69 g/m*3 -3.3 C 0 km/h
942 29-12-2019 06:25:00 -3.3 C 3.69 g/m*3 -3.3 C 0 km/h
943 29-12-2019 06:30:00 -3.3 C 3.69 g/m*3 -3.3 C 0 km/h
944 29-12-2019 06:35:00 -3.3 C 3.69 g/m*3 -3.3 C 0 km/h
945 29-12-2019 06:40:00 -3.3 C 3.69 g/m*3 -3.3 C 0 km/h
946 29-12-2019 06:45:00 -3.3 C 3.69 g/m*3 -3.3 C 0 km/h
947 29-12-2019 06:50:00 -3.3 C 3.69 g/m*3 -3.3 C 0 km/h
948 29-12-2019 06:55:00 -3.3 C 3.69 g/m*3 -3.3 C 0 km/h
949 29-12-2019 07:00:00 -3.4 C 3.67 g/m*3 -3.4 C 0 km/h
950 29-12-2019 07:05:00 -3.4 C 3.67 g/m*3 -3.4 C 0 km/h
Sensor: Nr:Datum:Temp:Abs-Feuchte:Windchill:Wind:
Aussen-T/F 951 29-12-2019 07:10:00 -3.5 C 3.64 g/m*3 -3.5 C 0 km/h
952 29-12-2019 07:15:00 -3.5 C 3.64 g/m*3 -3.5 C 0 km/h
953 29-12-2019 07:20:00 -3.5 C 3.64 g/m*3 -3.5 C 0 km/h
954 29-12-2019 07:25:00 -3.6 C 3.61 g/m*3 -3.6 C 0 km/h
955 29-12-2019 07:30:00 -3.6 C 3.61 g/m*3 -3.6 C 0 km/h
956 29-12-2019 07:35:00 -3.6 C 3.61 g/m*3 -3.6 C 0 km/h
957 29-12-2019 07:40:00 -3.6 C 3.61 g/m*3 -3.6 C 0 km/h
958 29-12-2019 07:45:00 -3.6 C 3.61 g/m*3 -3.6 C 0 km/h
959 29-12-2019 07:50:00 -3.6 C 3.61 g/m*3 -3.6 C 0 km/h
960 29-12-2019 07:55:00 -3.6 C 3.61 g/m*3 -3.6 C 0 km/h
961 29-12-2019 08:00:00 -3.6 C 3.61 g/m*3 -3.6 C 0 km/h
962 29-12-2019 08:05:00 -3.4 C 3.67 g/m*3 -3.4 C 0 km/h
963 29-12-2019 08:10:00 -3.4 C 3.67 g/m*3 -3.4 C 0 km/h
964 29-12-2019 08:15:00 -3.3 C 3.69 g/m*3 -3.3 C 0 km/h
965 29-12-2019 08:20:00 -3.2 C 3.72 g/m*3 -3.2 C 0 km/h
966 29-12-2019 08:25:00 -3.2 C 3.72 g/m*3 -3.2 C 0 km/h
967 29-12-2019 08:30:00 -3.1 C 3.78 g/m*3 -3.1 C 0 km/h
968 29-12-2019 08:35:00 -3.1 C 3.78 g/m*3 -3.1 C 0 km/h
969 29-12-2019 08:40:00 -3.1 C 3.78 g/m*3 -3.1 C 0 km/h
970 29-12-2019 08:45:00 -3.1 C 3.74 g/m*3 -3.1 C 0 km/h
971 29-12-2019 08:50:00 -3.2 C 3.72 g/m*3 -3.2 C 0 km/h
972 29-12-2019 08:55:00 -3.2 C 3.72 g/m*3 -3.2 C 0 km/h
973 29-12-2019 09:00:00 -3.2 C 3.72 g/m*3 -3.2 C 0 km/h
974 29-12-2019 09:05:00 -3.1 C 3.74 g/m*3 -3.1 C 0 km/h
975 29-12-2019 09:10:00 -3.1 C 3.78 g/m*3 -3.1 C 0 km/h
Sensor: Nr:Datum:Temp:Abs-Feuchte:Windchill:Wind:
Aussen-T/F 976 29-12-2019 09:15:00 -2.9 C 3.84 g/m*3 -2.9 C 0 km/h
977 29-12-2019 09:20:00 -2.9 C 3.8 g/m*3 -2.9 C 0 km/h
978 29-12-2019 09:25:00 -2.9 C 3.8 g/m*3 -2.9 C 0 km/h
979 29-12-2019 09:30:00 -2.8 C 3.82 g/m*3 -2.8 C 0 km/h
980 29-12-2019 09:35:00 -2.8 C 3.82 g/m*3 -2.8 C 0 km/h
981 29-12-2019 09:40:00 -2.8 C 3.82 g/m*3 -2.8 C 0 km/h
982 29-12-2019 09:45:00 -2.8 C 3.82 g/m*3 -2.8 C 0 km/h
983 29-12-2019 09:50:00 -2.8 C 3.82 g/m*3 -2.8 C 0 km/h
984 29-12-2019 09:55:00 -2.8 C 3.82 g/m*3 -2.8 C 0 km/h
985 29-12-2019 10:00:00 -2.8 C 3.82 g/m*3 -2.8 C 0 km/h
986 29-12-2019 10:05:00 -2.8 C 3.82 g/m*3 -2.8 C 0 km/h
987 29-12-2019 10:10:00 -2.8 C 3.82 g/m*3 -2.8 C 0 km/h
988 29-12-2019 10:15:00 -2.8 C 3.86 g/m*3 -2.8 C 0 km/h
989 29-12-2019 10:20:00 -2.7 C 3.89 g/m*3 -2.7 C 0 km/h
990 29-12-2019 10:25:00 -2.6 C 3.92 g/m*3 -2.6 C 1.6 km/h
991 29-12-2019 10:30:00 -2.5 C 3.95 g/m*3 -2.5 C 0 km/h
992 29-12-2019 10:35:00 -2.4 C 3.98 g/m*3 -2.4 C 0 km/h
993 29-12-2019 10:40:00 -2.3 C 4 g/m*3 -2.3 C 0 km/h
994 29-12-2019 10:45:00 -2.2 C 4.03 g/m*3 -2.2 C 0 km/h
995 29-12-2019 10:50:00 -2.2 C 4.03 g/m*3 -2.2 C 0 km/h
996 29-12-2019 10:55:00 -2.1 C 4.06 g/m*3 -2.1 C 0 km/h
997 29-12-2019 11:00:00 -1.9 C 4.12 g/m*3 -1.9 C 1.6 km/h
998 29-12-2019 11:05:00 -1.7 C 4.18 g/m*3 -1.7 C 0 km/h
999 29-12-2019 11:10:00 -1.6 C 4.21 g/m*3 -1.6 C 0 km/h
1000 29-12-2019 11:15:00 -1.4 C 4.26 g/m*3 -1.4 C 0 km/h
Sensor: Nr:Datum:Temp:Abs-Feuchte:Windchill:Wind:
Aussen-T/F 1001 29-12-2019 11:20:00 -1.3 C 4.29 g/m*3 -1.3 C 0 km/h
1002 29-12-2019 11:25:00 -1.2 C 4.32 g/m*3 -1.2 C 0 km/h
1003 29-12-2019 11:30:00 -1 C 4.38 g/m*3 -1 C 1.6 km/h
1004 29-12-2019 11:35:00 -0.8 C 4.45 g/m*3 -0.8 C 0 km/h
1005 29-12-2019 11:40:00 -0.7 C 4.48 g/m*3 -0.7 C 0 km/h
1006 29-12-2019 11:45:00 -0.6 C 4.51 g/m*3 -0.6 C 0 km/h
1007 29-12-2019 11:50:00 -0.3 C 4.6 g/m*3 -0.3 C 0 km/h
1008 29-12-2019 11:55:00 -0.2 C 4.64 g/m*3 -0.2 C 0 km/h
1009 29-12-2019 12:00:00 -0.1 C 4.67 g/m*3 -0.1 C 1.6 km/h
1010 29-12-2019 12:05:00 0 C 4.7 g/m*3 0 C 1.6 km/h
1011 29-12-2019 12:10:00 0.1 C 4.73 g/m*3 0.1 C 0 km/h
1012 29-12-2019 12:15:00 0.2 C 4.77 g/m*3 0.2 C 0 km/h
1013 29-12-2019 12:20:00 0.3 C 4.8 g/m*3 0.3 C 1.6 km/h
1014 29-12-2019 12:25:00 0.3 C 4.8 g/m*3 0.3 C 0 km/h
1015 29-12-2019 12:30:00 0.4 C 4.83 g/m*3 0.4 C 3.2 km/h
1016 29-12-2019 12:35:00 0.6 C 4.9 g/m*3 0.6 C 0 km/h
1017 29-12-2019 12:40:00 0.6 C 4.9 g/m*3 0.6 C 0 km/h
1018 29-12-2019 12:45:00 0.7 C 4.93 g/m*3 0.7 C 0 km/h
1019 29-12-2019 12:50:00 0.7 C 4.93 g/m*3 0.7 C 0 km/h
1020 29-12-2019 12:55:00 0.8 C 4.97 g/m*3 0.8 C 0 km/h
1021 29-12-2019 13:00:00 0.9 C 5 g/m*3 0.9 C 0 km/h
1022 29-12-2019 13:05:00 1 C 5.03 g/m*3 1 C 0 km/h
1023 29-12-2019 13:10:00 1.1 C 5.07 g/m*3 1.1 C 0 km/h
1024 29-12-2019 13:15:00 1.2 C 5.1 g/m*3 1.2 C 0 km/h
1025 29-12-2019 13:20:00 1.3 C 5.14 g/m*3 1.3 C 0 km/h
Sensor: Nr:Datum:Temp:Abs-Feuchte:Windchill:Wind:
Aussen-T/F 1026 29-12-2019 13:25:00 1.3 C 5.14 g/m*3 1.3 C 0 km/h
1027 29-12-2019 13:30:00 1.4 C 5.17 g/m*3 1.4 C 0 km/h
1028 29-12-2019 13:35:00 1.5 C 5.21 g/m*3 1.5 C 0 km/h
1029 29-12-2019 13:40:00 1.6 C 5.25 g/m*3 1.6 C 0 km/h
1030 29-12-2019 13:45:00 1.6 C 5.25 g/m*3 1.6 C 0 km/h
1031 29-12-2019 13:50:00 1.7 C 5.28 g/m*3 1.7 C 0 km/h
1032 29-12-2019 13:55:00 1.8 C 5.32 g/m*3 1.8 C 0 km/h
1033 29-12-2019 14:00:00 1.8 C 5.32 g/m*3 1.8 C 0 km/h
1034 29-12-2019 14:05:00 1.8 C 5.32 g/m*3 1.8 C 0 km/h
1035 29-12-2019 14:10:00 1.9 C 5.35 g/m*3 1.9 C 0 km/h
1036 29-12-2019 14:15:00 1.9 C 5.35 g/m*3 1.9 C 0 km/h
1037 29-12-2019 14:20:00 2 C 5.39 g/m*3 2 C 0 km/h
1038 29-12-2019 14:25:00 2.1 C 5.43 g/m*3 2.1 C 0 km/h
1039 29-12-2019 14:30:00 2.2 C 5.46 g/m*3 2.2 C 0 km/h
1040 29-12-2019 14:35:00 2.2 C 5.46 g/m*3 2.2 C 1.6 km/h
1041 29-12-2019 14:40:00 2.2 C 5.41 g/m*3 2.2 C 1.6 km/h
1042 29-12-2019 14:45:00 2.2 C 5.41 g/m*3 2.2 C 0 km/h
1043 29-12-2019 14:50:00 2.2 C 5.41 g/m*3 2.2 C 1.6 km/h
1044 29-12-2019 14:55:00 2.2 C 5.35 g/m*3 2.2 C 0 km/h
1045 29-12-2019 15:00:00 2.2 C 5.35 g/m*3 2.2 C 3.2 km/h
1046 29-12-2019 15:05:00 2.2 C 5.29 g/m*3 2.2 C 1.6 km/h
1047 29-12-2019 15:10:00 2.2 C 5.29 g/m*3 2.2 C 0 km/h
1048 29-12-2019 15:15:00 2.2 C 5.29 g/m*3 0.36 C 6.4 km/h
1049 29-12-2019 15:20:00 2.2 C 5.18 g/m*3 0.36 C 6.4 km/h
1050 29-12-2019 15:25:00 2.3 C 5.16 g/m*3 2.3 C 3.2 km/h
Sensor: Nr:Datum:Temp:Abs-Feuchte:Windchill:Wind:
Aussen-T/F 1051 29-12-2019 15:30:00 2.3 C 5.16 g/m*3 2.3 C 1.6 km/h
1052 29-12-2019 15:35:00 2.3 C 5.16 g/m*3 2.3 C 1.6 km/h
1053 29-12-2019 15:40:00 2.3 C 5.22 g/m*3 2.3 C 0 km/h
1054 29-12-2019 15:45:00 2.3 C 5.22 g/m*3 2.3 C 0 km/h
1055 29-12-2019 15:50:00 2.3 C 5.22 g/m*3 2.3 C 0 km/h
1056 29-12-2019 15:55:00 2.2 C 5.18 g/m*3 2.2 C 0 km/h
1057 29-12-2019 16:00:00 2.1 C 5.15 g/m*3 2.1 C 0 km/h
1058 29-12-2019 16:05:00 1.8 C 4.99 g/m*3 1.8 C 0 km/h
1059 29-12-2019 16:10:00 1.7 C 5.01 g/m*3 1.7 C 0 km/h
1060 29-12-2019 16:15:00 1.5 C 4.94 g/m*3 1.5 C 0 km/h
1061 29-12-2019 16:20:00 1.4 C 4.91 g/m*3 1.4 C 0 km/h
1062 29-12-2019 16:25:00 1.3 C 4.87 g/m*3 1.3 C 0 km/h
1063 29-12-2019 16:30:00 1.2 C 4.89 g/m*3 1.2 C 0 km/h
1064 29-12-2019 16:35:00 1.1 C 4.86 g/m*3 1.1 C 0 km/h
1065 29-12-2019 16:40:00 1.1 C 4.86 g/m*3 1.1 C 0 km/h
1066 29-12-2019 16:45:00 0.9 C 4.79 g/m*3 0.9 C 0 km/h
1067 29-12-2019 16:50:00 0.9 C 4.79 g/m*3 0.9 C 0 km/h
1068 29-12-2019 16:55:00 0.8 C 4.76 g/m*3 0.8 C 0 km/h
1069 29-12-2019 17:00:00 0.8 C 4.76 g/m*3 0.8 C 0 km/h
1070 29-12-2019 17:05:00 0.7 C 4.78 g/m*3 0.7 C 0 km/h
1071 29-12-2019 17:10:00 0.7 C 4.78 g/m*3 0.7 C 0 km/h
1072 29-12-2019 17:15:00 0.7 C 4.78 g/m*3 0.7 C 0 km/h
1073 29-12-2019 17:20:00 0.6 C 4.75 g/m*3 0.6 C 0 km/h
1074 29-12-2019 17:25:00 0.5 C 4.71 g/m*3 0.5 C 1.6 km/h
1075 29-12-2019 17:30:00 0.4 C 4.68 g/m*3 0.4 C 1.6 km/h
Sensor: Nr:Datum:Temp:Abs-Feuchte:Windchill:Wind:
Aussen-T/F 1076 29-12-2019 17:35:00 0.4 C 4.68 g/m*3 0.4 C 0 km/h
1077 29-12-2019 17:40:00 0.4 C 4.68 g/m*3 0.4 C 0 km/h
1078 29-12-2019 17:45:00 0.4 C 4.68 g/m*3 0.4 C 0 km/h
1079 29-12-2019 17:50:00 0.4 C 4.68 g/m*3 0.4 C 0 km/h
1080 29-12-2019 17:55:00 0.5 C 4.71 g/m*3 0.5 C 0 km/h
1081 29-12-2019 18:00:00 0.6 C 4.8 g/m*3 0.6 C 0 km/h
1082 29-12-2019 18:05:00 0.6 C 4.75 g/m*3 0.6 C 0 km/h
1083 29-12-2019 18:10:00 0.6 C 4.8 g/m*3 0.6 C 0 km/h
1084 29-12-2019 18:15:00 0.6 C 4.8 g/m*3 0.6 C 0 km/h
1085 29-12-2019 18:20:00 0.7 C 4.83 g/m*3 0.7 C 0 km/h
1086 29-12-2019 18:25:00 0.7 C 4.83 g/m*3 0.7 C 0 km/h
1087 29-12-2019 18:30:00 0.7 C 4.83 g/m*3 0.7 C 0 km/h
1088 29-12-2019 18:35:00 0.7 C 4.83 g/m*3 0.7 C 0 km/h
1089 29-12-2019 18:40:00 0.7 C 4.83 g/m*3 0.7 C 0 km/h
1090 29-12-2019 18:45:00 0.7 C 4.83 g/m*3 0.7 C 0 km/h
1091 29-12-2019 18:50:00 0.6 C 4.8 g/m*3 0.6 C 0 km/h
1092 29-12-2019 18:55:00 0.5 C 4.71 g/m*3 0.5 C 0 km/h
1093 29-12-2019 19:00:00 0.4 C 4.68 g/m*3 0.4 C 0 km/h
1094 29-12-2019 19:05:00 0.3 C 4.65 g/m*3 0.3 C 0 km/h
1095 29-12-2019 19:10:00 0.3 C 4.65 g/m*3 0.3 C 0 km/h
1096 29-12-2019 19:15:00 0.2 C 4.62 g/m*3 0.2 C 0 km/h
1097 29-12-2019 19:20:00 0.2 C 4.62 g/m*3 0.2 C 0 km/h
1098 29-12-2019 19:25:00 0.1 C 4.59 g/m*3 0.1 C 0 km/h
1099 29-12-2019 19:30:00 0.1 C 4.59 g/m*3 0.1 C 0 km/h
1100 29-12-2019 19:35:00 0 C 4.55 g/m*3 0 C 0 km/h
Sensor: Nr:Datum:Temp:Abs-Feuchte:Windchill:Wind:
Aussen-T/F 1101 29-12-2019 19:40:00 -0.1 C 4.52 g/m*3 -0.1 C 0 km/h
1102 29-12-2019 19:45:00 -0.1 C 4.52 g/m*3 -0.1 C 0 km/h
1103 29-12-2019 19:50:00 -0.2 C 4.49 g/m*3 -0.2 C 0 km/h
1104 29-12-2019 19:55:00 -0.2 C 4.49 g/m*3 -0.2 C 0 km/h
1105 29-12-2019 20:00:00 -0.2 C 4.49 g/m*3 -0.2 C 0 km/h
1106 29-12-2019 20:05:00 -0.2 C 4.49 g/m*3 -0.2 C 0 km/h
1107 29-12-2019 20:10:00 -0.3 C 4.46 g/m*3 -0.3 C 0 km/h
1108 29-12-2019 20:15:00 -0.3 C 4.46 g/m*3 -0.3 C 0 km/h
1109 29-12-2019 20:20:00 -0.3 C 4.46 g/m*3 -0.3 C 0 km/h
1110 29-12-2019 20:25:00 -0.2 C 4.49 g/m*3 -0.2 C 0 km/h
1111 29-12-2019 20:30:00 -0.2 C 4.49 g/m*3 -0.2 C 0 km/h
1112 29-12-2019 20:35:00 -0.2 C 4.49 g/m*3 -0.2 C 0 km/h
1113 29-12-2019 20:40:00 -0.2 C 4.49 g/m*3 -0.2 C 0 km/h
1114 29-12-2019 20:45:00 -0.2 C 4.49 g/m*3 -0.2 C 0 km/h
1115 29-12-2019 20:50:00 -0.3 C 4.46 g/m*3 -0.3 C 0 km/h
1116 29-12-2019 20:55:00 -0.3 C 4.46 g/m*3 -0.3 C 0 km/h
1117 29-12-2019 21:00:00 -0.3 C 4.46 g/m*3 -0.3 C 0 km/h
1118 29-12-2019 21:05:00 -0.4 C 4.43 g/m*3 -0.4 C 1.6 km/h
1119 29-12-2019 21:10:00 -0.4 C 4.43 g/m*3 -0.4 C 0 km/h
1120 29-12-2019 21:15:00 -0.5 C 4.4 g/m*3 -0.5 C 0 km/h
1121 29-12-2019 21:20:00 -0.6 C 4.37 g/m*3 -0.6 C 0 km/h
1122 29-12-2019 21:25:00 -0.6 C 4.37 g/m*3 -0.6 C 0 km/h
1123 29-12-2019 21:30:00 -0.7 C 4.34 g/m*3 -0.7 C 0 km/h
1124 29-12-2019 21:35:00 -0.7 C 4.34 g/m*3 -0.7 C 0 km/h
1125 29-12-2019 21:40:00 -0.7 C 4.34 g/m*3 -0.7 C 0 km/h
Sensor: Nr:Datum:Temp:Abs-Feuchte:Windchill:Wind:
Aussen-T/F 1126 29-12-2019 21:45:00 -0.8 C 4.31 g/m*3 -0.8 C 0 km/h
1127 29-12-2019 21:50:00 -0.8 C 4.31 g/m*3 -0.8 C 0 km/h
1128 29-12-2019 21:55:00 -0.8 C 4.31 g/m*3 -0.8 C 0 km/h
1129 29-12-2019 22:00:00 -0.9 C 4.28 g/m*3 -0.9 C 0 km/h
1130 29-12-2019 22:05:00 -0.9 C 4.28 g/m*3 -0.9 C 0 km/h
1131 29-12-2019 22:10:00 -1 C 4.25 g/m*3 -1 C 0 km/h
1132 29-12-2019 22:15:00 -1 C 4.25 g/m*3 -1 C 0 km/h
1133 29-12-2019 22:20:00 -1.1 C 4.22 g/m*3 -1.1 C 0 km/h
1134 29-12-2019 22:25:00 -1.1 C 4.22 g/m*3 -1.1 C 0 km/h
1135 29-12-2019 22:30:00 -1.1 C 4.26 g/m*3 -1.1 C 0 km/h
1136 29-12-2019 22:35:00 -1.1 C 4.26 g/m*3 -1.1 C 0 km/h
1137 29-12-2019 22:40:00 -1.2 C 4.19 g/m*3 -1.2 C 0 km/h
1138 29-12-2019 22:45:00 -1.2 C 4.19 g/m*3 -1.2 C 0 km/h
1139 29-12-2019 22:50:00 -1.2 C 4.19 g/m*3 -1.2 C 0 km/h
1140 29-12-2019 22:55:00 -1.3 C 4.21 g/m*3 -1.3 C 0 km/h
1141 29-12-2019 23:00:00 -1.3 C 4.21 g/m*3 -1.3 C 0 km/h
1142 29-12-2019 23:05:00 -1.3 C 4.21 g/m*3 -1.3 C 0 km/h
1143 29-12-2019 23:10:00 -1.3 C 4.21 g/m*3 -1.3 C 0 km/h
1144 29-12-2019 23:15:00 -1.3 C 4.21 g/m*3 -1.3 C 0 km/h
1145 29-12-2019 23:20:00 -1.3 C 4.21 g/m*3 -1.3 C 0 km/h
1146 29-12-2019 23:25:00 -1.3 C 4.21 g/m*3 -1.3 C 0 km/h
1147 29-12-2019 23:30:00 -1.3 C 4.21 g/m*3 -1.3 C 0 km/h
1148 29-12-2019 23:35:00 -1.3 C 4.21 g/m*3 -1.3 C 0 km/h
1149 29-12-2019 23:40:00 -1.3 C 4.21 g/m*3 -1.3 C 0 km/h
1150 29-12-2019 23:45:00 -1.4 C 4.18 g/m*3 -1.4 C 0 km/h
Sensor: Nr:Datum:Temp:Abs-Feuchte:Windchill:Wind:
Aussen-T/F 1151 29-12-2019 23:50:00 -1.4 C 4.18 g/m*3 -1.4 C 0 km/h
1152 29-12-2019 23:55:00 -1.5 C 4.15 g/m*3 -1.5 C 0 km/h
1153 30-12-2019 00:00:00 -1.6 C 4.12 g/m*3 -1.6 C 0 km/h
1154 30-12-2019 00:05:00 -1.6 C 4.12 g/m*3 -1.6 C 0 km/h
1155 30-12-2019 00:10:00 -1.6 C 4.12 g/m*3 -1.6 C 0 km/h
1156 30-12-2019 00:15:00 -1.6 C 4.12 g/m*3 -1.6 C 0 km/h
1157 30-12-2019 00:20:00 -1.6 C 4.12 g/m*3 -1.6 C 0 km/h
1158 30-12-2019 00:25:00 -1.7 C 4.09 g/m*3 -1.7 C 0 km/h
1159 30-12-2019 00:30:00 -1.7 C 4.09 g/m*3 -1.7 C 0 km/h
1160 30-12-2019 00:35:00 -1.7 C 4.09 g/m*3 -1.7 C 0 km/h
1161 30-12-2019 00:40:00 -1.7 C 4.09 g/m*3 -1.7 C 0 km/h
1162 30-12-2019 00:45:00 -1.8 C 4.06 g/m*3 -1.8 C 0 km/h
1163 30-12-2019 00:50:00 -1.7 C 4.09 g/m*3 -1.7 C 0 km/h
1164 30-12-2019 00:55:00 -1.7 C 4.09 g/m*3 -1.7 C 0 km/h
1165 30-12-2019 01:00:00 -1.7 C 4.09 g/m*3 -1.7 C 0 km/h
1166 30-12-2019 01:05:00 -1.8 C 4.06 g/m*3 -1.8 C 0 km/h
1167 30-12-2019 01:10:00 -1.8 C 4.06 g/m*3 -1.8 C 0 km/h
1168 30-12-2019 01:15:00 -1.8 C 4.06 g/m*3 -1.8 C 0 km/h
1169 30-12-2019 01:20:00 -1.8 C 4.06 g/m*3 -1.8 C 0 km/h
1170 30-12-2019 01:25:00 -1.7 C 4.09 g/m*3 -1.7 C 0 km/h
1171 30-12-2019 01:30:00 -1.8 C 4.06 g/m*3 -1.8 C 0 km/h
1172 30-12-2019 01:35:00 -1.8 C 4.06 g/m*3 -1.8 C 0 km/h
1173 30-12-2019 01:40:00 -1.9 C 4.03 g/m*3 -1.9 C 0 km/h
1174 30-12-2019 01:45:00 -1.9 C 4.03 g/m*3 -1.9 C 0 km/h
1175 30-12-2019 01:50:00 -1.9 C 4.03 g/m*3 -1.9 C 0 km/h
Sensor: Nr:Datum:Temp:Abs-Feuchte:Windchill:Wind:
Aussen-T/F 1176 30-12-2019 01:55:00 -2 C 4 g/m*3 -2 C 0 km/h
1177 30-12-2019 02:00:00 -2 C 4 g/m*3 -2 C 0 km/h
1178 30-12-2019 02:05:00 -2 C 4 g/m*3 -2 C 0 km/h
1179 30-12-2019 02:10:00 -2 C 4.05 g/m*3 -2 C 0 km/h
1180 30-12-2019 02:15:00 -1.9 C 4.08 g/m*3 -1.9 C 0 km/h
1181 30-12-2019 02:20:00 -1.9 C 4.08 g/m*3 -1.9 C 0 km/h
1182 30-12-2019 02:25:00 -1.9 C 4.08 g/m*3 -1.9 C 0 km/h
1183 30-12-2019 02:30:00 -2 C 4.05 g/m*3 -2 C 0 km/h
1184 30-12-2019 02:35:00 -2 C 4 g/m*3 -2 C 0 km/h
1185 30-12-2019 02:40:00 -2 C 4 g/m*3 -2 C 0 km/h
1186 30-12-2019 02:45:00 -2 C 4 g/m*3 -2 C 0 km/h
1187 30-12-2019 02:50:00 -2.1 C 3.98 g/m*3 -2.1 C 0 km/h
1188 30-12-2019 02:55:00 -2.1 C 4.02 g/m*3 -2.1 C 0 km/h
1189 30-12-2019 03:00:00 -2.1 C 4.02 g/m*3 -2.1 C 0 km/h
1190 30-12-2019 03:05:00 -2.1 C 4.02 g/m*3 -2.1 C 0 km/h
1191 30-12-2019 03:10:00 -2.1 C 4.02 g/m*3 -2.1 C 0 km/h
1192 30-12-2019 03:15:00 -2.1 C 4.02 g/m*3 -2.1 C 0 km/h
1193 30-12-2019 03:20:00 -2.1 C 4.02 g/m*3 -2.1 C 0 km/h
1194 30-12-2019 03:25:00 -1.9 C 4.08 g/m*3 -1.9 C 0 km/h
1195 30-12-2019 03:30:00 -1.9 C 4.08 g/m*3 -1.9 C 0 km/h
1196 30-12-2019 03:35:00 -1.9 C 4.08 g/m*3 -1.9 C 0 km/h
1197 30-12-2019 03:40:00 -1.9 C 4.08 g/m*3 -1.9 C 0 km/h
1198 30-12-2019 03:45:00 -1.9 C 4.08 g/m*3 -1.9 C 0 km/h
1199 30-12-2019 03:50:00 -2.1 C 4.02 g/m*3 -2.1 C 0 km/h
1200 30-12-2019 03:55:00 -2.2 C 3.99 g/m*3 -2.2 C 0 km/h
Sensor: Nr:Datum:Temp:Abs-Feuchte:Windchill:Wind:
Aussen-T/F 1201 30-12-2019 04:00:00 -2.2 C 3.99 g/m*3 -2.2 C 0 km/h
1202 30-12-2019 04:05:00 -2.2 C 3.99 g/m*3 -2.2 C 0 km/h
1203 30-12-2019 04:10:00 -2.3 C 3.96 g/m*3 -2.3 C 0 km/h
1204 30-12-2019 04:15:00 -2.3 C 3.96 g/m*3 -2.3 C 0 km/h
1205 30-12-2019 04:20:00 -2.3 C 3.96 g/m*3 -2.3 C 0 km/h
1206 30-12-2019 04:25:00 -2.4 C 3.93 g/m*3 -2.4 C 0 km/h
1207 30-12-2019 04:30:00 -2.4 C 3.93 g/m*3 -2.4 C 0 km/h
1208 30-12-2019 04:35:00 -2.4 C 3.93 g/m*3 -2.4 C 0 km/h
1209 30-12-2019 04:40:00 -2.4 C 3.93 g/m*3 -2.4 C 0 km/h
1210 30-12-2019 04:45:00 -2.5 C 3.91 g/m*3 -2.5 C 0 km/h
1211 30-12-2019 04:50:00 -2.6 C 3.88 g/m*3 -2.6 C 0 km/h
1212 30-12-2019 04:55:00 -2.6 C 3.88 g/m*3 -2.6 C 0 km/h
1213 30-12-2019 05:00:00 -2.6 C 3.88 g/m*3 -2.6 C 0 km/h
1214 30-12-2019 05:05:00 -2.5 C 3.91 g/m*3 -2.5 C 0 km/h
1215 30-12-2019 05:10:00 -2.5 C 3.91 g/m*3 -2.5 C 0 km/h
1216 30-12-2019 05:15:00 -2.5 C 3.91 g/m*3 -2.5 C 0 km/h
1217 30-12-2019 05:20:00 -2.5 C 3.91 g/m*3 -2.5 C 0 km/h
1218 30-12-2019 05:25:00 -2.6 C 3.88 g/m*3 -2.6 C 0 km/h
1219 30-12-2019 05:30:00 -2.6 C 3.88 g/m*3 -2.6 C 0 km/h
1220 30-12-2019 05:35:00 -2.6 C 3.88 g/m*3 -2.6 C 0 km/h
1221 30-12-2019 05:40:00 -2.7 C 3.85 g/m*3 -2.7 C 0 km/h
1222 30-12-2019 05:45:00 -2.7 C 3.85 g/m*3 -2.7 C 0 km/h
1223 30-12-2019 05:50:00 -2.7 C 3.85 g/m*3 -2.7 C 0 km/h
1224 30-12-2019 05:55:00 -2.6 C 3.88 g/m*3 -2.6 C 0 km/h
1225 30-12-2019 06:00:00 -2.6 C 3.88 g/m*3 -2.6 C 0 km/h
Sensor: Nr:Datum:Temp:Abs-Feuchte:Windchill:Wind:
Aussen-T/F 1226 30-12-2019 06:05:00 -2.6 C 3.88 g/m*3 -2.6 C 0 km/h
1227 30-12-2019 06:10:00 -2.6 C 3.88 g/m*3 -2.6 C 0 km/h
1228 30-12-2019 06:15:00 -2.6 C 3.88 g/m*3 -2.6 C 0 km/h
1229 30-12-2019 06:20:00 -2.7 C 3.85 g/m*3 -2.7 C 0 km/h
1230 30-12-2019 06:25:00 -2.7 C 3.85 g/m*3 -2.7 C 0 km/h
1231 30-12-2019 06:30:00 -2.7 C 3.85 g/m*3 -2.7 C 0 km/h
1232 30-12-2019 06:35:00 -2.7 C 3.85 g/m*3 -2.7 C 0 km/h
1233 30-12-2019 06:40:00 -2.8 C 3.82 g/m*3 -2.8 C 0 km/h
1234 30-12-2019 06:45:00 -2.7 C 3.85 g/m*3 -2.7 C 0 km/h
1235 30-12-2019 06:50:00 -2.7 C 3.85 g/m*3 -2.7 C 0 km/h
1236 30-12-2019 06:55:00 -2.7 C 3.85 g/m*3 -2.7 C 0 km/h
1237 30-12-2019 07:00:00 -2.7 C 3.85 g/m*3 -2.7 C 0 km/h
1238 30-12-2019 07:05:00 -2.6 C 3.88 g/m*3 -2.6 C 0 km/h
1239 30-12-2019 07:10:00 -2.6 C 3.88 g/m*3 -2.6 C 0 km/h
1240 30-12-2019 07:15:00 -2.7 C 3.85 g/m*3 -2.7 C 0 km/h
1241 30-12-2019 07:20:00 -2.7 C 3.85 g/m*3 -2.7 C 0 km/h
1242 30-12-2019 07:25:00 -2.8 C 3.82 g/m*3 -2.8 C 0 km/h
1243 30-12-2019 07:30:00 -2.9 C 3.8 g/m*3 -2.9 C 0 km/h
1244 30-12-2019 07:35:00 -2.9 C 3.8 g/m*3 -2.9 C 0 km/h
1245 30-12-2019 07:40:00 -2.9 C 3.8 g/m*3 -2.9 C 0 km/h
1246 30-12-2019 07:45:00 -2.9 C 3.8 g/m*3 -2.9 C 0 km/h
1247 30-12-2019 07:50:00 -2.9 C 3.8 g/m*3 -2.9 C 0 km/h
1248 30-12-2019 07:55:00 -2.9 C 3.8 g/m*3 -2.9 C 0 km/h
1249 30-12-2019 08:00:00 -2.9 C 3.8 g/m*3 -2.9 C 0 km/h
1250 30-12-2019 08:05:00 -3 C 3.77 g/m*3 -3 C 0 km/h
Sensor: Nr:Datum:Temp:Abs-Feuchte:Windchill:Wind:
Aussen-T/F 1251 30-12-2019 08:10:00 -3 C 3.77 g/m*3 -3 C 0 km/h
1252 30-12-2019 08:15:00 -3.1 C 3.74 g/m*3 -3.1 C 0 km/h
1253 30-12-2019 08:20:00 -3.1 C 3.74 g/m*3 -3.1 C 0 km/h
1254 30-12-2019 08:25:00 -3.1 C 3.74 g/m*3 -3.1 C 0 km/h
1255 30-12-2019 08:30:00 -3.1 C 3.74 g/m*3 -3.1 C 0 km/h
1256 30-12-2019 08:35:00 -3.1 C 3.74 g/m*3 -3.1 C 0 km/h
1257 30-12-2019 08:40:00 -3.1 C 3.74 g/m*3 -3.1 C 0 km/h
1258 30-12-2019 08:45:00 -3.1 C 3.74 g/m*3 -3.1 C 0 km/h
1259 30-12-2019 08:50:00 -3.1 C 3.74 g/m*3 -3.1 C 0 km/h
1260 30-12-2019 08:55:00 -3.1 C 3.74 g/m*3 -3.1 C 0 km/h
1261 30-12-2019 09:00:00 -3 C 3.77 g/m*3 -3 C 0 km/h
1262 30-12-2019 09:05:00 -2.9 C 3.8 g/m*3 -2.9 C 0 km/h
1263 30-12-2019 09:10:00 -2.9 C 3.8 g/m*3 -2.9 C 0 km/h
1264 30-12-2019 09:15:00 -2.8 C 3.82 g/m*3 -2.8 C 0 km/h
1265 30-12-2019 09:20:00 -2.7 C 3.85 g/m*3 -2.7 C 0 km/h
1266 30-12-2019 09:25:00 -2.7 C 3.85 g/m*3 -2.7 C 0 km/h
1267 30-12-2019 09:30:00 -2.6 C 3.88 g/m*3 -2.6 C 0 km/h
1268 30-12-2019 09:35:00 -2.6 C 3.88 g/m*3 -2.6 C 0 km/h
1269 30-12-2019 09:40:00 -2.6 C 3.88 g/m*3 -2.6 C 0 km/h
1270 30-12-2019 09:45:00 -2.6 C 3.88 g/m*3 -2.6 C 0 km/h
1271 30-12-2019 09:50:00 -2.6 C 3.88 g/m*3 -2.6 C 0 km/h
1272 30-12-2019 09:55:00 -2.5 C 3.91 g/m*3 -2.5 C 0 km/h
1273 30-12-2019 10:00:00 -2.5 C 3.91 g/m*3 -2.5 C 0 km/h
1274 30-12-2019 10:05:00 -2.4 C 3.93 g/m*3 -2.4 C 0 km/h
1275 30-12-2019 10:10:00 -2.4 C 3.93 g/m*3 -2.4 C 0 km/h
Sensor: Nr:Datum:Temp:Abs-Feuchte:Windchill:Wind:
Aussen-T/F 1276 30-12-2019 10:15:00 -2.3 C 3.96 g/m*3 -2.3 C 0 km/h
1277 30-12-2019 10:20:00 -2.3 C 3.96 g/m*3 -2.3 C 0 km/h
1278 30-12-2019 10:25:00 -2.3 C 3.96 g/m*3 -2.3 C 0 km/h
1279 30-12-2019 10:30:00 -2.2 C 4.03 g/m*3 -2.2 C 0 km/h
1280 30-12-2019 10:35:00 -2.2 C 4.03 g/m*3 -2.2 C 0 km/h
1281 30-12-2019 10:40:00 -2.1 C 4.06 g/m*3 -2.1 C 0 km/h
1282 30-12-2019 10:45:00 -2.1 C 4.06 g/m*3 -2.1 C 0 km/h
1283 30-12-2019 10:50:00 -2 C 4.05 g/m*3 -2 C 0 km/h
1284 30-12-2019 10:55:00 -1.9 C 4.08 g/m*3 -1.9 C 0 km/h
1285 30-12-2019 11:00:00 -1.9 C 4.08 g/m*3 -1.9 C 0 km/h
1286 30-12-2019 11:05:00 -1.8 C 4.15 g/m*3 -1.8 C 0 km/h
1287 30-12-2019 11:10:00 -1.8 C 4.15 g/m*3 -1.8 C 0 km/h
1288 30-12-2019 11:15:00 -1.8 C 4.15 g/m*3 -1.8 C 0 km/h
1289 30-12-2019 11:20:00 -1.7 C 4.18 g/m*3 -1.7 C 0 km/h
1290 30-12-2019 11:25:00 -1.7 C 4.18 g/m*3 -1.7 C 0 km/h
1291 30-12-2019 11:30:00 -1.6 C 4.21 g/m*3 -1.6 C 0 km/h
1292 30-12-2019 11:35:00 -1.6 C 4.21 g/m*3 -1.6 C 0 km/h
1293 30-12-2019 11:40:00 -1.5 C 4.23 g/m*3 -1.5 C 0 km/h
1294 30-12-2019 11:45:00 -1.4 C 4.26 g/m*3 -1.4 C 0 km/h
1295 30-12-2019 11:50:00 -1.3 C 4.29 g/m*3 -1.3 C 0 km/h
1296 30-12-2019 11:55:00 -1.3 C 4.29 g/m*3 -1.3 C 0 km/h
1297 30-12-2019 12:00:00 -1.2 C 4.32 g/m*3 -1.2 C 0 km/h
1298 30-12-2019 12:05:00 -1.1 C 4.35 g/m*3 -1.1 C 1.6 km/h
1299 30-12-2019 12:10:00 -1.1 C 4.35 g/m*3 -1.1 C 0 km/h
1300 30-12-2019 12:15:00 -0.9 C 4.42 g/m*3 -0.9 C 0 km/h
Sensor: Nr:Datum:Temp:Abs-Feuchte:Windchill:Wind:
Aussen-T/F 1301 30-12-2019 12:20:00 -0.8 C 4.45 g/m*3 -0.8 C 0 km/h
1302 30-12-2019 12:25:00 -0.7 C 4.48 g/m*3 -0.7 C 0 km/h
1303 30-12-2019 12:30:00 -0.7 C 4.48 g/m*3 -0.7 C 0 km/h
1304 30-12-2019 12:35:00 -0.6 C 4.51 g/m*3 -0.6 C 0 km/h
1305 30-12-2019 12:40:00 -0.6 C 4.51 g/m*3 -0.6 C 0 km/h
1306 30-12-2019 12:45:00 -0.4 C 4.57 g/m*3 -0.4 C 0 km/h
1307 30-12-2019 12:50:00 -0.3 C 4.6 g/m*3 -0.3 C 0 km/h
1308 30-12-2019 12:55:00 -0.3 C 4.6 g/m*3 -0.3 C 0 km/h
1309 30-12-2019 13:00:00 -0.2 C 4.64 g/m*3 -0.2 C 0 km/h
1310 30-12-2019 13:05:00 -0.1 C 4.67 g/m*3 -0.1 C 0 km/h
1311 30-12-2019 13:10:00 -0.1 C 4.67 g/m*3 -0.1 C 0 km/h
1312 30-12-2019 13:15:00 0.1 C 4.73 g/m*3 0.1 C 0 km/h
1313 30-12-2019 13:20:00 0.1 C 4.73 g/m*3 0.1 C 0 km/h
1314 30-12-2019 13:25:00 0.2 C 4.77 g/m*3 0.2 C 0 km/h
1315 30-12-2019 13:30:00 0.3 C 4.8 g/m*3 0.3 C 0 km/h
1316 30-12-2019 13:35:00 0.3 C 4.8 g/m*3 0.3 C 0 km/h
1317 30-12-2019 13:40:00 0.3 C 4.8 g/m*3 0.3 C 1.6 km/h
1318 30-12-2019 13:45:00 0.4 C 4.83 g/m*3 0.4 C 0 km/h
1319 30-12-2019 13:50:00 0.5 C 4.81 g/m*3 0.5 C 0 km/h
1320 30-12-2019 13:55:00 0.6 C 4.9 g/m*3 0.6 C 0 km/h
1321 30-12-2019 14:00:00 0.6 C 4.85 g/m*3 0.6 C 0 km/h
1322 30-12-2019 14:05:00 0.7 C 4.88 g/m*3 0.7 C 0 km/h
1323 30-12-2019 14:10:00 0.7 C 4.88 g/m*3 0.7 C 0 km/h
1324 30-12-2019 14:15:00 0.7 C 4.88 g/m*3 0.7 C 0 km/h
1325 30-12-2019 14:20:00 0.8 C 4.91 g/m*3 0.8 C 0 km/h
Sensor: Nr:Datum:Temp:Abs-Feuchte:Windchill:Wind:
Aussen-T/F 1326 30-12-2019 14:25:00 0.8 C 4.91 g/m*3 0.8 C 0 km/h
1327 30-12-2019 14:30:00 0.8 C 4.91 g/m*3 0.8 C 0 km/h
1328 30-12-2019 14:35:00 0.9 C 4.95 g/m*3 0.9 C 0 km/h
1329 30-12-2019 14:40:00 1 C 4.98 g/m*3 1 C 4.8 km/h
1330 30-12-2019 14:45:00 1.1 C 4.96 g/m*3 1.1 C 4.8 km/h
1331 30-12-2019 14:50:00 1.2 C 5 g/m*3 1.2 C 3.2 km/h
1332 30-12-2019 14:55:00 1.2 C 5 g/m*3 1.2 C 0 km/h
1333 30-12-2019 15:00:00 1.2 C 5 g/m*3 1.2 C 0 km/h
1334 30-12-2019 15:05:00 1.2 C 5 g/m*3 1.2 C 3.2 km/h
1335 30-12-2019 15:10:00 1.3 C 5.03 g/m*3 1.3 C 3.2 km/h
1336 30-12-2019 15:15:00 1.4 C 5.07 g/m*3 1.4 C 3.2 km/h
1337 30-12-2019 15:20:00 1.4 C 5.07 g/m*3 1.4 C 0 km/h
1338 30-12-2019 15:25:00 1.5 C 5.1 g/m*3 1.5 C 0 km/h
1339 30-12-2019 15:30:00 1.5 C 5.05 g/m*3 1.5 C 0 km/h
1340 30-12-2019 15:35:00 1.6 C 5.08 g/m*3 1.6 C 0 km/h
1341 30-12-2019 15:40:00 1.7 C 5.12 g/m*3 1.7 C 0 km/h
1342 30-12-2019 15:45:00 1.7 C 5.12 g/m*3 1.7 C 0 km/h
1343 30-12-2019 15:50:00 1.8 C 5.1 g/m*3 1.8 C 4.8 km/h
1344 30-12-2019 15:55:00 1.8 C 5.1 g/m*3 1.8 C 4.8 km/h
1345 30-12-2019 16:00:00 1.9 C 5.13 g/m*3 1.9 C 4.8 km/h
1346 30-12-2019 16:05:00 1.9 C 5.13 g/m*3 1.9 C 3.2 km/h
1347 30-12-2019 16:10:00 2 C 5.17 g/m*3 2 C 3.2 km/h
1348 30-12-2019 16:15:00 2.1 C 5.2 g/m*3 2.1 C 4.8 km/h
1349 30-12-2019 16:20:00 2.1 C 5.2 g/m*3 2.1 C 4.8 km/h
1350 30-12-2019 16:25:00 2.1 C 5.2 g/m*3 2.1 C 0 km/h
Sensor: Nr:Datum:Temp:Abs-Feuchte:Windchill:Wind:
Aussen-T/F 1351 30-12-2019 16:30:00 2.1 C 5.2 g/m*3 2.1 C 0 km/h
1352 30-12-2019 16:35:00 2.1 C 5.2 g/m*3 2.1 C 0 km/h
1353 30-12-2019 16:40:00 2.1 C 5.2 g/m*3 2.1 C 0 km/h
1354 30-12-2019 16:45:00 2.1 C 5.2 g/m*3 2.1 C 0 km/h
1355 30-12-2019 16:50:00 1.9 C 5.13 g/m*3 1.9 C 0 km/h
1356 30-12-2019 16:55:00 1.9 C 5.13 g/m*3 1.9 C 0 km/h
1357 30-12-2019 17:00:00 1.9 C 5.13 g/m*3 1.9 C 0 km/h
1358 30-12-2019 17:05:00 1.8 C 5.1 g/m*3 1.8 C 0 km/h
1359 30-12-2019 17:10:00 1.8 C 5.1 g/m*3 1.8 C 0 km/h
1360 30-12-2019 17:15:00 1.7 C 5.06 g/m*3 1.7 C 0 km/h
1361 30-12-2019 17:20:00 1.7 C 5.06 g/m*3 1.7 C 0 km/h
1362 30-12-2019 17:25:00 1.6 C 5.03 g/m*3 1.6 C 0 km/h
1363 30-12-2019 17:30:00 1.6 C 5.03 g/m*3 1.6 C 0 km/h
1364 30-12-2019 17:35:00 1.6 C 5.03 g/m*3 1.6 C 0 km/h
1365 30-12-2019 17:40:00 1.6 C 5.03 g/m*3 1.6 C 0 km/h
1366 30-12-2019 17:45:00 1.6 C 5.08 g/m*3 1.6 C 0 km/h
1367 30-12-2019 17:50:00 1.5 C 4.99 g/m*3 1.5 C 0 km/h
1368 30-12-2019 17:55:00 1.4 C 4.96 g/m*3 1.4 C 0 km/h
1369 30-12-2019 18:00:00 1.4 C 4.96 g/m*3 1.4 C 0 km/h
1370 30-12-2019 18:05:00 1.3 C 4.93 g/m*3 1.3 C 0 km/h
1371 30-12-2019 18:10:00 1.2 C 4.84 g/m*3 1.2 C 0 km/h
1372 30-12-2019 18:15:00 1.2 C 4.84 g/m*3 1.2 C 0 km/h
1373 30-12-2019 18:20:00 1.1 C 4.81 g/m*3 1.1 C 0 km/h
1374 30-12-2019 18:25:00 0.9 C 4.74 g/m*3 0.9 C 0 km/h
1375 30-12-2019 18:30:00 0.8 C 4.71 g/m*3 0.8 C 0 km/h
Sensor: Nr:Datum:Temp:Abs-Feuchte:Windchill:Wind:
Aussen-T/F 1376 30-12-2019 18:35:00 0.7 C 4.68 g/m*3 0.7 C 0 km/h
1377 30-12-2019 18:40:00 0.6 C 4.65 g/m*3 0.6 C 0 km/h
1378 30-12-2019 18:45:00 0.6 C 4.65 g/m*3 0.6 C 0 km/h
1379 30-12-2019 18:50:00 0.6 C 4.7 g/m*3 0.6 C 0 km/h
1380 30-12-2019 18:55:00 0.5 C 4.61 g/m*3 0.5 C 0 km/h
1381 30-12-2019 19:00:00 0.4 C 4.58 g/m*3 0.4 C 0 km/h
1382 30-12-2019 19:05:00 0.3 C 4.55 g/m*3 0.3 C 0 km/h
1383 30-12-2019 19:10:00 0.3 C 4.55 g/m*3 0.3 C 0 km/h
1384 30-12-2019 19:15:00 0.3 C 4.55 g/m*3 0.3 C 0 km/h
1385 30-12-2019 19:20:00 0.2 C 4.52 g/m*3 0.2 C 0 km/h
1386 30-12-2019 19:25:00 0.2 C 4.52 g/m*3 0.2 C 0 km/h
1387 30-12-2019 19:30:00 0.1 C 4.49 g/m*3 0.1 C 0 km/h
1388 30-12-2019 19:35:00 0.1 C 4.49 g/m*3 0.1 C 0 km/h
1389 30-12-2019 19:40:00 0.2 C 4.52 g/m*3 0.2 C 4.8 km/h
1390 30-12-2019 19:45:00 0.3 C 4.6 g/m*3 0.3 C 3.2 km/h
1391 30-12-2019 19:50:00 0.4 C 4.58 g/m*3 0.4 C 4.8 km/h
1392 30-12-2019 19:55:00 0.6 C 4.65 g/m*3 0.6 C 1.6 km/h
1393 30-12-2019 20:00:00 0.7 C 4.63 g/m*3 0.7 C 4.8 km/h
1394 30-12-2019 20:05:00 0.8 C 4.61 g/m*3 0.8 C 4.8 km/h
1395 30-12-2019 20:10:00 0.7 C 4.53 g/m*3 0.7 C 0 km/h
1396 30-12-2019 20:15:00 0.5 C 4.46 g/m*3 0.5 C 0 km/h
1397 30-12-2019 20:20:00 0.3 C 4.4 g/m*3 0.3 C 0 km/h
1398 30-12-2019 20:25:00 0.2 C 4.42 g/m*3 0.2 C 0 km/h
1399 30-12-2019 20:30:00 0.1 C 4.39 g/m*3 0.1 C 3.2 km/h
1400 30-12-2019 20:35:00 0 C 4.36 g/m*3 0 C 0 km/h
Sensor: Nr:Datum:Temp:Abs-Feuchte:Windchill:Wind:
Aussen-T/F 1401 30-12-2019 20:40:00 -0.2 C 4.3 g/m*3 -0.2 C 0 km/h
1402 30-12-2019 20:45:00 -0.3 C 4.32 g/m*3 -0.3 C 0 km/h
1403 30-12-2019 20:50:00 -0.3 C 4.32 g/m*3 -0.3 C 3.2 km/h
1404 30-12-2019 20:55:00 -0.3 C 4.37 g/m*3 -0.3 C 0 km/h
1405 30-12-2019 21:00:00 -0.3 C 4.37 g/m*3 -0.3 C 0 km/h
1406 30-12-2019 21:05:00 -0.4 C 4.29 g/m*3 -0.4 C 0 km/h
1407 30-12-2019 21:10:00 -0.4 C 4.34 g/m*3 -0.4 C 4.8 km/h
1408 30-12-2019 21:15:00 -0.3 C 4.41 g/m*3 -0.3 C 4.8 km/h
1409 30-12-2019 21:20:00 -0.3 C 4.37 g/m*3 -0.3 C 3.2 km/h
1410 30-12-2019 21:25:00 -0.3 C 4.37 g/m*3 -0.3 C 3.2 km/h
1411 30-12-2019 21:30:00 -0.1 C 4.47 g/m*3 -0.1 C 3.2 km/h
1412 30-12-2019 21:35:00 0 C 4.51 g/m*3 0 C 1.6 km/h
1413 30-12-2019 21:40:00 0 C 4.46 g/m*3 0 C 4.8 km/h
1414 30-12-2019 21:45:00 -0.1 C 4.38 g/m*3 -0.1 C 4.8 km/h
1415 30-12-2019 21:50:00 0 C 4.46 g/m*3 0 C 4.8 km/h
1416 30-12-2019 21:55:00 0.1 C 4.49 g/m*3 0.1 C 1.6 km/h
1417 30-12-2019 22:00:00 0.1 C 4.49 g/m*3 0.1 C 1.6 km/h
1418 30-12-2019 22:05:00 0.1 C 4.44 g/m*3 0.1 C 1.6 km/h
1419 30-12-2019 22:10:00 0 C 4.41 g/m*3 0 C 1.6 km/h
1420 30-12-2019 22:15:00 0 C 4.36 g/m*3 0 C 0 km/h
1421 30-12-2019 22:20:00 -0.1 C 4.33 g/m*3 -0.1 C 1.6 km/h
1422 30-12-2019 22:25:00 -0.2 C 4.3 g/m*3 -0.2 C 3.2 km/h
1423 30-12-2019 22:30:00 -0.3 C 4.27 g/m*3 -0.3 C 0 km/h
1424 30-12-2019 22:35:00 -0.4 C 4.24 g/m*3 -0.4 C 3.2 km/h
1425 30-12-2019 22:40:00 -0.5 C 4.26 g/m*3 -0.5 C 3.2 km/h
Sensor: Nr:Datum:Temp:Abs-Feuchte:Windchill:Wind:
Aussen-T/F 1426 30-12-2019 22:45:00 -0.4 C 4.29 g/m*3 -0.4 C 3.2 km/h
1427 30-12-2019 22:50:00 -0.5 C 4.26 g/m*3 -0.5 C 1.6 km/h
1428 30-12-2019 22:55:00 -0.6 C 4.23 g/m*3 -0.6 C 1.6 km/h
1429 30-12-2019 23:00:00 -0.6 C 4.23 g/m*3 -0.6 C 0 km/h
1430 30-12-2019 23:05:00 -0.7 C 4.2 g/m*3 -0.7 C 1.6 km/h
1431 30-12-2019 23:10:00 -0.6 C 4.28 g/m*3 -0.6 C 1.6 km/h
1432 30-12-2019 23:15:00 -0.5 C 4.31 g/m*3 -0.5 C 1.6 km/h
1433 30-12-2019 23:20:00 -0.3 C 4.37 g/m*3 -0.3 C 1.6 km/h
1434 30-12-2019 23:25:00 -0.2 C 4.4 g/m*3 -0.2 C 1.6 km/h
1435 30-12-2019 23:30:00 -0.1 C 4.43 g/m*3 -0.1 C 4.8 km/h
1436 30-12-2019 23:35:00 0.1 C 4.44 g/m*3 0.1 C 3.2 km/h
1437 30-12-2019 23:40:00 0.2 C 4.47 g/m*3 0.2 C 1.6 km/h
1438 30-12-2019 23:45:00 0.2 C 4.42 g/m*3 0.2 C 1.6 km/h
1439 30-12-2019 23:50:00 0.2 C 4.42 g/m*3 0.2 C 0 km/h
1440 30-12-2019 23:55:00 0.2 C 4.42 g/m*3 0.2 C 1.6 km/h
1441 31-12-2019 00:00:00 0.2 C 4.42 g/m*3 0.2 C 1.6 km/h
1442 31-12-2019 00:05:00 0.2 C 4.37 g/m*3 0.2 C 1.6 km/h
1443 31-12-2019 00:10:00 0 C 4.36 g/m*3 0 C 0 km/h
1444 31-12-2019 00:15:00 -0.1 C 4.33 g/m*3 -0.1 C 0 km/h
1445 31-12-2019 00:20:00 -0.1 C 4.33 g/m*3 -0.1 C 0 km/h
1446 31-12-2019 00:25:00 -0.1 C 4.38 g/m*3 -0.1 C 0 km/h
1447 31-12-2019 00:30:00 -0.1 C 4.38 g/m*3 -0.1 C 3.2 km/h
1448 31-12-2019 00:35:00 -0.1 C 4.38 g/m*3 -0.1 C 1.6 km/h
1449 31-12-2019 00:40:00 -0.1 C 4.38 g/m*3 -0.1 C 1.6 km/h
1450 31-12-2019 00:45:00 -0.1 C 4.38 g/m*3 -0.1 C 0 km/h
Sensor: Nr:Datum:Temp:Abs-Feuchte:Windchill:Wind:
Aussen-T/F 1451 31-12-2019 00:50:00 -0.2 C 4.35 g/m*3 -0.2 C 3.2 km/h
1452 31-12-2019 00:55:00 -0.1 C 4.43 g/m*3 -0.1 C 1.6 km/h
1453 31-12-2019 01:00:00 -0.1 C 4.43 g/m*3 -0.1 C 3.2 km/h
1454 31-12-2019 01:05:00 -0.1 C 4.38 g/m*3 -0.1 C 3.2 km/h
1455 31-12-2019 01:10:00 -0.1 C 4.43 g/m*3 -0.1 C 0 km/h
1456 31-12-2019 01:15:00 -0.1 C 4.43 g/m*3 -0.1 C 0 km/h
1457 31-12-2019 01:20:00 0.1 C 4.49 g/m*3 0.1 C 4.8 km/h
1458 31-12-2019 01:25:00 0.1 C 4.44 g/m*3 0.1 C 0 km/h
1459 31-12-2019 01:30:00 0 C 4.41 g/m*3 0 C 0 km/h
1460 31-12-2019 01:35:00 -0.1 C 4.38 g/m*3 -0.1 C 0 km/h
1461 31-12-2019 01:40:00 -0.3 C 4.32 g/m*3 -0.3 C 0 km/h
1462 31-12-2019 01:45:00 -0.4 C 4.29 g/m*3 -0.4 C 0 km/h
1463 31-12-2019 01:50:00 -0.4 C 4.34 g/m*3 -0.4 C 4.8 km/h
1464 31-12-2019 01:55:00 -0.5 C 4.31 g/m*3 -0.5 C 0 km/h
1465 31-12-2019 02:00:00 -0.7 C 4.25 g/m*3 -0.7 C 0 km/h
1466 31-12-2019 02:05:00 -0.7 C 4.25 g/m*3 -0.7 C 3.2 km/h
1467 31-12-2019 02:10:00 -0.8 C 4.22 g/m*3 -0.8 C 0 km/h
1468 31-12-2019 02:15:00 -0.9 C 4.19 g/m*3 -0.9 C 0 km/h
1469 31-12-2019 02:20:00 -1 C 4.16 g/m*3 -1 C 0 km/h
1470 31-12-2019 02:25:00 -1.1 C 4.17 g/m*3 -1.1 C 0 km/h
1471 31-12-2019 02:30:00 -1.2 C 4.15 g/m*3 -1.2 C 0 km/h
1472 31-12-2019 02:35:00 -1.2 C 4.15 g/m*3 -1.2 C 0 km/h
1473 31-12-2019 02:40:00 -1.3 C 4.12 g/m*3 -1.3 C 0 km/h
1474 31-12-2019 02:45:00 -1.3 C 4.12 g/m*3 -1.3 C 0 km/h
1475 31-12-2019 02:50:00 -1.2 C 4.19 g/m*3 -1.2 C 3.2 km/h
Sensor: Nr:Datum:Temp:Abs-Feuchte:Windchill:Wind:
Aussen-T/F 1476 31-12-2019 02:55:00 -1 C 4.25 g/m*3 -1 C 1.6 km/h
1477 31-12-2019 03:00:00 -0.8 C 4.31 g/m*3 -0.8 C 0 km/h
1478 31-12-2019 03:05:00 -0.7 C 4.34 g/m*3 -0.7 C 0 km/h
1479 31-12-2019 03:10:00 -0.7 C 4.34 g/m*3 -0.7 C 0 km/h
1480 31-12-2019 03:15:00 -0.7 C 4.34 g/m*3 -0.7 C 1.6 km/h
1481 31-12-2019 03:20:00 -0.7 C 4.34 g/m*3 -0.7 C 3.2 km/h
1482 31-12-2019 03:25:00 -0.8 C 4.31 g/m*3 -0.8 C 1.6 km/h
1483 31-12-2019 03:30:00 -0.9 C 4.28 g/m*3 -0.9 C 1.6 km/h
1484 31-12-2019 03:35:00 -0.9 C 4.28 g/m*3 -0.9 C 0 km/h
1485 31-12-2019 03:40:00 -1 C 4.25 g/m*3 -1 C 0 km/h
1486 31-12-2019 03:45:00 -1.1 C 4.17 g/m*3 -1.1 C 0 km/h
1487 31-12-2019 03:50:00 -1.2 C 4.19 g/m*3 -1.2 C 0 km/h
1488 31-12-2019 03:55:00 -1.3 C 4.16 g/m*3 -1.3 C 0 km/h
1489 31-12-2019 04:00:00 -1.3 C 4.16 g/m*3 -1.3 C 3.2 km/h
1490 31-12-2019 04:05:00 -1.3 C 4.16 g/m*3 -1.3 C 0 km/h
1491 31-12-2019 04:10:00 -1.3 C 4.16 g/m*3 -1.3 C 0 km/h
1492 31-12-2019 04:15:00 -1.3 C 4.16 g/m*3 -1.3 C 0 km/h
1493 31-12-2019 04:20:00 -1.4 C 4.13 g/m*3 -1.4 C 0 km/h
1494 31-12-2019 04:25:00 -1.6 C 4.07 g/m*3 -1.6 C 0 km/h
1495 31-12-2019 04:30:00 -1.7 C 4.05 g/m*3 -1.7 C 0 km/h
1496 31-12-2019 04:35:00 -1.7 C 4.05 g/m*3 -1.7 C 0 km/h
1497 31-12-2019 04:40:00 -1.7 C 4.05 g/m*3 -1.7 C 0 km/h
1498 31-12-2019 04:45:00 -1.7 C 4.05 g/m*3 -1.7 C 0 km/h
1499 31-12-2019 04:50:00 -1.7 C 4.05 g/m*3 -1.7 C 0 km/h
1500 31-12-2019 04:55:00 -1.7 C 4.05 g/m*3 -1.7 C 1.6 km/h
Sensor: Nr:Datum:Temp:Abs-Feuchte:Windchill:Wind:
Aussen-T/F 1501 31-12-2019 05:00:00 -1.7 C 4.09 g/m*3 -1.7 C 0 km/h
1502 31-12-2019 05:05:00 -1.7 C 4.05 g/m*3 -1.7 C 0 km/h
1503 31-12-2019 05:10:00 -1.8 C 4.02 g/m*3 -1.8 C 0 km/h
1504 31-12-2019 05:15:00 -1.8 C 4.02 g/m*3 -1.8 C 0 km/h
1505 31-12-2019 05:20:00 -1.8 C 4.06 g/m*3 -1.8 C 0 km/h
1506 31-12-2019 05:25:00 -1.8 C 4.06 g/m*3 -1.8 C 0 km/h
1507 31-12-2019 05:30:00 -1.7 C 4.09 g/m*3 -1.7 C 0 km/h
1508 31-12-2019 05:35:00 -1.7 C 4.09 g/m*3 -1.7 C 0 km/h
1509 31-12-2019 05:40:00 -1.7 C 4.09 g/m*3 -1.7 C 0 km/h
1510 31-12-2019 05:45:00 -1.6 C 4.12 g/m*3 -1.6 C 0 km/h
1511 31-12-2019 05:50:00 -1.6 C 4.12 g/m*3 -1.6 C 0 km/h
1512 31-12-2019 05:55:00 -1.6 C 4.12 g/m*3 -1.6 C 3.2 km/h
1513 31-12-2019 06:00:00 -1.6 C 4.12 g/m*3 -1.6 C 3.2 km/h
1514 31-12-2019 06:05:00 -1.7 C 4.09 g/m*3 -1.7 C 0 km/h
1515 31-12-2019 06:10:00 -1.7 C 4.09 g/m*3 -1.7 C 0 km/h
1516 31-12-2019 06:15:00 -1.8 C 4.06 g/m*3 -1.8 C 0 km/h
1517 31-12-2019 06:20:00 -1.8 C 4.06 g/m*3 -1.8 C 0 km/h
1518 31-12-2019 06:25:00 -1.8 C 4.06 g/m*3 -1.8 C 0 km/h
1519 31-12-2019 06:30:00 -1.8 C 4.06 g/m*3 -1.8 C 0 km/h
1520 31-12-2019 06:35:00 -1.8 C 4.06 g/m*3 -1.8 C 0 km/h
1521 31-12-2019 06:40:00 -1.9 C 4.03 g/m*3 -1.9 C 0 km/h
1522 31-12-2019 06:45:00 -1.9 C 4.03 g/m*3 -1.9 C 0 km/h
1523 31-12-2019 06:50:00 -1.9 C 4.03 g/m*3 -1.9 C 0 km/h
1524 31-12-2019 06:55:00 -1.8 C 4.06 g/m*3 -1.8 C 0 km/h
1525 31-12-2019 07:00:00 -1.8 C 4.06 g/m*3 -1.8 C 0 km/h
Sensor: Nr:Datum:Temp:Abs-Feuchte:Windchill:Wind:
Aussen-T/F 1526 31-12-2019 07:05:00 -1.8 C 4.06 g/m*3 -1.8 C 0 km/h
1527 31-12-2019 07:10:00 -1.8 C 4.06 g/m*3 -1.8 C 0 km/h
1528 31-12-2019 07:15:00 -1.7 C 4.09 g/m*3 -1.7 C 0 km/h
1529 31-12-2019 07:20:00 -1.7 C 4.13 g/m*3 -1.7 C 0 km/h
1530 31-12-2019 07:25:00 -1.7 C 4.13 g/m*3 -1.7 C 0 km/h
1531 31-12-2019 07:30:00 -1.7 C 4.09 g/m*3 -1.7 C 0 km/h
1532 31-12-2019 07:35:00 -1.8 C 4.06 g/m*3 -1.8 C 0 km/h
1533 31-12-2019 07:40:00 -1.8 C 4.1 g/m*3 -1.8 C 0 km/h
1534 31-12-2019 07:45:00 -1.7 C 4.13 g/m*3 -1.7 C 0 km/h
1535 31-12-2019 07:50:00 -1.6 C 4.16 g/m*3 -1.6 C 0 km/h
1536 31-12-2019 07:55:00 -1.4 C 4.22 g/m*3 -1.4 C 0 km/h
1537 31-12-2019 08:00:00 -1.3 C 4.25 g/m*3 -1.3 C 0 km/h
1538 31-12-2019 08:05:00 -1.2 C 4.28 g/m*3 -1.2 C 3.2 km/h
1539 31-12-2019 08:10:00 -1.2 C 4.28 g/m*3 -1.2 C 3.2 km/h
1540 31-12-2019 08:15:00 -1.1 C 4.31 g/m*3 -1.1 C 0 km/h
1541 31-12-2019 08:20:00 -0.9 C 4.37 g/m*3 -0.9 C 0 km/h
1542 31-12-2019 08:25:00 -0.8 C 4.4 g/m*3 -0.8 C 1.6 km/h
1543 31-12-2019 08:30:00 -0.7 C 4.43 g/m*3 -0.7 C 1.6 km/h
1544 31-12-2019 08:35:00 -0.4 C 4.52 g/m*3 -2.64 C 6.4 km/h
1545 31-12-2019 08:40:00 -0.3 C 4.6 g/m*3 -0.3 C 1.6 km/h
1546 31-12-2019 08:45:00 -0.2 C 4.59 g/m*3 -0.2 C 0 km/h
1547 31-12-2019 08:50:00 -0.2 C 4.59 g/m*3 -0.2 C 0 km/h
1548 31-12-2019 08:55:00 -0.2 C 4.59 g/m*3 -0.2 C 4.8 km/h
1549 31-12-2019 09:00:00 -0.2 C 4.59 g/m*3 -0.2 C 3.2 km/h
1550 31-12-2019 09:05:00 -0.2 C 4.59 g/m*3 -0.2 C 0 km/h
Sensor: Nr:Datum:Temp:Abs-Feuchte:Windchill:Wind:
Aussen-T/F 1551 31-12-2019 09:10:00 -0.1 C 4.62 g/m*3 -0.1 C 0 km/h
1552 31-12-2019 09:15:00 -0.1 C 4.62 g/m*3 -0.1 C 0 km/h
1553 31-12-2019 09:20:00 -0.1 C 4.62 g/m*3 -0.1 C 1.6 km/h
1554 31-12-2019 09:25:00 -0.1 C 4.62 g/m*3 -0.1 C 1.6 km/h
1555 31-12-2019 09:30:00 -0.1 C 4.62 g/m*3 -0.1 C 0 km/h
1556 31-12-2019 09:35:00 -0.1 C 4.62 g/m*3 -0.1 C 0 km/h
1557 31-12-2019 09:40:00 -0.1 C 4.62 g/m*3 -0.1 C 0 km/h
1558 31-12-2019 09:45:00 -0.1 C 4.62 g/m*3 -0.1 C 0 km/h
1559 31-12-2019 09:50:00 0 C 4.65 g/m*3 0 C 0 km/h
1560 31-12-2019 09:55:00 0 C 4.65 g/m*3 0 C 0 km/h
1561 31-12-2019 10:00:00 0.1 C 4.68 g/m*3 0.1 C 0 km/h
1562 31-12-2019 10:05:00 0.2 C 4.72 g/m*3 0.2 C 0 km/h
1563 31-12-2019 10:10:00 0.2 C 4.72 g/m*3 0.2 C 1.6 km/h
1564 31-12-2019 10:15:00 0.3 C 4.75 g/m*3 0.3 C 0 km/h
1565 31-12-2019 10:20:00 0.3 C 4.75 g/m*3 0.3 C 0 km/h
1566 31-12-2019 10:25:00 0.4 C 4.78 g/m*3 0.4 C 0 km/h
1567 31-12-2019 10:30:00 0.5 C 4.81 g/m*3 0.5 C 0 km/h
1568 31-12-2019 10:35:00 0.6 C 4.85 g/m*3 0.6 C 0 km/h
1569 31-12-2019 10:40:00 0.7 C 4.83 g/m*3 0.7 C 1.6 km/h
1570 31-12-2019 10:45:00 0.7 C 4.83 g/m*3 0.7 C 0 km/h
1571 31-12-2019 10:50:00 0.8 C 4.86 g/m*3 0.8 C 0 km/h
1572 31-12-2019 10:55:00 0.8 C 4.86 g/m*3 0.8 C 0 km/h
1573 31-12-2019 11:00:00 0.9 C 4.9 g/m*3 0.9 C 0 km/h
1574 31-12-2019 11:05:00 0.9 C 4.9 g/m*3 0.9 C 0 km/h
1575 31-12-2019 11:10:00 1 C 4.93 g/m*3 1 C 0 km/h
Sensor: Nr:Datum:Temp:Abs-Feuchte:Windchill:Wind:
Aussen-T/F 1576 31-12-2019 11:15:00 1.1 C 4.91 g/m*3 1.1 C 0 km/h
1577 31-12-2019 11:20:00 1.1 C 4.91 g/m*3 1.1 C 0 km/h
1578 31-12-2019 11:25:00 1.2 C 4.95 g/m*3 1.2 C 0 km/h
1579 31-12-2019 11:30:00 1.2 C 4.95 g/m*3 1.2 C 0 km/h
1580 31-12-2019 11:35:00 1.3 C 4.98 g/m*3 1.3 C 0 km/h
1581 31-12-2019 11:40:00 1.3 C 4.98 g/m*3 1.3 C 1.6 km/h
1582 31-12-2019 11:45:00 1.4 C 5.01 g/m*3 1.4 C 0 km/h
1583 31-12-2019 11:50:00 1.5 C 4.99 g/m*3 1.5 C 0 km/h
1584 31-12-2019 11:55:00 1.6 C 5.03 g/m*3 1.6 C 0 km/h
1585 31-12-2019 12:00:00 1.7 C 5.12 g/m*3 1.7 C 0 km/h
1586 31-12-2019 12:05:00 1.8 C 5.1 g/m*3 -0.1 C 6.4 km/h
1587 31-12-2019 12:10:00 2 C 5.17 g/m*3 2 C 1.6 km/h
1588 31-12-2019 12:15:00 2.1 C 5.2 g/m*3 2.1 C 0 km/h
1589 31-12-2019 12:20:00 2.3 C 5.27 g/m*3 2.3 C 0 km/h
1590 31-12-2019 12:25:00 2.3 C 5.27 g/m*3 2.3 C 1.6 km/h
1591 31-12-2019 12:30:00 2.4 C 5.25 g/m*3 2.4 C 0 km/h
1592 31-12-2019 12:35:00 2.4 C 5.25 g/m*3 2.4 C 0 km/h
1593 31-12-2019 12:40:00 2.5 C 5.29 g/m*3 2.5 C 0 km/h
1594 31-12-2019 12:45:00 2.6 C 5.32 g/m*3 2.6 C 1.6 km/h
1595 31-12-2019 12:50:00 2.6 C 5.27 g/m*3 2.6 C 3.2 km/h
1596 31-12-2019 12:55:00 2.6 C 5.21 g/m*3 2.6 C 1.6 km/h
1597 31-12-2019 13:00:00 2.6 C 5.21 g/m*3 2.6 C 1.6 km/h
1598 31-12-2019 13:05:00 2.6 C 5.21 g/m*3 2.6 C 0 km/h
1599 31-12-2019 13:10:00 2.7 C 5.19 g/m*3 2.7 C 0 km/h
1600 31-12-2019 13:15:00 2.7 C 5.19 g/m*3 2.7 C 0 km/h
Sensor: Nr:Datum:Temp:Abs-Feuchte:Windchill:Wind:
Aussen-T/F 1601 31-12-2019 13:20:00 2.7 C 5.19 g/m*3 2.7 C 0 km/h
1602 31-12-2019 13:25:00 2.8 C 5.22 g/m*3 2.8 C 0 km/h
1603 31-12-2019 13:30:00 2.8 C 5.22 g/m*3 2.8 C 0 km/h
1604 31-12-2019 13:35:00 2.9 C 5.26 g/m*3 2.9 C 0 km/h
1605 31-12-2019 13:40:00 3 C 5.29 g/m*3 3 C 0 km/h
1606 31-12-2019 13:45:00 3.1 C 5.33 g/m*3 3.1 C 0 km/h
1607 31-12-2019 13:50:00 3.1 C 5.27 g/m*3 3.1 C 0 km/h
1608 31-12-2019 13:55:00 3.1 C 5.27 g/m*3 3.1 C 0 km/h
1609 31-12-2019 14:00:00 3.1 C 5.27 g/m*3 3.1 C 0 km/h
1610 31-12-2019 14:05:00 3.1 C 5.21 g/m*3 3.1 C 0 km/h
1611 31-12-2019 14:10:00 3.2 C 5.3 g/m*3 3.2 C 0 km/h
1612 31-12-2019 14:15:00 3.2 C 5.3 g/m*3 3.2 C 0 km/h
1613 31-12-2019 14:20:00 3.2 C 5.24 g/m*3 3.2 C 0 km/h
1614 31-12-2019 14:25:00 3.2 C 5.3 g/m*3 3.2 C 0 km/h
1615 31-12-2019 14:30:00 3.3 C 5.34 g/m*3 3.3 C 0 km/h
1616 31-12-2019 14:35:00 3.3 C 5.34 g/m*3 3.3 C 0 km/h
1617 31-12-2019 14:40:00 3.4 C 5.37 g/m*3 3.4 C 0 km/h
1618 31-12-2019 14:45:00 3.4 C 5.37 g/m*3 3.4 C 0 km/h
1619 31-12-2019 14:50:00 3.4 C 5.37 g/m*3 3.4 C 0 km/h
1620 31-12-2019 14:55:00 3.4 C 5.31 g/m*3 3.4 C 0 km/h
1621 31-12-2019 15:00:00 3.4 C 5.31 g/m*3 3.4 C 0 km/h
1622 31-12-2019 15:05:00 3.4 C 5.31 g/m*3 3.4 C 0 km/h
1623 31-12-2019 15:10:00 3.4 C 5.31 g/m*3 3.4 C 0 km/h
1624 31-12-2019 15:15:00 3.4 C 5.31 g/m*3 3.4 C 0 km/h
1625 31-12-2019 15:20:00 3.4 C 5.37 g/m*3 3.4 C 0 km/h
Sensor: Nr:Datum:Temp:Abs-Feuchte:Windchill:Wind:
Aussen-T/F 1626 31-12-2019 15:25:00 3.5 C 5.41 g/m*3 3.5 C 0 km/h
1627 31-12-2019 15:30:00 3.5 C 5.35 g/m*3 3.5 C 0 km/h
1628 31-12-2019 15:35:00 3.5 C 5.35 g/m*3 3.5 C 0 km/h
1629 31-12-2019 15:40:00 3.5 C 5.35 g/m*3 3.5 C 0 km/h
1630 31-12-2019 15:45:00 3.6 C 5.45 g/m*3 3.6 C 0 km/h
1631 31-12-2019 15:50:00 3.6 C 5.45 g/m*3 3.6 C 0 km/h
1632 31-12-2019 15:55:00 3.6 C 5.45 g/m*3 3.6 C 0 km/h
1633 31-12-2019 16:00:00 3.5 C 5.41 g/m*3 3.5 C 0 km/h
1634 31-12-2019 16:05:00 3.4 C 5.44 g/m*3 3.4 C 0 km/h
1635 31-12-2019 16:10:00 3.2 C 5.3 g/m*3 3.2 C 0 km/h
1636 31-12-2019 16:15:00 2.9 C 5.2 g/m*3 2.9 C 0 km/h
1637 31-12-2019 16:20:00 2.6 C 5.09 g/m*3 2.6 C 0 km/h
1638 31-12-2019 16:25:00 2.3 C 4.99 g/m*3 2.3 C 0 km/h
1639 31-12-2019 16:30:00 2 C 4.95 g/m*3 2 C 0 km/h
1640 31-12-2019 16:35:00 1.8 C 4.93 g/m*3 1.8 C 0 km/h
1641 31-12-2019 16:40:00 1.6 C 4.87 g/m*3 1.6 C 0 km/h
1642 31-12-2019 16:45:00 1.4 C 4.85 g/m*3 1.4 C 0 km/h
1643 31-12-2019 16:50:00 1.3 C 4.82 g/m*3 1.3 C 0 km/h
1644 31-12-2019 16:55:00 1.2 C 4.84 g/m*3 1.2 C 0 km/h
1645 31-12-2019 17:00:00 1.1 C 4.81 g/m*3 1.1 C 0 km/h
1646 31-12-2019 17:05:00 0.9 C 4.74 g/m*3 0.9 C 0 km/h
1647 31-12-2019 17:10:00 0.8 C 4.71 g/m*3 0.8 C 0 km/h
1648 31-12-2019 17:15:00 0.8 C 4.71 g/m*3 0.8 C 0 km/h
1649 31-12-2019 17:20:00 0.7 C 4.68 g/m*3 0.7 C 0 km/h
1650 31-12-2019 17:25:00 0.7 C 4.73 g/m*3 0.7 C 0 km/h
Sensor: Nr:Datum:Temp:Abs-Feuchte:Windchill:Wind:
Aussen-T/F 1651 31-12-2019 17:30:00 0.6 C 4.7 g/m*3 0.6 C 0 km/h
1652 31-12-2019 17:35:00 0.6 C 4.7 g/m*3 0.6 C 0 km/h
1653 31-12-2019 17:40:00 0.5 C 4.66 g/m*3 0.5 C 0 km/h
1654 31-12-2019 17:45:00 0.4 C 4.63 g/m*3 0.4 C 0 km/h
1655 31-12-2019 17:50:00 0.4 C 4.63 g/m*3 0.4 C 0 km/h
1656 31-12-2019 17:55:00 0.4 C 4.63 g/m*3 0.4 C 0 km/h
1657 31-12-2019 18:00:00 0.3 C 4.65 g/m*3 0.3 C 0 km/h
1658 31-12-2019 18:05:00 0.3 C 4.65 g/m*3 0.3 C 0 km/h
1659 31-12-2019 18:10:00 0.2 C 4.57 g/m*3 0.2 C 0 km/h
1660 31-12-2019 18:15:00 0.2 C 4.62 g/m*3 0.2 C 0 km/h
1661 31-12-2019 18:20:00 0.2 C 4.62 g/m*3 0.2 C 0 km/h
1662 31-12-2019 18:25:00 0.2 C 4.62 g/m*3 0.2 C 0 km/h
1663 31-12-2019 18:30:00 0.3 C 4.65 g/m*3 0.3 C 0 km/h
1664 31-12-2019 18:35:00 0.3 C 4.7 g/m*3 0.3 C 0 km/h
1665 31-12-2019 18:40:00 0.3 C 4.7 g/m*3 0.3 C 0 km/h
1666 31-12-2019 18:45:00 0.4 C 4.73 g/m*3 0.4 C 0 km/h
1667 31-12-2019 18:50:00 0.5 C 4.76 g/m*3 0.5 C 0 km/h
1668 31-12-2019 18:55:00 0.6 C 4.8 g/m*3 0.6 C 0 km/h
1669 31-12-2019 19:00:00 0.6 C 4.8 g/m*3 0.6 C 0 km/h
1670 31-12-2019 19:05:00 0.7 C 4.83 g/m*3 0.7 C 0 km/h
1671 31-12-2019 19:10:00 0.7 C 4.83 g/m*3 0.7 C 0 km/h
1672 31-12-2019 19:15:00 0.7 C 4.83 g/m*3 0.7 C 0 km/h
1673 31-12-2019 19:20:00 0.8 C 4.86 g/m*3 0.8 C 0 km/h
1674 31-12-2019 19:25:00 0.8 C 4.86 g/m*3 0.8 C 0 km/h
1675 31-12-2019 19:30:00 0.9 C 4.9 g/m*3 0.9 C 0 km/h
Sensor: Nr:Datum:Temp:Abs-Feuchte:Windchill:Wind:
Aussen-T/F 1676 31-12-2019 19:35:00 0.9 C 4.9 g/m*3 0.9 C 0 km/h
1677 31-12-2019 19:40:00 1 C 4.93 g/m*3 1 C 0 km/h
1678 31-12-2019 19:45:00 1.1 C 5.02 g/m*3 1.1 C 0 km/h
1679 31-12-2019 19:50:00 1.1 C 4.96 g/m*3 1.1 C 0 km/h
1680 31-12-2019 19:55:00 1.2 C 5 g/m*3 1.2 C 0 km/h
1681 31-12-2019 20:00:00 1.2 C 5 g/m*3 1.2 C 0 km/h
1682 31-12-2019 20:05:00 1.2 C 5 g/m*3 1.2 C 0 km/h
1683 31-12-2019 20:10:00 1.3 C 5.09 g/m*3 1.3 C 0 km/h
1684 31-12-2019 20:15:00 1.3 C 5.09 g/m*3 1.3 C 0 km/h
1685 31-12-2019 20:20:00 1.3 C 5.09 g/m*3 1.3 C 0 km/h
1686 31-12-2019 20:25:00 1.3 C 5.03 g/m*3 1.3 C 0 km/h
1687 31-12-2019 20:30:00 1.3 C 5.03 g/m*3 1.3 C 0 km/h
1688 31-12-2019 20:35:00 1.3 C 5.03 g/m*3 1.3 C 0 km/h
1689 31-12-2019 20:40:00 1.3 C 5.03 g/m*3 1.3 C 0 km/h
1690 31-12-2019 20:45:00 1.3 C 5.03 g/m*3 1.3 C 0 km/h
1691 31-12-2019 20:50:00 1.2 C 5 g/m*3 1.2 C 0 km/h
1692 31-12-2019 20:55:00 1.2 C 5 g/m*3 1.2 C 0 km/h
1693 31-12-2019 21:00:00 1.2 C 5 g/m*3 1.2 C 0 km/h
1694 31-12-2019 21:05:00 1.2 C 5 g/m*3 1.2 C 0 km/h
1695 31-12-2019 21:10:00 1.2 C 5 g/m*3 1.2 C 0 km/h
1696 31-12-2019 21:15:00 1.2 C 5 g/m*3 1.2 C 0 km/h
1697 31-12-2019 21:20:00 1.2 C 5 g/m*3 1.2 C 0 km/h
1698 31-12-2019 21:25:00 1.2 C 5 g/m*3 1.2 C 0 km/h
1699 31-12-2019 21:30:00 1.2 C 5 g/m*3 1.2 C 0 km/h
1700 31-12-2019 21:35:00 1.2 C 5 g/m*3 1.2 C 1.6 km/h
Sensor: Nr:Datum:Temp:Abs-Feuchte:Windchill:Wind:
Aussen-T/F 1701 31-12-2019 21:40:00 1.3 C 5.03 g/m*3 1.3 C 0 km/h
1702 31-12-2019 21:45:00 1.3 C 5.03 g/m*3 1.3 C 0 km/h
1703 31-12-2019 21:50:00 1.3 C 5.03 g/m*3 1.3 C 0 km/h
1704 31-12-2019 21:55:00 1.3 C 5.03 g/m*3 1.3 C 0 km/h
1705 31-12-2019 22:00:00 1.3 C 5.03 g/m*3 1.3 C 1.6 km/h
1706 31-12-2019 22:05:00 1.3 C 5.03 g/m*3 1.3 C 0 km/h
1707 31-12-2019 22:10:00 1.3 C 5.03 g/m*3 1.3 C 0 km/h
1708 31-12-2019 22:15:00 1.3 C 5.03 g/m*3 1.3 C 0 km/h
1709 31-12-2019 22:20:00 1.3 C 5.03 g/m*3 1.3 C 0 km/h
1710 31-12-2019 22:25:00 1.3 C 5.03 g/m*3 1.3 C 0 km/h
1711 31-12-2019 22:30:00 1.2 C 5 g/m*3 1.2 C 0 km/h
1712 31-12-2019 22:35:00 1.1 C 4.96 g/m*3 1.1 C 0 km/h
1713 31-12-2019 22:40:00 1.1 C 4.96 g/m*3 1.1 C 0 km/h
1714 31-12-2019 22:45:00 1.1 C 4.96 g/m*3 1.1 C 0 km/h
1715 31-12-2019 22:50:00 1 C 4.93 g/m*3 1 C 0 km/h
1716 31-12-2019 22:55:00 0.9 C 4.9 g/m*3 0.9 C 0 km/h
1717 31-12-2019 23:00:00 0.9 C 4.9 g/m*3 0.9 C 0 km/h
1718 31-12-2019 23:05:00 0.8 C 4.86 g/m*3 0.8 C 0 km/h
1719 31-12-2019 23:10:00 0.8 C 4.86 g/m*3 0.8 C 0 km/h
1720 31-12-2019 23:15:00 0.8 C 4.86 g/m*3 0.8 C 0 km/h
1721 31-12-2019 23:20:00 0.8 C 4.86 g/m*3 0.8 C 0 km/h
1722 31-12-2019 23:25:00 0.8 C 4.86 g/m*3 0.8 C 0 km/h
1723 31-12-2019 23:30:00 0.9 C 4.9 g/m*3 0.9 C 0 km/h
1724 31-12-2019 23:35:00 0.9 C 4.95 g/m*3 0.9 C 0 km/h
1725 31-12-2019 23:40:00 0.9 C 4.95 g/m*3 0.9 C 0 km/h
Sensor: Nr:Datum:Temp:Abs-Feuchte:Windchill:Wind:
Aussen-T/F 1726 31-12-2019 23:45:00 1 C 4.98 g/m*3 1 C 0 km/h
1727 31-12-2019 23:50:00 1.1 C 5.02 g/m*3 1.1 C 0 km/h
1728 31-12-2019 23:55:00 1.2 C 5.05 g/m*3 1.2 C 0 km/h
1729 01-01-2020 00:00:00 1.2 C 5.05 g/m*3 1.2 C 0 km/h
1730 01-01-2020 00:05:00 1.2 C 5.05 g/m*3 1.2 C 0 km/h
1731 01-01-2020 00:10:00 1.2 C 5.05 g/m*3 1.2 C 0 km/h
1732 01-01-2020 00:15:00 1.2 C 5.05 g/m*3 1.2 C 0 km/h
1733 01-01-2020 00:20:00 1.2 C 5.05 g/m*3 1.2 C 0 km/h
1734 01-01-2020 00:25:00 1.2 C 5.05 g/m*3 1.2 C 0 km/h
1735 01-01-2020 00:30:00 1.1 C 5.02 g/m*3 1.1 C 0 km/h
1736 01-01-2020 00:35:00 0.9 C 4.9 g/m*3 0.9 C 0 km/h
1737 01-01-2020 00:40:00 0.8 C 4.86 g/m*3 0.8 C 1.6 km/h
1738 01-01-2020 00:45:00 0.7 C 4.83 g/m*3 0.7 C 1.6 km/h
1739 01-01-2020 00:50:00 0.6 C 4.8 g/m*3 0.6 C 1.6 km/h
1740 01-01-2020 00:55:00 0.5 C 4.76 g/m*3 0.5 C 0 km/h
1741 01-01-2020 01:00:00 0.4 C 4.73 g/m*3 0.4 C 3.2 km/h
1742 01-01-2020 01:05:00 0.3 C 4.7 g/m*3 0.3 C 1.6 km/h
1743 01-01-2020 01:10:00 0.3 C 4.7 g/m*3 0.3 C 0 km/h
1744 01-01-2020 01:15:00 0.3 C 4.75 g/m*3 0.3 C 0 km/h
1745 01-01-2020 01:20:00 0.3 C 4.75 g/m*3 0.3 C 0 km/h
1746 01-01-2020 01:25:00 0.4 C 4.78 g/m*3 0.4 C 0 km/h
1747 01-01-2020 01:30:00 0.4 C 4.78 g/m*3 0.4 C 0 km/h
1748 01-01-2020 01:35:00 0.5 C 4.81 g/m*3 0.5 C 0 km/h
1749 01-01-2020 01:40:00 0.4 C 4.78 g/m*3 0.4 C 0 km/h
1750 01-01-2020 01:45:00 0.4 C 4.78 g/m*3 0.4 C 0 km/h
Sensor: Nr:Datum:Temp:Abs-Feuchte:Windchill:Wind:
Aussen-T/F 1751 01-01-2020 01:50:00 0.3 C 4.75 g/m*3 0.3 C 0 km/h
1752 01-01-2020 01:55:00 0.2 C 4.72 g/m*3 0.2 C 0 km/h
1753 01-01-2020 02:00:00 0.1 C 4.68 g/m*3 0.1 C 0 km/h
1754 01-01-2020 02:05:00 0.1 C 4.68 g/m*3 0.1 C 0 km/h
1755 01-01-2020 02:10:00 0.2 C 4.72 g/m*3 0.2 C 0 km/h
1756 01-01-2020 02:15:00 0.2 C 4.72 g/m*3 0.2 C 0 km/h
1757 01-01-2020 02:20:00 0.4 C 4.78 g/m*3 0.4 C 0 km/h
1758 01-01-2020 02:25:00 0.5 C 4.81 g/m*3 0.5 C 0 km/h
1759 01-01-2020 02:30:00 0.6 C 4.85 g/m*3 0.6 C 0 km/h
1760 01-01-2020 02:35:00 0.7 C 4.88 g/m*3 0.7 C 0 km/h
1761 01-01-2020 02:40:00 0.8 C 4.91 g/m*3 0.8 C 0 km/h
1762 01-01-2020 02:45:00 0.8 C 4.91 g/m*3 0.8 C 0 km/h
1763 01-01-2020 02:50:00 0.8 C 4.91 g/m*3 0.8 C 0 km/h
1764 01-01-2020 02:55:00 0.9 C 4.95 g/m*3 0.9 C 0 km/h
1765 01-01-2020 03:00:00 0.9 C 4.95 g/m*3 0.9 C 0 km/h
1766 01-01-2020 03:05:00 1 C 4.98 g/m*3 1 C 0 km/h
1767 01-01-2020 03:10:00 1 C 4.98 g/m*3 1 C 0 km/h
1768 01-01-2020 03:15:00 1.1 C 5.02 g/m*3 1.1 C 0 km/h
1769 01-01-2020 03:20:00 1.1 C 5.02 g/m*3 1.1 C 0 km/h
1770 01-01-2020 03:25:00 1.1 C 5.02 g/m*3 1.1 C 0 km/h
1771 01-01-2020 03:30:00 1.1 C 5.02 g/m*3 1.1 C 0 km/h
1772 01-01-2020 03:35:00 1.1 C 5.02 g/m*3 1.1 C 0 km/h
1773 01-01-2020 03:40:00 1.1 C 5.02 g/m*3 1.1 C 0 km/h
1774 01-01-2020 03:45:00 1.1 C 5.02 g/m*3 1.1 C 0 km/h
1775 01-01-2020 03:50:00 1.1 C 5.02 g/m*3 1.1 C 0 km/h
Sensor: Nr:Datum:Temp:Abs-Feuchte:Windchill:Wind:
Aussen-T/F 1776 01-01-2020 03:55:00 1.1 C 5.02 g/m*3 1.1 C 0 km/h
1777 01-01-2020 04:00:00 1.1 C 5.02 g/m*3 1.1 C 0 km/h
1778 01-01-2020 04:05:00 1.1 C 5.02 g/m*3 1.1 C 0 km/h
1779 01-01-2020 04:10:00 1.1 C 5.02 g/m*3 1.1 C 0 km/h
1780 01-01-2020 04:15:00 1.1 C 5.02 g/m*3 1.1 C 0 km/h
1781 01-01-2020 04:20:00 1.1 C 5.02 g/m*3 1.1 C 0 km/h
1782 01-01-2020 04:25:00 1.1 C 5.02 g/m*3 1.1 C 0 km/h
1783 01-01-2020 04:30:00 1.2 C 5.05 g/m*3 1.2 C 0 km/h
1784 01-01-2020 04:35:00 1.2 C 5.05 g/m*3 1.2 C 0 km/h
1785 01-01-2020 04:40:00 1.2 C 5.05 g/m*3 1.2 C 0 km/h
1786 01-01-2020 04:45:00 1.2 C 5.05 g/m*3 1.2 C 1.6 km/h
1787 01-01-2020 04:50:00 1.2 C 5.05 g/m*3 1.2 C 0 km/h
1788 01-01-2020 04:55:00 1.2 C 5.05 g/m*3 1.2 C 0 km/h
1789 01-01-2020 05:00:00 1.2 C 5.05 g/m*3 1.2 C 0 km/h
1790 01-01-2020 05:05:00 1.2 C 5.05 g/m*3 1.2 C 0 km/h
1791 01-01-2020 05:10:00 1.2 C 5.05 g/m*3 1.2 C 0 km/h
1792 01-01-2020 05:15:00 1.2 C 5.05 g/m*3 1.2 C 0 km/h
1793 01-01-2020 05:20:00 1.2 C 5.05 g/m*3 1.2 C 0 km/h
1794 01-01-2020 05:25:00 1.2 C 5.05 g/m*3 1.2 C 0 km/h
1795 01-01-2020 05:30:00 1.3 C 5.09 g/m*3 1.3 C 0 km/h
1796 01-01-2020 05:35:00 1.3 C 5.09 g/m*3 1.3 C 0 km/h
1797 01-01-2020 05:40:00 1.3 C 5.09 g/m*3 1.3 C 0 km/h
1798 01-01-2020 05:45:00 1.3 C 5.09 g/m*3 1.3 C 0 km/h
1799 01-01-2020 05:50:00 1.3 C 5.09 g/m*3 1.3 C 0 km/h
1800 01-01-2020 05:55:00 1.3 C 5.09 g/m*3 1.3 C 0 km/h
Sensor: Nr:Datum:Temp:Abs-Feuchte:Windchill:Wind:
Aussen-T/F 1801 01-01-2020 06:00:00 1.3 C 5.09 g/m*3 1.3 C 0 km/h
1802 01-01-2020 06:05:00 1.2 C 5.05 g/m*3 1.2 C 0 km/h
1803 01-01-2020 06:10:00 1.2 C 5.05 g/m*3 1.2 C 0 km/h
1804 01-01-2020 06:15:00 1.2 C 5.05 g/m*3 1.2 C 0 km/h
1805 01-01-2020 06:20:00 1.2 C 5.05 g/m*3 1.2 C 0 km/h
1806 01-01-2020 06:25:00 1.3 C 5.09 g/m*3 1.3 C 0 km/h
1807 01-01-2020 06:30:00 1.3 C 5.09 g/m*3 1.3 C 3.2 km/h
1808 01-01-2020 06:35:00 1.3 C 5.09 g/m*3 1.3 C 3.2 km/h
1809 01-01-2020 06:40:00 1.3 C 5.09 g/m*3 1.3 C 0 km/h
1810 01-01-2020 06:45:00 1.3 C 5.09 g/m*3 1.3 C 0 km/h
1811 01-01-2020 06:50:00 1.3 C 5.09 g/m*3 1.3 C 0 km/h
1812 01-01-2020 06:55:00 1.3 C 5.09 g/m*3 1.3 C 0 km/h
1813 01-01-2020 07:00:00 1.3 C 5.09 g/m*3 1.3 C 0 km/h
1814 01-01-2020 07:05:00 1.3 C 5.09 g/m*3 1.3 C 0 km/h
1815 01-01-2020 07:10:00 1.3 C 5.09 g/m*3 1.3 C 0 km/h
1816 01-01-2020 07:15:00 1.3 C 5.09 g/m*3 1.3 C 0 km/h
1817 01-01-2020 07:20:00 1.3 C 5.09 g/m*3 1.3 C 0 km/h
1818 01-01-2020 07:25:00 1.3 C 5.09 g/m*3 1.3 C 0 km/h
1819 01-01-2020 07:30:00 1.3 C 5.09 g/m*3 1.3 C 0 km/h
1820 01-01-2020 07:35:00 1.3 C 5.09 g/m*3 1.3 C 0 km/h
1821 01-01-2020 07:40:00 1.3 C 5.09 g/m*3 1.3 C 0 km/h
1822 01-01-2020 07:45:00 1.3 C 5.09 g/m*3 1.3 C 0 km/h
1823 01-01-2020 07:50:00 1.3 C 5.09 g/m*3 1.3 C 0 km/h
1824 01-01-2020 07:55:00 1.3 C 5.09 g/m*3 1.3 C 0 km/h
1825 01-01-2020 08:00:00 1.3 C 5.09 g/m*3 1.3 C 0 km/h
Sensor: Nr:Datum:Temp:Abs-Feuchte:Windchill:Wind:
Aussen-T/F 1826 01-01-2020 08:05:00 1.4 C 5.12 g/m*3 1.4 C 0 km/h
1827 01-01-2020 08:10:00 1.4 C 5.12 g/m*3 1.4 C 0 km/h
1828 01-01-2020 08:15:00 1.4 C 5.12 g/m*3 1.4 C 0 km/h
1829 01-01-2020 08:20:00 1.4 C 5.12 g/m*3 1.4 C 0 km/h
1830 01-01-2020 08:25:00 1.4 C 5.12 g/m*3 1.4 C 0 km/h
1831 01-01-2020 08:30:00 1.4 C 5.12 g/m*3 1.4 C 0 km/h
1832 01-01-2020 08:35:00 1.4 C 5.12 g/m*3 1.4 C 0 km/h
1833 01-01-2020 08:40:00 1.5 C 5.16 g/m*3 1.5 C 0 km/h
1834 01-01-2020 08:45:00 1.5 C 5.16 g/m*3 1.5 C 0 km/h
1835 01-01-2020 08:50:00 1.5 C 5.16 g/m*3 1.5 C 0 km/h
1836 01-01-2020 08:55:00 1.5 C 5.16 g/m*3 1.5 C 0 km/h
1837 01-01-2020 09:00:00 1.6 C 5.19 g/m*3 1.6 C 0 km/h
1838 01-01-2020 09:05:00 1.6 C 5.19 g/m*3 1.6 C 0 km/h
1839 01-01-2020 09:10:00 1.6 C 5.19 g/m*3 1.6 C 0 km/h
1840 01-01-2020 09:15:00 1.7 C 5.23 g/m*3 1.7 C 0 km/h
1841 01-01-2020 09:20:00 1.7 C 5.23 g/m*3 1.7 C 0 km/h
1842 01-01-2020 09:25:00 1.8 C 5.26 g/m*3 1.8 C 0 km/h
1843 01-01-2020 09:30:00 1.8 C 5.26 g/m*3 1.8 C 0 km/h
1844 01-01-2020 09:35:00 1.9 C 5.3 g/m*3 1.9 C 0 km/h
1845 01-01-2020 09:40:00 1.9 C 5.3 g/m*3 1.9 C 0 km/h
1846 01-01-2020 09:45:00 1.9 C 5.3 g/m*3 1.9 C 0 km/h
1847 01-01-2020 09:50:00 2 C 5.33 g/m*3 2 C 0 km/h
1848 01-01-2020 09:55:00 2.1 C 5.37 g/m*3 2.1 C 0 km/h
1849 01-01-2020 10:00:00 2.1 C 5.37 g/m*3 2.1 C 0 km/h
1850 01-01-2020 10:05:00 2.2 C 5.41 g/m*3 2.2 C 0 km/h
Sensor: Nr:Datum:Temp:Abs-Feuchte:Windchill:Wind:
Aussen-T/F 1851 01-01-2020 10:10:00 2.3 C 5.44 g/m*3 2.3 C 4.8 km/h
1852 01-01-2020 10:15:00 2.4 C 5.48 g/m*3 2.4 C 4.8 km/h
1853 01-01-2020 10:20:00 2.4 C 5.42 g/m*3 0.59 C 6.4 km/h
1854 01-01-2020 10:25:00 2.5 C 5.46 g/m*3 0.71 C 6.4 km/h
1855 01-01-2020 10:30:00 2.6 C 5.5 g/m*3 0.82 C 6.4 km/h
1856 01-01-2020 10:35:00 2.7 C 5.48 g/m*3 2.7 C 4.8 km/h
1857 01-01-2020 10:40:00 2.7 C 5.48 g/m*3 2.7 C 4.8 km/h
1858 01-01-2020 10:45:00 2.8 C 5.51 g/m*3 2.8 C 4.8 km/h
1859 01-01-2020 10:50:00 2.8 C 5.51 g/m*3 1.05 C 6.4 km/h
1860 01-01-2020 10:55:00 2.9 C 5.49 g/m*3 2.9 C 3.2 km/h
1861 01-01-2020 11:00:00 2.9 C 5.49 g/m*3 1.17 C 6.4 km/h
1862 01-01-2020 11:05:00 2.9 C 5.49 g/m*3 2.9 C 4.8 km/h
1863 01-01-2020 11:10:00 3 C 5.47 g/m*3 3 C 4.8 km/h
1864 01-01-2020 11:15:00 3.1 C 5.51 g/m*3 1.4 C 6.4 km/h
1865 01-01-2020 11:20:00 3.1 C 5.51 g/m*3 1.4 C 6.4 km/h
1866 01-01-2020 11:25:00 3.1 C 5.51 g/m*3 0.87 C 8.1 km/h
1867 01-01-2020 11:30:00 3.2 C 5.48 g/m*3 1.51 C 6.4 km/h
1868 01-01-2020 11:35:00 3.2 C 5.48 g/m*3 3.2 C 4.8 km/h
1869 01-01-2020 11:40:00 3.2 C 5.48 g/m*3 3.2 C 4.8 km/h
1870 01-01-2020 11:45:00 3.2 C 5.48 g/m*3 3.2 C 4.8 km/h
1871 01-01-2020 11:50:00 3.3 C 5.52 g/m*3 3.3 C 3.2 km/h
1872 01-01-2020 11:55:00 3.3 C 5.52 g/m*3 1.63 C 6.4 km/h
1873 01-01-2020 12:00:00 3.3 C 5.52 g/m*3 3.3 C 4.8 km/h
1874 01-01-2020 12:05:00 3.4 C 5.5 g/m*3 3.4 C 3.2 km/h
1875 01-01-2020 12:10:00 3.4 C 5.5 g/m*3 3.4 C 3.2 km/h
Sensor: Nr:Datum:Temp:Abs-Feuchte:Windchill:Wind:
Aussen-T/F 1876 01-01-2020 12:15:00 3.4 C 5.5 g/m*3 3.4 C 3.2 km/h
1877 01-01-2020 12:20:00 3.4 C 5.5 g/m*3 3.4 C 3.2 km/h
1878 01-01-2020 12:25:00 3.4 C 5.5 g/m*3 1.75 C 6.4 km/h
1879 01-01-2020 12:30:00 3.4 C 5.5 g/m*3 3.4 C 1.6 km/h
1880 01-01-2020 12:35:00 3.4 C 5.5 g/m*3 3.4 C 3.2 km/h
1881 01-01-2020 12:40:00 3.4 C 5.5 g/m*3 3.4 C 1.6 km/h
1882 01-01-2020 12:45:00 3.4 C 5.5 g/m*3 3.4 C 0 km/h
1883 01-01-2020 12:50:00 3.3 C 5.46 g/m*3 3.3 C 0 km/h
1884 01-01-2020 12:55:00 3.3 C 5.46 g/m*3 3.3 C 0 km/h
1885 01-01-2020 13:00:00 3.2 C 5.42 g/m*3 3.2 C 0 km/h
1886 01-01-2020 13:05:00 3.1 C 5.39 g/m*3 3.1 C 0 km/h
1887 01-01-2020 13:10:00 2.9 C 5.32 g/m*3 2.9 C 0 km/h
1888 01-01-2020 13:15:00 2.8 C 5.28 g/m*3 2.8 C 0 km/h
1889 01-01-2020 13:20:00 2.8 C 5.34 g/m*3 2.8 C 0 km/h
1890 01-01-2020 13:25:00 2.7 C 5.3 g/m*3 2.7 C 1.6 km/h
1891 01-01-2020 13:30:00 2.6 C 5.27 g/m*3 2.6 C 1.6 km/h
1892 01-01-2020 13:35:00 2.6 C 5.32 g/m*3 2.6 C 0 km/h
1893 01-01-2020 13:40:00 2.5 C 5.29 g/m*3 2.5 C 0 km/h
1894 01-01-2020 13:45:00 2.5 C 5.29 g/m*3 2.5 C 1.6 km/h
1895 01-01-2020 13:50:00 2.4 C 5.25 g/m*3 2.4 C 1.6 km/h
1896 01-01-2020 13:55:00 2.4 C 5.31 g/m*3 2.4 C 0 km/h
1897 01-01-2020 14:00:00 2.4 C 5.31 g/m*3 2.4 C 0 km/h
1898 01-01-2020 14:05:00 2.4 C 5.31 g/m*3 2.4 C 0 km/h
1899 01-01-2020 14:10:00 2.4 C 5.31 g/m*3 2.4 C 1.6 km/h
1900 01-01-2020 14:15:00 2.4 C 5.31 g/m*3 2.4 C 0 km/h
Sensor: Nr:Datum:Temp:Abs-Feuchte:Windchill:Wind:
Aussen-T/F 1901 01-01-2020 14:20:00 2.4 C 5.31 g/m*3 2.4 C 0 km/h
1902 01-01-2020 14:25:00 2.4 C 5.37 g/m*3 2.4 C 0 km/h
1903 01-01-2020 14:30:00 2.3 C 5.33 g/m*3 2.3 C 0 km/h
1904 01-01-2020 14:35:00 2.4 C 5.37 g/m*3 2.4 C 0 km/h
1905 01-01-2020 14:40:00 2.3 C 5.33 g/m*3 2.3 C 0 km/h
1906 01-01-2020 14:45:00 2.3 C 5.33 g/m*3 2.3 C 0 km/h
1907 01-01-2020 14:50:00 2.3 C 5.33 g/m*3 2.3 C 0 km/h
1908 01-01-2020 14:55:00 2.3 C 5.33 g/m*3 2.3 C 0 km/h
1909 01-01-2020 15:00:00 2.2 C 5.29 g/m*3 2.2 C 0 km/h
1910 01-01-2020 15:05:00 2.2 C 5.29 g/m*3 2.2 C 0 km/h
1911 01-01-2020 15:10:00 2.2 C 5.29 g/m*3 2.2 C 0 km/h
1912 01-01-2020 15:15:00 2.2 C 5.29 g/m*3 2.2 C 0 km/h
1913 01-01-2020 15:20:00 2.2 C 5.35 g/m*3 2.2 C 1.6 km/h
1914 01-01-2020 15:25:00 2.3 C 5.39 g/m*3 2.3 C 3.2 km/h
1915 01-01-2020 15:30:00 2.4 C 5.42 g/m*3 2.4 C 4.8 km/h
1916 01-01-2020 15:35:00 2.5 C 5.4 g/m*3 2.5 C 1.6 km/h
1917 01-01-2020 15:40:00 2.4 C 5.37 g/m*3 2.4 C 0 km/h
1918 01-01-2020 15:45:00 2.3 C 5.33 g/m*3 2.3 C 0 km/h
1919 01-01-2020 15:50:00 2.1 C 5.2 g/m*3 2.1 C 0 km/h
1920 01-01-2020 15:55:00 2 C 5.22 g/m*3 2 C 0 km/h
1921 01-01-2020 16:00:00 1.9 C 5.19 g/m*3 1.9 C 0 km/h
1922 01-01-2020 16:05:00 1.8 C 5.1 g/m*3 1.8 C 0 km/h
1923 01-01-2020 16:10:00 1.7 C 5.12 g/m*3 1.7 C 0 km/h
1924 01-01-2020 16:15:00 1.6 C 5.08 g/m*3 1.6 C 0 km/h
1925 01-01-2020 16:20:00 1.5 C 5.05 g/m*3 1.5 C 0 km/h
Sensor: Nr:Datum:Temp:Abs-Feuchte:Windchill:Wind:
Aussen-T/F 1926 01-01-2020 16:25:00 1.4 C 5.01 g/m*3 1.4 C 0 km/h
1927 01-01-2020 16:30:00 1.3 C 4.98 g/m*3 1.3 C 0 km/h
1928 01-01-2020 16:35:00 1.2 C 4.95 g/m*3 1.2 C 0 km/h
1929 01-01-2020 16:40:00 1.1 C 4.91 g/m*3 1.1 C 0 km/h
1930 01-01-2020 16:45:00 0.9 C 4.85 g/m*3 0.9 C 0 km/h
1931 01-01-2020 16:50:00 0.8 C 4.81 g/m*3 0.8 C 0 km/h
1932 01-01-2020 16:55:00 0.8 C 4.81 g/m*3 0.8 C 0 km/h
1933 01-01-2020 17:00:00 0.7 C 4.78 g/m*3 0.7 C 0 km/h
1934 01-01-2020 17:05:00 0.6 C 4.8 g/m*3 0.6 C 0 km/h
1935 01-01-2020 17:10:00 0.5 C 4.71 g/m*3 0.5 C 0 km/h
1936 01-01-2020 17:15:00 0.4 C 4.73 g/m*3 0.4 C 0 km/h
1937 01-01-2020 17:20:00 0.3 C 4.7 g/m*3 0.3 C 0 km/h
1938 01-01-2020 17:25:00 0.3 C 4.7 g/m*3 0.3 C 0 km/h
1939 01-01-2020 17:30:00 0.2 C 4.67 g/m*3 0.2 C 0 km/h
1940 01-01-2020 17:35:00 0.1 C 4.63 g/m*3 0.1 C 0 km/h
1941 01-01-2020 17:40:00 0 C 4.6 g/m*3 0 C 0 km/h
1942 01-01-2020 17:45:00 -0.1 C 4.57 g/m*3 -0.1 C 0 km/h
1943 01-01-2020 17:50:00 -0.2 C 4.54 g/m*3 -0.2 C 0 km/h
1944 01-01-2020 17:55:00 -0.2 C 4.54 g/m*3 -0.2 C 0 km/h
1945 01-01-2020 18:00:00 -0.3 C 4.51 g/m*3 -0.3 C 0 km/h
1946 01-01-2020 18:05:00 -0.3 C 4.51 g/m*3 -0.3 C 0 km/h
1947 01-01-2020 18:10:00 -0.3 C 4.51 g/m*3 -0.3 C 0 km/h
1948 01-01-2020 18:15:00 -0.4 C 4.48 g/m*3 -0.4 C 0 km/h
1949 01-01-2020 18:20:00 -0.4 C 4.48 g/m*3 -0.4 C 0 km/h
1950 01-01-2020 18:25:00 -0.5 C 4.45 g/m*3 -0.5 C 0 km/h
Sensor: Nr:Datum:Temp:Abs-Feuchte:Windchill:Wind:
Aussen-T/F 1951 01-01-2020 18:30:00 -0.6 C 4.42 g/m*3 -0.6 C 0 km/h
1952 01-01-2020 18:35:00 -0.6 C 4.42 g/m*3 -0.6 C 0 km/h
1953 01-01-2020 18:40:00 -0.6 C 4.42 g/m*3 -0.6 C 0 km/h
1954 01-01-2020 18:45:00 -0.7 C 4.43 g/m*3 -0.7 C 0 km/h
1955 01-01-2020 18:50:00 -0.7 C 4.43 g/m*3 -0.7 C 0 km/h
1956 01-01-2020 18:55:00 -0.7 C 4.43 g/m*3 -0.7 C 0 km/h
1957 01-01-2020 19:00:00 -0.7 C 4.39 g/m*3 -0.7 C 0 km/h
1958 01-01-2020 19:05:00 -0.8 C 4.35 g/m*3 -0.8 C 0 km/h
1959 01-01-2020 19:10:00 -0.8 C 4.4 g/m*3 -0.8 C 0 km/h
1960 01-01-2020 19:15:00 -0.8 C 4.4 g/m*3 -0.8 C 0 km/h
1961 01-01-2020 19:20:00 -0.8 C 4.4 g/m*3 -0.8 C 0 km/h
1962 01-01-2020 19:25:00 -0.9 C 4.37 g/m*3 -0.9 C 0 km/h
1963 01-01-2020 19:30:00 -0.9 C 4.37 g/m*3 -0.9 C 0 km/h
1964 01-01-2020 19:35:00 -0.9 C 4.37 g/m*3 -0.9 C 0 km/h
1965 01-01-2020 19:40:00 -0.9 C 4.37 g/m*3 -0.9 C 0 km/h
1966 01-01-2020 19:45:00 -1 C 4.34 g/m*3 -1 C 0 km/h
1967 01-01-2020 19:50:00 -1 C 4.34 g/m*3 -1 C 0 km/h
1968 01-01-2020 19:55:00 -1.1 C 4.31 g/m*3 -1.1 C 0 km/h
1969 01-01-2020 20:00:00 -1.1 C 4.31 g/m*3 -1.1 C 0 km/h
1970 01-01-2020 20:05:00 -1.1 C 4.31 g/m*3 -1.1 C 0 km/h
1971 01-01-2020 20:10:00 -1.1 C 4.31 g/m*3 -1.1 C 0 km/h
1972 01-01-2020 20:15:00 -1.2 C 4.28 g/m*3 -1.2 C 0 km/h
1973 01-01-2020 20:20:00 -1.2 C 4.28 g/m*3 -1.2 C 0 km/h
1974 01-01-2020 20:25:00 -1.2 C 4.28 g/m*3 -1.2 C 0 km/h
1975 01-01-2020 20:30:00 -1.2 C 4.28 g/m*3 -1.2 C 0 km/h
Sensor: Nr:Datum:Temp:Abs-Feuchte:Windchill:Wind:
Aussen-T/F 1976 01-01-2020 20:35:00 -1.2 C 4.28 g/m*3 -1.2 C 0 km/h
1977 01-01-2020 20:40:00 -1.2 C 4.28 g/m*3 -1.2 C 0 km/h
1978 01-01-2020 20:45:00 -1.2 C 4.28 g/m*3 -1.2 C 0 km/h
1979 01-01-2020 20:50:00 -1.3 C 4.25 g/m*3 -1.3 C 0 km/h
1980 01-01-2020 20:55:00 -1.3 C 4.25 g/m*3 -1.3 C 0 km/h
1981 01-01-2020 21:00:00 -1.3 C 4.25 g/m*3 -1.3 C 0 km/h
1982 01-01-2020 21:05:00 -1.3 C 4.25 g/m*3 -1.3 C 0 km/h
1983 01-01-2020 21:10:00 -1.4 C 4.22 g/m*3 -1.4 C 0 km/h
1984 01-01-2020 21:15:00 -1.4 C 4.22 g/m*3 -1.4 C 0 km/h
1985 01-01-2020 21:20:00 -1.5 C 4.19 g/m*3 -1.5 C 0 km/h
1986 01-01-2020 21:25:00 -1.5 C 4.19 g/m*3 -1.5 C 0 km/h
1987 01-01-2020 21:30:00 -1.5 C 4.19 g/m*3 -1.5 C 0 km/h
1988 01-01-2020 21:35:00 -1.5 C 4.19 g/m*3 -1.5 C 0 km/h
1989 01-01-2020 21:40:00 -1.6 C 4.16 g/m*3 -1.6 C 0 km/h
1990 01-01-2020 21:45:00 -1.7 C 4.13 g/m*3 -1.7 C 0 km/h
1991 01-01-2020 21:50:00 -1.7 C 4.13 g/m*3 -1.7 C 0 km/h
1992 01-01-2020 21:55:00 -1.7 C 4.13 g/m*3 -1.7 C 0 km/h
1993 01-01-2020 22:00:00 -1.6 C 4.16 g/m*3 -1.6 C 0 km/h
1994 01-01-2020 22:05:00 -1.7 C 4.13 g/m*3 -1.7 C 0 km/h
1995 01-01-2020 22:10:00 -1.8 C 4.1 g/m*3 -1.8 C 0 km/h
1996 01-01-2020 22:15:00 -1.8 C 4.1 g/m*3 -1.8 C 0 km/h
1997 01-01-2020 22:20:00 -1.8 C 4.1 g/m*3 -1.8 C 0 km/h
1998 01-01-2020 22:25:00 -1.8 C 4.1 g/m*3 -1.8 C 0 km/h
1999 01-01-2020 22:30:00 -1.8 C 4.1 g/m*3 -1.8 C 0 km/h
2000 01-01-2020 22:35:00 -1.7 C 4.13 g/m*3 -1.7 C 0 km/h
Sensor: Nr:Datum:Temp:Abs-Feuchte:Windchill:Wind:
Aussen-T/F 2001 01-01-2020 22:40:00 -1.7 C 4.13 g/m*3 -1.7 C 0 km/h
2002 01-01-2020 22:45:00 -1.7 C 4.13 g/m*3 -1.7 C 0 km/h
2003 01-01-2020 22:50:00 -1.7 C 4.13 g/m*3 -1.7 C 0 km/h
2004 01-01-2020 22:55:00 -1.8 C 4.1 g/m*3 -1.8 C 0 km/h
2005 01-01-2020 23:00:00 -1.8 C 4.1 g/m*3 -1.8 C 0 km/h
2006 01-01-2020 23:05:00 -1.9 C 4.08 g/m*3 -1.9 C 0 km/h
2007 01-01-2020 23:10:00 -1.9 C 4.08 g/m*3 -1.9 C 0 km/h
2008 01-01-2020 23:15:00 -1.8 C 4.1 g/m*3 -1.8 C 0 km/h
2009 01-01-2020 23:20:00 -1.8 C 4.1 g/m*3 -1.8 C 0 km/h
2010 01-01-2020 23:25:00 -1.7 C 4.13 g/m*3 -1.7 C 0 km/h
2011 01-01-2020 23:30:00 -1.7 C 4.18 g/m*3 -1.7 C 0 km/h
2012 01-01-2020 23:35:00 -1.6 C 4.21 g/m*3 -1.6 C 0 km/h
2013 01-01-2020 23:40:00 -1.5 C 4.23 g/m*3 -1.5 C 0 km/h
2014 01-01-2020 23:45:00 -1.5 C 4.23 g/m*3 -1.5 C 0 km/h
2015 01-01-2020 23:50:00 -1.4 C 4.26 g/m*3 -1.4 C 0 km/h
2016 01-01-2020 23:55:00 -1.4 C 4.26 g/m*3 -1.4 C 0 km/h
2017 02-01-2020 00:00:00 -1.3 C 4.29 g/m*3 -1.3 C 0 km/h
2018 02-01-2020 00:05:00 -1.3 C 4.29 g/m*3 -1.3 C 0 km/h
2019 02-01-2020 00:10:00 -1.3 C 4.29 g/m*3 -1.3 C 0 km/h
2020 02-01-2020 00:15:00 -1.3 C 4.29 g/m*3 -1.3 C 0 km/h
2021 02-01-2020 00:20:00 -1.3 C 4.29 g/m*3 -1.3 C 0 km/h
2022 02-01-2020 00:25:00 -1.3 C 4.25 g/m*3 -1.3 C 0 km/h
2023 02-01-2020 00:30:00 -1.4 C 4.22 g/m*3 -1.4 C 0 km/h
2024 02-01-2020 00:35:00 -1.4 C 4.26 g/m*3 -1.4 C 0 km/h
2025 02-01-2020 00:40:00 -1.4 C 4.26 g/m*3 -1.4 C 0 km/h
Sensor: Nr:Datum:Temp:Abs-Feuchte:Windchill:Wind:
Aussen-T/F 2026 02-01-2020 00:45:00 -1.4 C 4.26 g/m*3 -1.4 C 0 km/h
2027 02-01-2020 00:50:00 -1.4 C 4.26 g/m*3 -1.4 C 0 km/h
2028 02-01-2020 00:55:00 -1.4 C 4.26 g/m*3 -1.4 C 0 km/h
2029 02-01-2020 01:00:00 -1.3 C 4.29 g/m*3 -1.3 C 0 km/h
2030 02-01-2020 01:05:00 -1.3 C 4.29 g/m*3 -1.3 C 0 km/h
2031 02-01-2020 01:10:00 -1.3 C 4.29 g/m*3 -1.3 C 0 km/h
2032 02-01-2020 01:15:00 -1.2 C 4.32 g/m*3 -1.2 C 0 km/h
2033 02-01-2020 01:20:00 -1.1 C 4.35 g/m*3 -1.1 C 0 km/h
2034 02-01-2020 01:25:00 -1.1 C 4.35 g/m*3 -1.1 C 0 km/h
2035 02-01-2020 01:30:00 -1.1 C 4.35 g/m*3 -1.1 C 0 km/h
2036 02-01-2020 01:35:00 -1.1 C 4.35 g/m*3 -1.1 C 0 km/h
2037 02-01-2020 01:40:00 -1.1 C 4.35 g/m*3 -1.1 C 0 km/h
2038 02-01-2020 01:45:00 -1 C 4.38 g/m*3 -1 C 0 km/h
2039 02-01-2020 01:50:00 -0.9 C 4.42 g/m*3 -0.9 C 0 km/h
2040 02-01-2020 01:55:00 -0.9 C 4.42 g/m*3 -0.9 C 0 km/h
2041 02-01-2020 02:00:00 -0.9 C 4.42 g/m*3 -0.9 C 0 km/h
2042 02-01-2020 02:05:00 -0.8 C 4.45 g/m*3 -0.8 C 0 km/h
2043 02-01-2020 02:10:00 -0.8 C 4.45 g/m*3 -0.8 C 0 km/h
2044 02-01-2020 02:15:00 -0.7 C 4.48 g/m*3 -0.7 C 0 km/h
2045 02-01-2020 02:20:00 -0.7 C 4.48 g/m*3 -0.7 C 0 km/h
2046 02-01-2020 02:25:00 -0.7 C 4.48 g/m*3 -0.7 C 0 km/h
2047 02-01-2020 02:30:00 -0.7 C 4.48 g/m*3 -0.7 C 0 km/h
2048 02-01-2020 02:35:00 -0.6 C 4.51 g/m*3 -0.6 C 0 km/h
2049 02-01-2020 02:40:00 -0.6 C 4.51 g/m*3 -0.6 C 0 km/h
2050 02-01-2020 02:45:00 -0.5 C 4.54 g/m*3 -0.5 C 0 km/h
Sensor: Nr:Datum:Temp:Abs-Feuchte:Windchill:Wind:
Aussen-T/F 2051 02-01-2020 02:50:00 -0.5 C 4.54 g/m*3 -0.5 C 0 km/h
2052 02-01-2020 02:55:00 -0.4 C 4.57 g/m*3 -0.4 C 0 km/h
2053 02-01-2020 03:00:00 -0.4 C 4.57 g/m*3 -0.4 C 0 km/h
2054 02-01-2020 03:05:00 -0.4 C 4.57 g/m*3 -0.4 C 0 km/h
2055 02-01-2020 03:10:00 -0.4 C 4.57 g/m*3 -0.4 C 0 km/h
2056 02-01-2020 03:15:00 -0.3 C 4.6 g/m*3 -0.3 C 0 km/h
2057 02-01-2020 03:20:00 -0.3 C 4.6 g/m*3 -0.3 C 0 km/h
2058 02-01-2020 03:25:00 -0.3 C 4.6 g/m*3 -0.3 C 0 km/h
2059 02-01-2020 03:30:00 -0.3 C 4.6 g/m*3 -0.3 C 0 km/h
2060 02-01-2020 03:35:00 -0.2 C 4.64 g/m*3 -0.2 C 0 km/h
2061 02-01-2020 03:40:00 -0.2 C 4.64 g/m*3 -0.2 C 0 km/h
2062 02-01-2020 03:45:00 -0.2 C 4.64 g/m*3 -0.2 C 0 km/h
2063 02-01-2020 03:50:00 -0.1 C 4.67 g/m*3 -0.1 C 0 km/h
2064 02-01-2020 03:55:00 -0.1 C 4.67 g/m*3 -0.1 C 0 km/h
2065 02-01-2020 04:00:00 0 C 4.7 g/m*3 0 C 0 km/h
2066 02-01-2020 04:05:00 0 C 4.7 g/m*3 0 C 0 km/h
2067 02-01-2020 04:10:00 0.1 C 4.73 g/m*3 0.1 C 1.6 km/h
2068 02-01-2020 04:15:00 0.2 C 4.77 g/m*3 0.2 C 3.2 km/h
2069 02-01-2020 04:20:00 0.2 C 4.77 g/m*3 0.2 C 1.6 km/h
2070 02-01-2020 04:25:00 0.2 C 4.77 g/m*3 0.2 C 1.6 km/h
2071 02-01-2020 04:30:00 0.2 C 4.77 g/m*3 0.2 C 1.6 km/h
2072 02-01-2020 04:35:00 0.3 C 4.8 g/m*3 0.3 C 0 km/h
2073 02-01-2020 04:40:00 0.2 C 4.77 g/m*3 0.2 C 0 km/h
2074 02-01-2020 04:45:00 0.2 C 4.77 g/m*3 0.2 C 0 km/h
2075 02-01-2020 04:50:00 0.2 C 4.77 g/m*3 0.2 C 0 km/h
Sensor: Nr:Datum:Temp:Abs-Feuchte:Windchill:Wind:
Aussen-T/F 2076 02-01-2020 04:55:00 0.2 C 4.77 g/m*3 0.2 C 0 km/h
2077 02-01-2020 05:00:00 0.2 C 4.77 g/m*3 0.2 C 4.8 km/h
2078 02-01-2020 05:05:00 0.2 C 4.77 g/m*3 0.2 C 4.8 km/h
2079 02-01-2020 05:10:00 0.2 C 4.77 g/m*3 0.2 C 4.8 km/h
2080 02-01-2020 05:15:00 0.2 C 4.77 g/m*3 0.2 C 3.2 km/h
2081 02-01-2020 05:20:00 0.2 C 4.77 g/m*3 0.2 C 4.8 km/h
2082 02-01-2020 05:25:00 0.2 C 4.77 g/m*3 0.2 C 3.2 km/h
2083 02-01-2020 05:30:00 0.2 C 4.77 g/m*3 0.2 C 3.2 km/h
2084 02-01-2020 05:35:00 0.2 C 4.77 g/m*3 0.2 C 3.2 km/h
2085 02-01-2020 05:40:00 0.2 C 4.77 g/m*3 0.2 C 1.6 km/h
2086 02-01-2020 05:45:00 0.2 C 4.77 g/m*3 0.2 C 1.6 km/h
2087 02-01-2020 05:50:00 0.1 C 4.73 g/m*3 -2.65 C 8.1 km/h
2088 02-01-2020 05:55:00 0.1 C 4.73 g/m*3 -2.65 C 8.1 km/h
2089 02-01-2020 06:00:00 0.2 C 4.77 g/m*3 0.2 C 4.8 km/h
2090 02-01-2020 06:05:00 0.1 C 4.73 g/m*3 -2.07 C 6.4 km/h
2091 02-01-2020 06:10:00 0.1 C 4.73 g/m*3 0.1 C 4.8 km/h
2092 02-01-2020 06:15:00 0.1 C 4.73 g/m*3 0.1 C 3.2 km/h
2093 02-01-2020 06:20:00 0.1 C 4.73 g/m*3 -2.65 C 8.1 km/h
2094 02-01-2020 06:25:00 0.1 C 4.73 g/m*3 -2.65 C 8.1 km/h
2095 02-01-2020 06:30:00 0.1 C 4.73 g/m*3 -2.07 C 6.4 km/h
2096 02-01-2020 06:35:00 0.1 C 4.73 g/m*3 -2.65 C 8.1 km/h
2097 02-01-2020 06:40:00 0.1 C 4.73 g/m*3 -2.65 C 8.1 km/h
2098 02-01-2020 06:45:00 0.1 C 4.73 g/m*3 -3.52 C 11.3 km/h
2099 02-01-2020 06:50:00 0.1 C 4.68 g/m*3 -3.52 C 11.3 km/h
2100 02-01-2020 06:55:00 0.1 C 4.68 g/m*3 -3.12 C 9.7 km/h
Sensor: Nr:Datum:Temp:Abs-Feuchte:Windchill:Wind:
Aussen-T/F 2101 02-01-2020 07:00:00 0.2 C 4.72 g/m*3 -1.95 C 6.4 km/h
2102 02-01-2020 07:05:00 0.2 C 4.72 g/m*3 0.2 C 4.8 km/h
2103 02-01-2020 07:10:00 0.1 C 4.68 g/m*3 -2.07 C 6.4 km/h
2104 02-01-2020 07:15:00 0.1 C 4.68 g/m*3 -2.65 C 8.1 km/h
2105 02-01-2020 07:20:00 0.1 C 4.68 g/m*3 -4.49 C 16.1 km/h
2106 02-01-2020 07:25:00 0.1 C 4.68 g/m*3 0.1 C 3.2 km/h
2107 02-01-2020 07:30:00 0.1 C 4.68 g/m*3 0.1 C 0 km/h
2108 02-01-2020 07:35:00 0.2 C 4.72 g/m*3 -2.53 C 8.1 km/h
2109 02-01-2020 07:40:00 0.2 C 4.67 g/m*3 0.2 C 3.2 km/h
2110 02-01-2020 07:45:00 0.2 C 4.67 g/m*3 0.2 C 1.6 km/h
2111 02-01-2020 07:50:00 0.2 C 4.67 g/m*3 0.2 C 1.6 km/h
2112 02-01-2020 07:55:00 0.2 C 4.67 g/m*3 0.2 C 0 km/h
2113 02-01-2020 08:00:00 0.2 C 4.67 g/m*3 0.2 C 1.6 km/h
2114 02-01-2020 08:05:00 0.3 C 4.7 g/m*3 0.3 C 1.6 km/h
2115 02-01-2020 08:10:00 0.3 C 4.75 g/m*3 0.3 C 1.6 km/h
2116 02-01-2020 08:15:00 0.3 C 4.75 g/m*3 0.3 C 3.2 km/h
2117 02-01-2020 08:20:00 0.4 C 4.73 g/m*3 0.4 C 1.6 km/h
2118 02-01-2020 08:25:00 0.4 C 4.73 g/m*3 0.4 C 0 km/h
2119 02-01-2020 08:30:00 0.5 C 4.76 g/m*3 0.5 C 0 km/h
2120 02-01-2020 08:35:00 0.6 C 4.8 g/m*3 0.6 C 0 km/h
2121 02-01-2020 08:40:00 0.6 C 4.8 g/m*3 0.6 C 0 km/h
2122 02-01-2020 08:45:00 0.6 C 4.8 g/m*3 0.6 C 0 km/h
2123 02-01-2020 08:50:00 0.6 C 4.8 g/m*3 0.6 C 0 km/h
2124 02-01-2020 08:55:00 0.7 C 4.83 g/m*3 0.7 C 0 km/h
2125 02-01-2020 09:00:00 0.7 C 4.83 g/m*3 0.7 C 0 km/h
Sensor: Nr:Datum:Temp:Abs-Feuchte:Windchill:Wind:
Aussen-T/F 2126 02-01-2020 09:05:00 0.7 C 4.83 g/m*3 0.7 C 3.2 km/h
2127 02-01-2020 09:10:00 0.7 C 4.83 g/m*3 0.7 C 1.6 km/h
2128 02-01-2020 09:15:00 0.8 C 4.86 g/m*3 0.8 C 1.6 km/h
2129 02-01-2020 09:20:00 0.8 C 4.86 g/m*3 0.8 C 3.2 km/h
2130 02-01-2020 09:25:00 0.9 C 4.9 g/m*3 0.9 C 0 km/h
2131 02-01-2020 09:30:00 0.9 C 4.9 g/m*3 0.9 C 3.2 km/h
2132 02-01-2020 09:35:00 1 C 4.93 g/m*3 1 C 3.2 km/h
2133 02-01-2020 09:40:00 1.1 C 4.96 g/m*3 1.1 C 3.2 km/h
2134 02-01-2020 09:45:00 1.1 C 4.96 g/m*3 1.1 C 4.8 km/h
2135 02-01-2020 09:50:00 1.2 C 5 g/m*3 1.2 C 0 km/h
2136 02-01-2020 09:55:00 1.2 C 5 g/m*3 1.2 C 0 km/h
2137 02-01-2020 10:00:00 1.2 C 5 g/m*3 1.2 C 0 km/h
2138 02-01-2020 10:05:00 1.2 C 5 g/m*3 1.2 C 0 km/h
2139 02-01-2020 10:10:00 1.2 C 5 g/m*3 1.2 C 0 km/h
2140 02-01-2020 10:15:00 1.2 C 5 g/m*3 1.2 C 0 km/h
2141 02-01-2020 10:20:00 1.3 C 5.03 g/m*3 1.3 C 0 km/h
2142 02-01-2020 10:25:00 1.3 C 5.03 g/m*3 1.3 C 0 km/h
2143 02-01-2020 10:30:00 1.4 C 5.07 g/m*3 1.4 C 0 km/h
2144 02-01-2020 10:35:00 1.4 C 5.07 g/m*3 1.4 C 0 km/h
2145 02-01-2020 10:40:00 1.4 C 5.07 g/m*3 1.4 C 0 km/h
2146 02-01-2020 10:45:00 1.5 C 5.1 g/m*3 1.5 C 0 km/h
2147 02-01-2020 10:50:00 1.6 C 5.14 g/m*3 1.6 C 0 km/h
2148 02-01-2020 10:55:00 1.7 C 5.17 g/m*3 1.7 C 0 km/h
2149 02-01-2020 11:00:00 1.7 C 5.17 g/m*3 1.7 C 0 km/h
2150 02-01-2020 11:05:00 1.8 C 5.21 g/m*3 1.8 C 0 km/h
Sensor: Nr:Datum:Temp:Abs-Feuchte:Windchill:Wind:
Aussen-T/F 2151 02-01-2020 11:10:00 1.8 C 5.21 g/m*3 1.8 C 3.2 km/h
2152 02-01-2020 11:15:00 1.8 C 5.15 g/m*3 1.8 C 1.6 km/h
2153 02-01-2020 11:20:00 1.9 C 5.19 g/m*3 1.9 C 0 km/h
2154 02-01-2020 11:25:00 2 C 5.22 g/m*3 2 C 0 km/h
2155 02-01-2020 11:30:00 2.1 C 5.2 g/m*3 2.1 C 0 km/h
2156 02-01-2020 11:35:00 2.1 C 5.2 g/m*3 2.1 C 0 km/h
2157 02-01-2020 11:40:00 2.2 C 5.24 g/m*3 2.2 C 0 km/h
2158 02-01-2020 11:45:00 2.2 C 5.24 g/m*3 2.2 C 0 km/h
2159 02-01-2020 11:50:00 2.3 C 5.27 g/m*3 2.3 C 0 km/h
2160 02-01-2020 11:55:00 2.3 C 5.27 g/m*3 2.3 C 0 km/h
2161 02-01-2020 12:00:00 2.4 C 5.31 g/m*3 2.4 C 0 km/h
2162 02-01-2020 12:05:00 2.4 C 5.25 g/m*3 2.4 C 0 km/h
2163 02-01-2020 12:10:00 2.4 C 5.25 g/m*3 2.4 C 0 km/h
2164 02-01-2020 12:15:00 2.6 C 5.32 g/m*3 2.6 C 1.6 km/h
2165 02-01-2020 12:20:00 2.6 C 5.38 g/m*3 2.6 C 3.2 km/h
2166 02-01-2020 12:25:00 2.7 C 5.42 g/m*3 2.7 C 0 km/h
2167 02-01-2020 12:30:00 2.8 C 5.4 g/m*3 2.8 C 1.6 km/h
2168 02-01-2020 12:35:00 2.8 C 5.4 g/m*3 2.8 C 1.6 km/h
2169 02-01-2020 12:40:00 2.8 C 5.4 g/m*3 2.8 C 0 km/h
2170 02-01-2020 12:45:00 2.9 C 5.43 g/m*3 2.9 C 0 km/h
2171 02-01-2020 12:50:00 2.9 C 5.43 g/m*3 2.9 C 3.2 km/h
2172 02-01-2020 12:55:00 3 C 5.47 g/m*3 3 C 0 km/h
2173 02-01-2020 13:00:00 3 C 5.41 g/m*3 3 C 0 km/h
2174 02-01-2020 13:05:00 3 C 5.41 g/m*3 3 C 0 km/h
2175 02-01-2020 13:10:00 3.1 C 5.51 g/m*3 3.1 C 1.6 km/h
Sensor: Nr:Datum:Temp:Abs-Feuchte:Windchill:Wind:
Aussen-T/F 2176 02-01-2020 13:15:00 3.1 C 5.51 g/m*3 3.1 C 0 km/h
2177 02-01-2020 13:20:00 3.2 C 5.48 g/m*3 3.2 C 0 km/h
2178 02-01-2020 13:25:00 3.2 C 5.48 g/m*3 3.2 C 1.6 km/h
2179 02-01-2020 13:30:00 3.2 C 5.48 g/m*3 3.2 C 1.6 km/h
2180 02-01-2020 13:35:00 3.3 C 5.52 g/m*3 3.3 C 0 km/h
2181 02-01-2020 13:40:00 3.3 C 5.52 g/m*3 3.3 C 3.2 km/h
2182 02-01-2020 13:45:00 3.3 C 5.52 g/m*3 3.3 C 1.6 km/h
2183 02-01-2020 13:50:00 3.3 C 5.52 g/m*3 3.3 C 1.6 km/h
2184 02-01-2020 13:55:00 3.3 C 5.52 g/m*3 3.3 C 3.2 km/h
2185 02-01-2020 14:00:00 3.4 C 5.56 g/m*3 3.4 C 3.2 km/h
2186 02-01-2020 14:05:00 3.5 C 5.66 g/m*3 3.5 C 1.6 km/h
2187 02-01-2020 14:10:00 3.5 C 5.6 g/m*3 3.5 C 0 km/h
2188 02-01-2020 14:15:00 3.5 C 5.66 g/m*3 3.5 C 0 km/h
2189 02-01-2020 14:20:00 3.6 C 5.63 g/m*3 3.6 C 0 km/h
2190 02-01-2020 14:25:00 3.6 C 5.69 g/m*3 3.6 C 0 km/h
2191 02-01-2020 14:30:00 3.6 C 5.69 g/m*3 3.6 C 0 km/h
2192 02-01-2020 14:35:00 3.7 C 5.73 g/m*3 3.7 C 0 km/h
2193 02-01-2020 14:40:00 3.7 C 5.73 g/m*3 3.7 C 0 km/h
2194 02-01-2020 14:45:00 3.7 C 5.73 g/m*3 3.7 C 0 km/h
2195 02-01-2020 14:50:00 3.7 C 5.73 g/m*3 3.7 C 3.2 km/h
2196 02-01-2020 14:55:00 3.7 C 5.73 g/m*3 3.7 C 1.6 km/h
2197 02-01-2020 15:00:00 3.7 C 5.73 g/m*3 3.7 C 0 km/h
2198 02-01-2020 15:05:00 3.7 C 5.73 g/m*3 3.7 C 0 km/h
2199 02-01-2020 15:10:00 3.6 C 5.69 g/m*3 3.6 C 4.8 km/h
2200 02-01-2020 15:15:00 3.6 C 5.69 g/m*3 3.6 C 1.6 km/h
Sensor: Nr:Datum:Temp:Abs-Feuchte:Windchill:Wind:
Aussen-T/F 2201 02-01-2020 15:20:00 3.5 C 5.66 g/m*3 3.5 C 4.8 km/h
2202 02-01-2020 15:25:00 3.4 C 5.62 g/m*3 3.4 C 1.6 km/h
2203 02-01-2020 15:30:00 3.4 C 5.62 g/m*3 3.4 C 0 km/h
2204 02-01-2020 15:35:00 3.4 C 5.62 g/m*3 3.4 C 0 km/h
2205 02-01-2020 15:40:00 3.4 C 5.62 g/m*3 3.4 C 0 km/h
2206 02-01-2020 15:45:00 3.3 C 5.58 g/m*3 3.3 C 0 km/h
2207 02-01-2020 15:50:00 3.3 C 5.58 g/m*3 3.3 C 3.2 km/h
2208 02-01-2020 15:55:00 3.3 C 5.64 g/m*3 3.3 C 3.2 km/h
2209 02-01-2020 16:00:00 3.3 C 5.64 g/m*3 3.3 C 3.2 km/h
2210 02-01-2020 16:05:00 3.2 C 5.6 g/m*3 3.2 C 1.6 km/h
2211 02-01-2020 16:10:00 3.2 C 5.6 g/m*3 3.2 C 0 km/h
2212 02-01-2020 16:15:00 3.2 C 5.6 g/m*3 3.2 C 0 km/h
2213 02-01-2020 16:20:00 3.2 C 5.6 g/m*3 3.2 C 0 km/h
2214 02-01-2020 16:25:00 3.2 C 5.6 g/m*3 3.2 C 0 km/h
2215 02-01-2020 16:30:00 3.2 C 5.6 g/m*3 3.2 C 0 km/h
2216 02-01-2020 16:35:00 3.1 C 5.57 g/m*3 3.1 C 0 km/h
2217 02-01-2020 16:40:00 3.1 C 5.57 g/m*3 3.1 C 0 km/h
2218 02-01-2020 16:45:00 3.1 C 5.57 g/m*3 3.1 C 0 km/h
2219 02-01-2020 16:50:00 3.1 C 5.57 g/m*3 3.1 C 0 km/h
2220 02-01-2020 16:55:00 3.1 C 5.57 g/m*3 3.1 C 0 km/h
2221 02-01-2020 17:00:00 3.1 C 5.57 g/m*3 3.1 C 0 km/h
2222 02-01-2020 17:05:00 3.1 C 5.57 g/m*3 3.1 C 0 km/h
2223 02-01-2020 17:10:00 3.1 C 5.57 g/m*3 3.1 C 0 km/h
2224 02-01-2020 17:15:00 3.1 C 5.57 g/m*3 3.1 C 0 km/h
2225 02-01-2020 17:20:00 3 C 5.59 g/m*3 3 C 0 km/h
Sensor: Nr:Datum:Temp:Abs-Feuchte:Windchill:Wind:
Aussen-T/F 2226 02-01-2020 17:25:00 3 C 5.59 g/m*3 3 C 0 km/h
2227 02-01-2020 17:30:00 3 C 5.59 g/m*3 3 C 0 km/h
2228 02-01-2020 17:35:00 3 C 5.59 g/m*3 3 C 0 km/h
2229 02-01-2020 17:40:00 3 C 5.59 g/m*3 3 C 0 km/h
2230 02-01-2020 17:45:00 3 C 5.59 g/m*3 3 C 0 km/h
2231 02-01-2020 17:50:00 3 C 5.59 g/m*3 3 C 0 km/h
2232 02-01-2020 17:55:00 2.9 C 5.55 g/m*3 2.9 C 0 km/h
2233 02-01-2020 18:00:00 2.9 C 5.55 g/m*3 2.9 C 0 km/h
2234 02-01-2020 18:05:00 2.9 C 5.55 g/m*3 2.9 C 0 km/h
2235 02-01-2020 18:10:00 2.9 C 5.55 g/m*3 2.9 C 0 km/h
2236 02-01-2020 18:15:00 2.9 C 5.55 g/m*3 2.9 C 0 km/h
2237 02-01-2020 18:20:00 2.9 C 5.55 g/m*3 2.9 C 0 km/h
2238 02-01-2020 18:25:00 2.9 C 5.55 g/m*3 2.9 C 0 km/h
2239 02-01-2020 18:30:00 2.9 C 5.55 g/m*3 2.9 C 0 km/h
2240 02-01-2020 18:35:00 2.9 C 5.55 g/m*3 2.9 C 0 km/h
2241 02-01-2020 18:40:00 2.9 C 5.55 g/m*3 2.9 C 0 km/h
2242 02-01-2020 18:45:00 2.9 C 5.55 g/m*3 2.9 C 0 km/h
2243 02-01-2020 18:50:00 2.9 C 5.55 g/m*3 2.9 C 0 km/h
2244 02-01-2020 18:55:00 2.9 C 5.61 g/m*3 2.9 C 0 km/h
2245 02-01-2020 19:00:00 3 C 5.65 g/m*3 3 C 0 km/h
2246 02-01-2020 19:05:00 3 C 5.65 g/m*3 3 C 0 km/h
2247 02-01-2020 19:10:00 3 C 5.65 g/m*3 3 C 0 km/h
2248 02-01-2020 19:15:00 3.1 C 5.69 g/m*3 3.1 C 0 km/h
2249 02-01-2020 19:20:00 3.1 C 5.69 g/m*3 3.1 C 0 km/h
2250 02-01-2020 19:25:00 3.1 C 5.69 g/m*3 3.1 C 0 km/h
Sensor: Nr:Datum:Temp:Abs-Feuchte:Windchill:Wind:
Aussen-T/F 2251 02-01-2020 19:30:00 3.1 C 5.69 g/m*3 3.1 C 0 km/h
2252 02-01-2020 19:35:00 3.1 C 5.69 g/m*3 3.1 C 0 km/h
2253 02-01-2020 19:40:00 3.1 C 5.69 g/m*3 3.1 C 0 km/h
2254 02-01-2020 19:45:00 3.1 C 5.69 g/m*3 3.1 C 0 km/h
2255 02-01-2020 19:50:00 3.1 C 5.69 g/m*3 3.1 C 0 km/h
2256 02-01-2020 19:55:00 3.1 C 5.69 g/m*3 3.1 C 0 km/h
2257 02-01-2020 20:00:00 3.1 C 5.69 g/m*3 3.1 C 0 km/h
2258 02-01-2020 20:05:00 3.1 C 5.69 g/m*3 3.1 C 0 km/h
2259 02-01-2020 20:10:00 3.1 C 5.69 g/m*3 3.1 C 0 km/h
2260 02-01-2020 20:15:00 3.2 C 5.72 g/m*3 3.2 C 0 km/h
2261 02-01-2020 20:20:00 3.2 C 5.72 g/m*3 3.2 C 0 km/h
2262 02-01-2020 20:25:00 3.2 C 5.72 g/m*3 3.2 C 0 km/h
2263 02-01-2020 20:30:00 3.2 C 5.72 g/m*3 3.2 C 0 km/h
2264 02-01-2020 20:35:00 3.2 C 5.72 g/m*3 3.2 C 0 km/h
2265 02-01-2020 20:40:00 3.2 C 5.72 g/m*3 3.2 C 0 km/h
2266 02-01-2020 20:45:00 3.3 C 5.76 g/m*3 3.3 C 0 km/h
2267 02-01-2020 20:50:00 3.3 C 5.76 g/m*3 3.3 C 0 km/h
2268 02-01-2020 20:55:00 3.3 C 5.76 g/m*3 3.3 C 0 km/h
2269 02-01-2020 21:00:00 3.3 C 5.76 g/m*3 3.3 C 0 km/h
2270 02-01-2020 21:05:00 3.3 C 5.76 g/m*3 3.3 C 0 km/h
2271 02-01-2020 21:10:00 3.3 C 5.76 g/m*3 3.3 C 0 km/h
2272 02-01-2020 21:15:00 3.3 C 5.76 g/m*3 3.3 C 0 km/h
2273 02-01-2020 21:20:00 3.3 C 5.76 g/m*3 3.3 C 0 km/h
2274 02-01-2020 21:25:00 3.3 C 5.76 g/m*3 3.3 C 0 km/h
2275 02-01-2020 21:30:00 3.3 C 5.76 g/m*3 3.3 C 0 km/h
Sensor: Nr:Datum:Temp:Abs-Feuchte:Windchill:Wind:
Aussen-T/F 2276 02-01-2020 21:35:00 3.3 C 5.76 g/m*3 3.3 C 0 km/h
2277 02-01-2020 21:40:00 3.3 C 5.76 g/m*3 3.3 C 0 km/h
2278 02-01-2020 21:45:00 3.3 C 5.76 g/m*3 3.3 C 0 km/h
2279 02-01-2020 21:50:00 3.3 C 5.76 g/m*3 3.3 C 0 km/h
2280 02-01-2020 21:55:00 3.1 C 5.69 g/m*3 3.1 C 0 km/h
2281 02-01-2020 22:00:00 3 C 5.65 g/m*3 3 C 0 km/h
2282 02-01-2020 22:05:00 3 C 5.65 g/m*3 3 C 0 km/h
2283 02-01-2020 22:10:00 3.1 C 5.69 g/m*3 3.1 C 0 km/h
2284 02-01-2020 22:15:00 3.1 C 5.69 g/m*3 3.1 C 0 km/h
2285 02-01-2020 22:20:00 3.2 C 5.72 g/m*3 3.2 C 0 km/h
2286 02-01-2020 22:25:00 3.2 C 5.79 g/m*3 3.2 C 0 km/h
2287 02-01-2020 22:30:00 3.2 C 5.79 g/m*3 3.2 C 0 km/h
2288 02-01-2020 22:35:00 3.3 C 5.82 g/m*3 3.3 C 0 km/h
2289 02-01-2020 22:40:00 3.3 C 5.82 g/m*3 3.3 C 0 km/h
2290 02-01-2020 22:45:00 3.4 C 5.86 g/m*3 3.4 C 0 km/h
2291 02-01-2020 22:50:00 3.4 C 5.86 g/m*3 3.4 C 0 km/h
2292 02-01-2020 22:55:00 3.4 C 5.86 g/m*3 3.4 C 0 km/h
2293 02-01-2020 23:00:00 3.5 C 5.9 g/m*3 3.5 C 0 km/h
2294 02-01-2020 23:05:00 3.6 C 5.94 g/m*3 3.6 C 0 km/h
2295 02-01-2020 23:10:00 3.6 C 5.94 g/m*3 3.6 C 0 km/h
2296 02-01-2020 23:15:00 3.6 C 5.94 g/m*3 3.6 C 0 km/h
2297 02-01-2020 23:20:00 3.7 C 5.98 g/m*3 3.7 C 0 km/h
2298 02-01-2020 23:25:00 3.7 C 5.98 g/m*3 3.7 C 0 km/h
2299 02-01-2020 23:30:00 3.7 C 5.98 g/m*3 3.7 C 0 km/h
2300 02-01-2020 23:35:00 3.7 C 5.98 g/m*3 3.7 C 0 km/h
Sensor: Nr:Datum:Temp:Abs-Feuchte:Windchill:Wind:
Aussen-T/F 2301 02-01-2020 23:40:00 3.7 C 5.98 g/m*3 3.7 C 0 km/h
2302 02-01-2020 23:45:00 3.7 C 5.98 g/m*3 3.7 C 0 km/h
2303 02-01-2020 23:50:00 3.7 C 5.98 g/m*3 3.7 C 0 km/h
2304 02-01-2020 23:55:00 3.7 C 5.98 g/m*3 3.7 C 0 km/h
2305 03-01-2020 00:00:00 3.7 C 5.98 g/m*3 3.7 C 0 km/h
2306 03-01-2020 00:05:00 3.7 C 5.98 g/m*3 3.7 C 0 km/h
2307 03-01-2020 00:10:00 3.7 C 5.98 g/m*3 3.7 C 0 km/h
2308 03-01-2020 00:15:00 3.7 C 5.98 g/m*3 3.7 C 0 km/h
2309 03-01-2020 00:20:00 3.7 C 5.98 g/m*3 3.7 C 0 km/h
2310 03-01-2020 00:25:00 3.8 C 6.02 g/m*3 3.8 C 0 km/h
2311 03-01-2020 00:30:00 3.8 C 6.02 g/m*3 3.8 C 0 km/h
2312 03-01-2020 00:35:00 3.8 C 6.02 g/m*3 3.8 C 0 km/h
2313 03-01-2020 00:40:00 3.9 C 6.06 g/m*3 3.9 C 0 km/h
2314 03-01-2020 00:45:00 3.9 C 6.06 g/m*3 3.9 C 0 km/h
2315 03-01-2020 00:50:00 4 C 6.1 g/m*3 4 C 0 km/h
2316 03-01-2020 00:55:00 4.1 C 6.14 g/m*3 4.1 C 0 km/h
2317 03-01-2020 01:00:00 4.1 C 6.14 g/m*3 4.1 C 0 km/h
2318 03-01-2020 01:05:00 4.1 C 6.14 g/m*3 4.1 C 0 km/h
2319 03-01-2020 01:10:00 4.2 C 6.19 g/m*3 4.2 C 0 km/h
2320 03-01-2020 01:15:00 4.2 C 6.19 g/m*3 4.2 C 0 km/h
2321 03-01-2020 01:20:00 4.2 C 6.19 g/m*3 4.2 C 0 km/h
2322 03-01-2020 01:25:00 4.3 C 6.23 g/m*3 4.3 C 0 km/h
2323 03-01-2020 01:30:00 4.3 C 6.23 g/m*3 4.3 C 0 km/h
2324 03-01-2020 01:35:00 4.3 C 6.23 g/m*3 4.3 C 0 km/h
2325 03-01-2020 01:40:00 4.3 C 6.23 g/m*3 4.3 C 0 km/h
Sensor: Nr:Datum:Temp:Abs-Feuchte:Windchill:Wind:
Aussen-T/F 2326 03-01-2020 01:45:00 4.3 C 6.23 g/m*3 4.3 C 0 km/h
2327 03-01-2020 01:50:00 4.3 C 6.23 g/m*3 4.3 C 0 km/h
2328 03-01-2020 01:55:00 4.3 C 6.23 g/m*3 4.3 C 0 km/h
2329 03-01-2020 02:00:00 4.4 C 6.27 g/m*3 4.4 C 0 km/h
2330 03-01-2020 02:05:00 4.4 C 6.27 g/m*3 4.4 C 0 km/h
2331 03-01-2020 02:10:00 4.5 C 6.31 g/m*3 4.5 C 0 km/h
2332 03-01-2020 02:15:00 4.5 C 6.31 g/m*3 4.5 C 0 km/h
2333 03-01-2020 02:20:00 4.5 C 6.31 g/m*3 4.5 C 0 km/h
2334 03-01-2020 02:25:00 4.5 C 6.31 g/m*3 4.5 C 0 km/h
2335 03-01-2020 02:30:00 4.6 C 6.35 g/m*3 4.6 C 0 km/h
2336 03-01-2020 02:35:00 4.6 C 6.35 g/m*3 4.6 C 0 km/h
2337 03-01-2020 02:40:00 4.6 C 6.35 g/m*3 4.6 C 0 km/h
2338 03-01-2020 02:45:00 4.6 C 6.35 g/m*3 4.6 C 0 km/h
2339 03-01-2020 02:50:00 4.6 C 6.35 g/m*3 4.6 C 0 km/h
2340 03-01-2020 02:55:00 4.6 C 6.35 g/m*3 4.6 C 0 km/h
2341 03-01-2020 03:00:00 4.6 C 6.35 g/m*3 4.6 C 0 km/h
2342 03-01-2020 03:05:00 4.7 C 6.46 g/m*3 4.7 C 0 km/h
2343 03-01-2020 03:10:00 4.7 C 6.46 g/m*3 4.7 C 0 km/h
2344 03-01-2020 03:15:00 4.8 C 6.5 g/m*3 4.8 C 0 km/h
2345 03-01-2020 03:20:00 4.8 C 6.5 g/m*3 4.8 C 0 km/h
2346 03-01-2020 03:25:00 4.8 C 6.5 g/m*3 4.8 C 0 km/h
2347 03-01-2020 03:30:00 4.8 C 6.5 g/m*3 4.8 C 0 km/h
2348 03-01-2020 03:35:00 4.8 C 6.5 g/m*3 4.8 C 0 km/h
2349 03-01-2020 03:40:00 4.8 C 6.5 g/m*3 4.8 C 0 km/h
2350 03-01-2020 03:45:00 4.8 C 6.5 g/m*3 4.8 C 0 km/h
Sensor: Nr:Datum:Temp:Abs-Feuchte:Windchill:Wind:
Aussen-T/F 2351 03-01-2020 03:50:00 4.8 C 6.5 g/m*3 4.8 C 0 km/h
2352 03-01-2020 03:55:00 4.8 C 6.5 g/m*3 4.8 C 0 km/h
2353 03-01-2020 04:00:00 4.8 C 6.5 g/m*3 4.8 C 0 km/h
2354 03-01-2020 04:05:00 4.8 C 6.5 g/m*3 4.8 C 0 km/h
2355 03-01-2020 04:10:00 4.8 C 6.5 g/m*3 4.8 C 0 km/h
2356 03-01-2020 04:15:00 4.8 C 6.5 g/m*3 4.8 C 0 km/h
2357 03-01-2020 04:20:00 4.8 C 6.5 g/m*3 4.8 C 0 km/h
2358 03-01-2020 04:25:00 4.9 C 6.55 g/m*3 4.9 C 0 km/h
2359 03-01-2020 04:30:00 4.9 C 6.55 g/m*3 4.9 C 3.2 km/h
2360 03-01-2020 04:35:00 4.9 C 6.55 g/m*3 4.9 C 0 km/h
2361 03-01-2020 04:40:00 4.9 C 6.55 g/m*3 4.9 C 0 km/h
2362 03-01-2020 04:45:00 4.9 C 6.55 g/m*3 4.9 C 0 km/h
2363 03-01-2020 04:50:00 4.9 C 6.55 g/m*3 4.9 C 3.2 km/h
2364 03-01-2020 04:55:00 5 C 6.59 g/m*3 5 C 1.6 km/h
2365 03-01-2020 05:00:00 5 C 6.59 g/m*3 3.59 C 6.4 km/h
2366 03-01-2020 05:05:00 5 C 6.59 g/m*3 5 C 3.2 km/h
2367 03-01-2020 05:10:00 5.1 C 6.63 g/m*3 5.1 C 1.6 km/h
2368 03-01-2020 05:15:00 5.1 C 6.63 g/m*3 5.1 C 4.8 km/h
2369 03-01-2020 05:20:00 5.1 C 6.63 g/m*3 5.1 C 0 km/h
2370 03-01-2020 05:25:00 5.1 C 6.63 g/m*3 5.1 C 0 km/h
2371 03-01-2020 05:30:00 5.1 C 6.63 g/m*3 5.1 C 0 km/h
2372 03-01-2020 05:35:00 5.1 C 6.63 g/m*3 5.1 C 0 km/h
2373 03-01-2020 05:40:00 5.1 C 6.63 g/m*3 5.1 C 0 km/h
2374 03-01-2020 05:45:00 5.1 C 6.63 g/m*3 5.1 C 0 km/h
2375 03-01-2020 05:50:00 5.1 C 6.57 g/m*3 5.1 C 0 km/h
Sensor: Nr:Datum:Temp:Abs-Feuchte:Windchill:Wind:
Aussen-T/F 2376 03-01-2020 05:55:00 5.1 C 6.57 g/m*3 5.1 C 0 km/h
2377 03-01-2020 06:00:00 5.1 C 6.57 g/m*3 5.1 C 0 km/h
2378 03-01-2020 06:05:00 5.1 C 6.57 g/m*3 5.1 C 0 km/h
2379 03-01-2020 06:10:00 5.1 C 6.57 g/m*3 5.1 C 0 km/h
2380 03-01-2020 06:15:00 5.1 C 6.57 g/m*3 5.1 C 0 km/h
2381 03-01-2020 06:20:00 5.1 C 6.57 g/m*3 5.1 C 0 km/h
2382 03-01-2020 06:25:00 5.1 C 6.57 g/m*3 5.1 C 1.6 km/h
2383 03-01-2020 06:30:00 5.2 C 6.61 g/m*3 5.2 C 4.8 km/h
2384 03-01-2020 06:35:00 5.3 C 6.65 g/m*3 5.3 C 1.6 km/h
2385 03-01-2020 06:40:00 5.4 C 6.77 g/m*3 5.4 C 4.8 km/h
2386 03-01-2020 06:45:00 5.8 C 6.95 g/m*3 4.52 C 6.4 km/h
2387 03-01-2020 06:50:00 6.2 C 7.13 g/m*3 6.2 C 4.8 km/h
2388 03-01-2020 06:55:00 6.6 C 7.32 g/m*3 4.04 C 12.9 km/h
2389 03-01-2020 07:00:00 6.9 C 7.47 g/m*3 3.73 C 17.7 km/h
2390 03-01-2020 07:05:00 7.2 C 7.54 g/m*3 4.53 C 14.5 km/h
2391 03-01-2020 07:10:00 7.4 C 7.55 g/m*3 5.02 C 12.9 km/h
2392 03-01-2020 07:15:00 7.7 C 7.54 g/m*3 5.38 C 12.9 km/h
2393 03-01-2020 07:20:00 7.8 C 7.59 g/m*3 5.51 C 12.9 km/h
2394 03-01-2020 07:25:00 8 C 7.61 g/m*3 4.93 C 19.3 km/h
2395 03-01-2020 07:30:00 8.1 C 7.57 g/m*3 7.17 C 6.4 km/h
2396 03-01-2020 07:35:00 8.2 C 7.54 g/m*3 5.36 C 17.7 km/h
2397 03-01-2020 07:40:00 8.3 C 7.59 g/m*3 6.99 C 8.1 km/h
2398 03-01-2020 07:45:00 8.3 C 7.5 g/m*3 6.99 C 8.1 km/h
2399 03-01-2020 07:50:00 8.3 C 7.5 g/m*3 7.41 C 6.4 km/h
2400 03-01-2020 07:55:00 8.3 C 7.5 g/m*3 6.99 C 8.1 km/h
Sensor: Nr:Datum:Temp:Abs-Feuchte:Windchill:Wind:
Aussen-T/F 2401 03-01-2020 08:00:00 8.3 C 7.5 g/m*3 8.3 C 3.2 km/h
2402 03-01-2020 08:05:00 8.3 C 7.5 g/m*3 6.99 C 8.1 km/h
2403 03-01-2020 08:10:00 8.3 C 7.5 g/m*3 6.12 C 12.9 km/h
2404 03-01-2020 08:15:00 8.3 C 7.42 g/m*3 6.37 C 11.3 km/h
2405 03-01-2020 08:20:00 8.4 C 7.47 g/m*3 6.49 C 11.3 km/h
2406 03-01-2020 08:25:00 8.4 C 7.47 g/m*3 7.52 C 6.4 km/h
2407 03-01-2020 08:30:00 8.4 C 7.47 g/m*3 7.52 C 6.4 km/h
2408 03-01-2020 08:35:00 8.3 C 7.42 g/m*3 8.3 C 3.2 km/h
2409 03-01-2020 08:40:00 8.3 C 7.42 g/m*3 6.66 C 9.7 km/h
2410 03-01-2020 08:45:00 8.4 C 7.47 g/m*3 8.4 C 4.8 km/h
2411 03-01-2020 08:50:00 8.3 C 7.42 g/m*3 6.99 C 8.1 km/h
2412 03-01-2020 08:55:00 8.4 C 7.38 g/m*3 5.8 C 16.1 km/h
2413 03-01-2020 09:00:00 8.5 C 7.43 g/m*3 6.36 C 12.9 km/h
2414 03-01-2020 09:05:00 8.5 C 7.43 g/m*3 7.22 C 8.1 km/h
2415 03-01-2020 09:10:00 8.6 C 7.48 g/m*3 7.01 C 9.7 km/h
2416 03-01-2020 09:15:00 8.6 C 7.39 g/m*3 6.73 C 11.3 km/h
2417 03-01-2020 09:20:00 8.7 C 7.44 g/m*3 6.85 C 11.3 km/h
2418 03-01-2020 09:25:00 8.7 C 7.44 g/m*3 7.13 C 9.7 km/h
2419 03-01-2020 09:30:00 8.7 C 7.44 g/m*3 6.85 C 11.3 km/h
2420 03-01-2020 09:35:00 8.7 C 7.44 g/m*3 6.6 C 12.9 km/h
2421 03-01-2020 09:40:00 8.7 C 7.35 g/m*3 7.13 C 9.7 km/h
2422 03-01-2020 09:45:00 8.8 C 7.49 g/m*3 7.58 C 8.1 km/h
2423 03-01-2020 09:50:00 8.8 C 7.4 g/m*3 7.58 C 8.1 km/h
2424 03-01-2020 09:55:00 8.8 C 7.4 g/m*3 7.25 C 9.7 km/h
2425 03-01-2020 10:00:00 8.8 C 7.4 g/m*3 6.5 C 14.5 km/h
Sensor: Nr:Datum:Temp:Abs-Feuchte:Windchill:Wind:
Aussen-T/F 2426 03-01-2020 10:05:00 8.9 C 7.45 g/m*3 6.06 C 19.3 km/h
2427 03-01-2020 10:10:00 8.9 C 7.45 g/m*3 6.23 C 17.7 km/h
2428 03-01-2020 10:15:00 8.9 C 7.45 g/m*3 7.09 C 11.3 km/h
2429 03-01-2020 10:20:00 8.9 C 7.45 g/m*3 6.23 C 17.7 km/h
2430 03-01-2020 10:25:00 9 C 7.41 g/m*3 6.54 C 16.1 km/h
2431 03-01-2020 10:30:00 9 C 7.41 g/m*3 6.36 C 17.7 km/h
2432 03-01-2020 10:35:00 9 C 7.41 g/m*3 6.54 C 16.1 km/h
2433 03-01-2020 10:40:00 8.9 C 7.36 g/m*3 7.09 C 11.3 km/h
2434 03-01-2020 10:45:00 8.9 C 7.45 g/m*3 6.42 C 16.1 km/h
2435 03-01-2020 10:50:00 8.9 C 7.45 g/m*3 6.23 C 17.7 km/h
2436 03-01-2020 10:55:00 8.9 C 7.45 g/m*3 5.9 C 20.9 km/h
2437 03-01-2020 11:00:00 8.9 C 7.45 g/m*3 5.9 C 20.9 km/h
2438 03-01-2020 11:05:00 8.8 C 7.4 g/m*3 5.62 C 22.5 km/h
2439 03-01-2020 11:10:00 8.8 C 7.4 g/m*3 5.34 C 25.7 km/h
2440 03-01-2020 11:15:00 8.8 C 7.4 g/m*3 5.48 C 24.1 km/h
2441 03-01-2020 11:20:00 8.9 C 7.45 g/m*3 5.9 C 20.9 km/h
2442 03-01-2020 11:25:00 8.9 C 7.45 g/m*3 6.06 C 19.3 km/h
2443 03-01-2020 11:30:00 9 C 7.49 g/m*3 5.34 C 29 km/h
2444 03-01-2020 11:35:00 9.1 C 7.54 g/m*3 7.33 C 11.3 km/h
2445 03-01-2020 11:40:00 9.2 C 7.59 g/m*3 5.72 C 27.4 km/h
2446 03-01-2020 11:45:00 9.2 C 7.59 g/m*3 6.13 C 22.5 km/h
2447 03-01-2020 11:50:00 9.2 C 7.59 g/m*3 6.28 C 20.9 km/h
2448 03-01-2020 11:55:00 9.1 C 7.54 g/m*3 5.73 C 25.7 km/h
2449 03-01-2020 12:00:00 9.1 C 7.54 g/m*3 6.31 C 19.3 km/h
2450 03-01-2020 12:05:00 9 C 7.49 g/m*3 5.87 C 22.5 km/h
Sensor: Nr:Datum:Temp:Abs-Feuchte:Windchill:Wind:
Aussen-T/F 2451 03-01-2020 12:10:00 8.9 C 7.53 g/m*3 6.06 C 19.3 km/h
2452 03-01-2020 12:15:00 8.9 C 7.53 g/m*3 5.21 C 29 km/h
2453 03-01-2020 12:20:00 8.8 C 7.49 g/m*3 5.48 C 24.1 km/h
2454 03-01-2020 12:25:00 8.9 C 7.53 g/m*3 5.6 C 24.1 km/h
2455 03-01-2020 12:30:00 8.9 C 7.53 g/m*3 5.9 C 20.9 km/h
2456 03-01-2020 12:35:00 8.9 C 7.53 g/m*3 6.23 C 17.7 km/h
2457 03-01-2020 12:40:00 8.9 C 7.53 g/m*3 6.23 C 17.7 km/h
2458 03-01-2020 12:45:00 8.8 C 7.49 g/m*3 6.11 C 17.7 km/h
2459 03-01-2020 12:50:00 8.8 C 7.49 g/m*3 5.93 C 19.3 km/h
2460 03-01-2020 12:55:00 8.8 C 7.49 g/m*3 6.3 C 16.1 km/h
2461 03-01-2020 13:00:00 8.8 C 7.57 g/m*3 5.48 C 24.1 km/h
2462 03-01-2020 13:05:00 8.8 C 7.57 g/m*3 5.93 C 19.3 km/h
2463 03-01-2020 13:10:00 8.8 C 7.57 g/m*3 5.77 C 20.9 km/h
2464 03-01-2020 13:15:00 8.8 C 7.57 g/m*3 5.62 C 22.5 km/h
2465 03-01-2020 13:20:00 8.9 C 7.62 g/m*3 6.06 C 19.3 km/h
2466 03-01-2020 13:25:00 8.8 C 7.57 g/m*3 5.48 C 24.1 km/h
2467 03-01-2020 13:30:00 8.9 C 7.62 g/m*3 6.62 C 14.5 km/h
2468 03-01-2020 13:35:00 9 C 7.67 g/m*3 5.87 C 22.5 km/h
2469 03-01-2020 13:40:00 9 C 7.67 g/m*3 6.03 C 20.9 km/h
2470 03-01-2020 13:45:00 9 C 7.67 g/m*3 6.54 C 16.1 km/h
2471 03-01-2020 13:50:00 9.1 C 7.72 g/m*3 6.31 C 19.3 km/h
2472 03-01-2020 13:55:00 9.1 C 7.72 g/m*3 6.31 C 19.3 km/h
2473 03-01-2020 14:00:00 9.1 C 7.72 g/m*3 6.31 C 19.3 km/h
2474 03-01-2020 14:05:00 9.1 C 7.81 g/m*3 7.33 C 11.3 km/h
2475 03-01-2020 14:10:00 8.9 C 7.71 g/m*3 6.42 C 16.1 km/h
Sensor: Nr:Datum:Temp:Abs-Feuchte:Windchill:Wind:
Aussen-T/F 2476 03-01-2020 14:15:00 8.9 C 7.71 g/m*3 6.42 C 16.1 km/h
2477 03-01-2020 14:20:00 8.9 C 7.71 g/m*3 6.85 C 12.9 km/h
2478 03-01-2020 14:25:00 8.9 C 7.71 g/m*3 6.62 C 14.5 km/h
2479 03-01-2020 14:30:00 8.9 C 7.71 g/m*3 6.62 C 14.5 km/h
2480 03-01-2020 14:35:00 8.9 C 7.71 g/m*3 6.85 C 12.9 km/h
2481 03-01-2020 14:40:00 8.9 C 7.8 g/m*3 6.85 C 12.9 km/h
2482 03-01-2020 14:45:00 8.9 C 7.8 g/m*3 7.09 C 11.3 km/h
2483 03-01-2020 14:50:00 8.9 C 7.8 g/m*3 6.23 C 17.7 km/h
2484 03-01-2020 14:55:00 8.9 C 7.8 g/m*3 7.37 C 9.7 km/h
2485 03-01-2020 15:00:00 9 C 7.85 g/m*3 6.54 C 16.1 km/h
2486 03-01-2020 15:05:00 9.1 C 7.9 g/m*3 6.48 C 17.7 km/h
2487 03-01-2020 15:10:00 9.2 C 7.95 g/m*3 6.61 C 17.7 km/h
2488 03-01-2020 15:15:00 9.3 C 8 g/m*3 7.33 C 12.9 km/h
2489 03-01-2020 15:20:00 9.3 C 8 g/m*3 6.92 C 16.1 km/h
2490 03-01-2020 15:25:00 9.3 C 7.91 g/m*3 7.58 C 11.3 km/h
2491 03-01-2020 15:30:00 9.3 C 7.91 g/m*3 7.12 C 14.5 km/h
2492 03-01-2020 15:35:00 9.4 C 7.96 g/m*3 8.28 C 8.1 km/h
2493 03-01-2020 15:40:00 9.4 C 7.96 g/m*3 7.46 C 12.9 km/h
2494 03-01-2020 15:45:00 9.4 C 7.96 g/m*3 7.04 C 16.1 km/h
2495 03-01-2020 15:50:00 9.4 C 7.96 g/m*3 7.97 C 9.7 km/h
2496 03-01-2020 15:55:00 9.4 C 7.96 g/m*3 7.24 C 14.5 km/h
2497 03-01-2020 16:00:00 9.4 C 7.96 g/m*3 7.7 C 11.3 km/h
2498 03-01-2020 16:05:00 9.4 C 8.05 g/m*3 7.97 C 9.7 km/h
2499 03-01-2020 16:10:00 9.4 C 8.05 g/m*3 7.7 C 11.3 km/h
2500 03-01-2020 16:15:00 9.4 C 8.05 g/m*3 7.04 C 16.1 km/h
Sensor: Nr:Datum:Temp:Abs-Feuchte:Windchill:Wind:
Aussen-T/F 2501 03-01-2020 16:20:00 9.4 C 8.05 g/m*3 7.24 C 14.5 km/h
2502 03-01-2020 16:25:00 9.4 C 8.05 g/m*3 7.04 C 16.1 km/h
2503 03-01-2020 16:30:00 9.3 C 8 g/m*3 6.73 C 17.7 km/h
2504 03-01-2020 16:35:00 9.3 C 8 g/m*3 6.73 C 17.7 km/h
2505 03-01-2020 16:40:00 9.4 C 8.05 g/m*3 6.86 C 17.7 km/h
2506 03-01-2020 16:45:00 9.4 C 8.05 g/m*3 7.24 C 14.5 km/h
2507 03-01-2020 16:50:00 9.4 C 8.05 g/m*3 6.25 C 24.1 km/h
2508 03-01-2020 16:55:00 9.4 C 8.05 g/m*3 6.86 C 17.7 km/h
2509 03-01-2020 17:00:00 9.4 C 8.05 g/m*3 6.69 C 19.3 km/h
2510 03-01-2020 17:05:00 9.3 C 8.09 g/m*3 7.12 C 14.5 km/h
2511 03-01-2020 17:10:00 9.3 C 8.09 g/m*3 7.58 C 11.3 km/h
2512 03-01-2020 17:15:00 9.2 C 8.04 g/m*3 6.99 C 14.5 km/h
2513 03-01-2020 17:20:00 9.2 C 8.04 g/m*3 6.79 C 16.1 km/h
2514 03-01-2020 17:25:00 9.2 C 8.04 g/m*3 6.44 C 19.3 km/h
2515 03-01-2020 17:30:00 9.3 C 8.09 g/m*3 6.92 C 16.1 km/h
2516 03-01-2020 17:35:00 9.3 C 8.09 g/m*3 7.12 C 14.5 km/h
2517 03-01-2020 17:40:00 9.3 C 8.09 g/m*3 6.92 C 16.1 km/h
2518 03-01-2020 17:45:00 9.3 C 8.09 g/m*3 6.92 C 16.1 km/h
2519 03-01-2020 17:50:00 9.3 C 8.09 g/m*3 7.58 C 11.3 km/h
2520 03-01-2020 17:55:00 9.4 C 8.14 g/m*3 7.04 C 16.1 km/h
2521 03-01-2020 18:00:00 9.4 C 8.14 g/m*3 7.04 C 16.1 km/h
2522 03-01-2020 18:05:00 9.4 C 8.14 g/m*3 7.46 C 12.9 km/h
2523 03-01-2020 18:10:00 9.4 C 8.14 g/m*3 7.46 C 12.9 km/h
2524 03-01-2020 18:15:00 9.5 C 8.19 g/m*3 7.36 C 14.5 km/h
2525 03-01-2020 18:20:00 9.6 C 8.24 g/m*3 7.94 C 11.3 km/h
Sensor: Nr:Datum:Temp:Abs-Feuchte:Windchill:Wind:
Aussen-T/F 2526 03-01-2020 18:25:00 9.6 C 8.24 g/m*3 6.94 C 19.3 km/h
2527 03-01-2020 18:30:00 9.6 C 8.24 g/m*3 6.94 C 19.3 km/h
2528 03-01-2020 18:35:00 9.6 C 8.24 g/m*3 6.5 C 24.1 km/h
2529 03-01-2020 18:40:00 9.6 C 8.24 g/m*3 7.94 C 11.3 km/h
2530 03-01-2020 18:45:00 9.7 C 8.3 g/m*3 7.61 C 14.5 km/h
2531 03-01-2020 18:50:00 9.7 C 8.3 g/m*3 7.82 C 12.9 km/h
2532 03-01-2020 18:55:00 9.7 C 8.3 g/m*3 7.61 C 14.5 km/h
2533 03-01-2020 19:00:00 9.7 C 8.3 g/m*3 8.06 C 11.3 km/h
2534 03-01-2020 19:05:00 9.6 C 8.24 g/m*3 7.48 C 14.5 km/h
2535 03-01-2020 19:10:00 9.6 C 8.34 g/m*3 8.52 C 8.1 km/h
2536 03-01-2020 19:15:00 9.6 C 8.34 g/m*3 8.21 C 9.7 km/h
2537 03-01-2020 19:20:00 9.6 C 8.34 g/m*3 7.94 C 11.3 km/h
2538 03-01-2020 19:25:00 9.6 C 8.34 g/m*3 8.52 C 8.1 km/h
2539 03-01-2020 19:30:00 9.6 C 8.34 g/m*3 7.48 C 14.5 km/h
2540 03-01-2020 19:35:00 9.6 C 8.34 g/m*3 7.7 C 12.9 km/h
2541 03-01-2020 19:40:00 9.6 C 8.34 g/m*3 8.21 C 9.7 km/h
2542 03-01-2020 19:45:00 9.6 C 8.34 g/m*3 7.94 C 11.3 km/h
2543 03-01-2020 19:50:00 9.6 C 8.34 g/m*3 7.29 C 16.1 km/h
2544 03-01-2020 19:55:00 9.6 C 8.34 g/m*3 7.94 C 11.3 km/h
2545 03-01-2020 20:00:00 9.7 C 8.39 g/m*3 8.33 C 9.7 km/h
2546 03-01-2020 20:05:00 9.7 C 8.39 g/m*3 7.82 C 12.9 km/h
2547 03-01-2020 20:10:00 9.7 C 8.48 g/m*3 8.06 C 11.3 km/h
2548 03-01-2020 20:15:00 9.7 C 8.48 g/m*3 8.33 C 9.7 km/h
2549 03-01-2020 20:20:00 9.6 C 8.43 g/m*3 8.52 C 8.1 km/h
2550 03-01-2020 20:25:00 9.6 C 8.43 g/m*3 7.94 C 11.3 km/h
Sensor: Nr:Datum:Temp:Abs-Feuchte:Windchill:Wind:
Aussen-T/F 2551 03-01-2020 20:30:00 9.6 C 8.43 g/m*3 8.52 C 8.1 km/h
2552 03-01-2020 20:35:00 9.6 C 8.43 g/m*3 8.52 C 8.1 km/h
2553 03-01-2020 20:40:00 9.5 C 8.37 g/m*3 8.4 C 8.1 km/h
2554 03-01-2020 20:45:00 9.5 C 8.47 g/m*3 8.4 C 8.1 km/h
2555 03-01-2020 20:50:00 9.4 C 8.41 g/m*3 8.68 C 6.4 km/h
2556 03-01-2020 20:55:00 9.4 C 8.5 g/m*3 7.97 C 9.7 km/h
2557 03-01-2020 21:00:00 9.3 C 8.45 g/m*3 8.16 C 8.1 km/h
2558 03-01-2020 21:05:00 9.2 C 8.3 g/m*3 6.61 C 17.7 km/h
2559 03-01-2020 21:10:00 9.1 C 8.16 g/m*3 6.67 C 16.1 km/h
2560 03-01-2020 21:15:00 8.8 C 8.01 g/m*3 6.5 C 14.5 km/h
2561 03-01-2020 21:20:00 8.7 C 7.96 g/m*3 7.13 C 9.7 km/h
2562 03-01-2020 21:25:00 8.7 C 7.96 g/m*3 6.6 C 12.9 km/h
2563 03-01-2020 21:30:00 8.5 C 7.85 g/m*3 5.73 C 17.7 km/h
2564 03-01-2020 21:35:00 8.4 C 7.8 g/m*3 6.49 C 11.3 km/h
2565 03-01-2020 21:40:00 8.3 C 7.75 g/m*3 4.98 C 22.5 km/h
2566 03-01-2020 21:45:00 8.1 C 7.66 g/m*3 4.89 C 20.9 km/h
2567 03-01-2020 21:50:00 7.9 C 7.56 g/m*3 4.47 C 22.5 km/h
2568 03-01-2020 21:55:00 7.8 C 7.51 g/m*3 5.06 C 16.1 km/h
2569 03-01-2020 22:00:00 7.6 C 7.33 g/m*3 4.61 C 17.7 km/h
2570 03-01-2020 22:05:00 7.5 C 7.28 g/m*3 4.9 C 14.5 km/h
2571 03-01-2020 22:10:00 7.4 C 7.24 g/m*3 4.36 C 17.7 km/h
2572 03-01-2020 22:15:00 7.4 C 7.24 g/m*3 5.28 C 11.3 km/h
2573 03-01-2020 22:20:00 7.3 C 7.19 g/m*3 4.23 C 17.7 km/h
2574 03-01-2020 22:25:00 7.3 C 7.19 g/m*3 4.23 C 17.7 km/h
2575 03-01-2020 22:30:00 7.2 C 7.14 g/m*3 4.31 C 16.1 km/h
Sensor: Nr:Datum:Temp:Abs-Feuchte:Windchill:Wind:
Aussen-T/F 2576 03-01-2020 22:35:00 7.2 C 7.14 g/m*3 4.31 C 16.1 km/h
2577 03-01-2020 22:40:00 7.1 C 7.1 g/m*3 5.23 C 9.7 km/h
2578 03-01-2020 22:45:00 6.9 C 7.01 g/m*3 5.34 C 8.1 km/h
2579 03-01-2020 22:50:00 6.9 C 7.01 g/m*3 5.34 C 8.1 km/h
2580 03-01-2020 22:55:00 6.8 C 6.96 g/m*3 5.67 C 6.4 km/h
2581 03-01-2020 23:00:00 6.8 C 6.96 g/m*3 6.8 C 3.2 km/h
2582 03-01-2020 23:05:00 6.7 C 6.91 g/m*3 5.11 C 8.1 km/h
2583 03-01-2020 23:10:00 6.7 C 6.91 g/m*3 5.11 C 8.1 km/h
2584 03-01-2020 23:15:00 6.7 C 6.91 g/m*3 5.11 C 8.1 km/h
2585 03-01-2020 23:20:00 6.7 C 6.91 g/m*3 5.11 C 8.1 km/h
2586 03-01-2020 23:25:00 6.7 C 6.91 g/m*3 5.56 C 6.4 km/h
2587 03-01-2020 23:30:00 6.7 C 6.91 g/m*3 4.44 C 11.3 km/h
2588 03-01-2020 23:35:00 6.7 C 6.91 g/m*3 5.11 C 8.1 km/h
2589 03-01-2020 23:40:00 6.7 C 6.91 g/m*3 6.7 C 3.2 km/h
2590 03-01-2020 23:45:00 6.6 C 6.87 g/m*3 6.6 C 3.2 km/h
2591 03-01-2020 23:50:00 6.6 C 6.87 g/m*3 4.99 C 8.1 km/h
2592 03-01-2020 23:55:00 6.6 C 6.87 g/m*3 4.04 C 12.9 km/h
2593 04-01-2020 00:00:00 6.6 C 6.95 g/m*3 4.99 C 8.1 km/h
2594 04-01-2020 00:05:00 6.6 C 6.95 g/m*3 4.04 C 12.9 km/h
2595 04-01-2020 00:10:00 6.5 C 6.9 g/m*3 6.5 C 4.8 km/h
2596 04-01-2020 00:15:00 6.4 C 6.85 g/m*3 6.4 C 4.8 km/h
2597 04-01-2020 00:20:00 6.4 C 6.85 g/m*3 6.4 C 3.2 km/h
2598 04-01-2020 00:25:00 6.3 C 6.81 g/m*3 5.1 C 6.4 km/h
2599 04-01-2020 00:30:00 6.3 C 6.81 g/m*3 5.1 C 6.4 km/h
2600 04-01-2020 00:35:00 6.2 C 6.77 g/m*3 4.98 C 6.4 km/h
Sensor: Nr:Datum:Temp:Abs-Feuchte:Windchill:Wind:
Aussen-T/F 2601 04-01-2020 00:40:00 6.2 C 6.77 g/m*3 6.2 C 1.6 km/h
2602 04-01-2020 00:45:00 6.2 C 6.77 g/m*3 6.2 C 0 km/h
2603 04-01-2020 00:50:00 6.2 C 6.77 g/m*3 6.2 C 0 km/h
2604 04-01-2020 00:55:00 6.2 C 6.77 g/m*3 6.2 C 0 km/h
2605 04-01-2020 01:00:00 6.2 C 6.77 g/m*3 6.2 C 4.8 km/h
2606 04-01-2020 01:05:00 6.2 C 6.77 g/m*3 6.2 C 1.6 km/h
2607 04-01-2020 01:10:00 6.1 C 6.72 g/m*3 6.1 C 0 km/h
2608 04-01-2020 01:15:00 6 C 6.68 g/m*3 6 C 4.8 km/h
2609 04-01-2020 01:20:00 5.8 C 6.52 g/m*3 5.8 C 4.8 km/h
2610 04-01-2020 01:25:00 5.8 C 6.59 g/m*3 5.8 C 3.2 km/h
2611 04-01-2020 01:30:00 5.8 C 6.59 g/m*3 5.8 C 4.8 km/h
2612 04-01-2020 01:35:00 5.7 C 6.48 g/m*3 5.7 C 1.6 km/h
2613 04-01-2020 01:40:00 5.6 C 6.43 g/m*3 5.6 C 0 km/h
2614 04-01-2020 01:45:00 5.3 C 6.31 g/m*3 5.3 C 0 km/h
2615 04-01-2020 01:50:00 5.1 C 6.22 g/m*3 5.1 C 1.6 km/h
2616 04-01-2020 01:55:00 4.9 C 6.14 g/m*3 4.9 C 0 km/h
2617 04-01-2020 02:00:00 4.9 C 6.21 g/m*3 3.48 C 6.4 km/h
2618 04-01-2020 02:05:00 4.8 C 6.17 g/m*3 4.8 C 4.8 km/h
2619 04-01-2020 02:10:00 4.8 C 6.17 g/m*3 2.15 C 11.3 km/h
2620 04-01-2020 02:15:00 4.9 C 6.21 g/m*3 3.48 C 6.4 km/h
2621 04-01-2020 02:20:00 4.9 C 6.21 g/m*3 4.9 C 1.6 km/h
2622 04-01-2020 02:25:00 4.8 C 6.1 g/m*3 4.8 C 1.6 km/h
2623 04-01-2020 02:30:00 4.7 C 6.06 g/m*3 4.7 C 0 km/h
2624 04-01-2020 02:35:00 4.6 C 6.02 g/m*3 4.6 C 0 km/h
2625 04-01-2020 02:40:00 4.6 C 6.09 g/m*3 4.6 C 0 km/h
Sensor: Nr:Datum:Temp:Abs-Feuchte:Windchill:Wind:
Aussen-T/F 2626 04-01-2020 02:45:00 4.5 C 6.05 g/m*3 4.5 C 0 km/h
2627 04-01-2020 02:50:00 4.5 C 6.11 g/m*3 4.5 C 0 km/h
2628 04-01-2020 02:55:00 4.5 C 6.11 g/m*3 4.5 C 0 km/h
2629 04-01-2020 03:00:00 4.5 C 6.11 g/m*3 4.5 C 0 km/h
2630 04-01-2020 03:05:00 4.5 C 6.11 g/m*3 4.5 C 0 km/h
2631 04-01-2020 03:10:00 4.5 C 6.11 g/m*3 4.5 C 3.2 km/h
2632 04-01-2020 03:15:00 4.6 C 6.15 g/m*3 4.6 C 0 km/h
2633 04-01-2020 03:20:00 4.6 C 6.15 g/m*3 4.6 C 1.6 km/h
2634 04-01-2020 03:25:00 4.5 C 6.11 g/m*3 4.5 C 0 km/h
2635 04-01-2020 03:30:00 4.4 C 6.07 g/m*3 4.4 C 0 km/h
2636 04-01-2020 03:35:00 4.3 C 6.03 g/m*3 4.3 C 1.6 km/h
2637 04-01-2020 03:40:00 4.2 C 5.99 g/m*3 4.2 C 3.2 km/h
2638 04-01-2020 03:45:00 4.2 C 6.06 g/m*3 4.2 C 4.8 km/h
2639 04-01-2020 03:50:00 4.3 C 6.1 g/m*3 2.78 C 6.4 km/h
2640 04-01-2020 03:55:00 4.4 C 6.14 g/m*3 4.4 C 4.8 km/h
2641 04-01-2020 04:00:00 4.4 C 6.07 g/m*3 4.4 C 4.8 km/h
2642 04-01-2020 04:05:00 4.4 C 6.07 g/m*3 4.4 C 4.8 km/h
2643 04-01-2020 04:10:00 4.4 C 6.07 g/m*3 4.4 C 3.2 km/h
2644 04-01-2020 04:15:00 4.3 C 6.03 g/m*3 4.3 C 0 km/h
2645 04-01-2020 04:20:00 4.3 C 5.97 g/m*3 4.3 C 4.8 km/h
2646 04-01-2020 04:25:00 4.2 C 5.93 g/m*3 4.2 C 3.2 km/h
2647 04-01-2020 04:30:00 4.2 C 5.93 g/m*3 4.2 C 3.2 km/h
2648 04-01-2020 04:35:00 4.1 C 5.89 g/m*3 4.1 C 1.6 km/h
2649 04-01-2020 04:40:00 4 C 5.85 g/m*3 4 C 3.2 km/h
2650 04-01-2020 04:45:00 3.9 C 5.87 g/m*3 3.9 C 3.2 km/h
Sensor: Nr:Datum:Temp:Abs-Feuchte:Windchill:Wind:
Aussen-T/F 2651 04-01-2020 04:50:00 3.8 C 5.83 g/m*3 3.8 C 0 km/h
2652 04-01-2020 04:55:00 3.8 C 5.83 g/m*3 3.8 C 0 km/h
2653 04-01-2020 05:00:00 3.7 C 5.8 g/m*3 3.7 C 3.2 km/h
2654 04-01-2020 05:05:00 3.7 C 5.8 g/m*3 3.7 C 3.2 km/h
2655 04-01-2020 05:10:00 3.7 C 5.8 g/m*3 3.7 C 1.6 km/h
2656 04-01-2020 05:15:00 3.6 C 5.76 g/m*3 3.6 C 0 km/h
2657 04-01-2020 05:20:00 3.4 C 5.68 g/m*3 3.4 C 3.2 km/h
2658 04-01-2020 05:25:00 3.4 C 5.68 g/m*3 3.4 C 0 km/h
2659 04-01-2020 05:30:00 3.3 C 5.64 g/m*3 3.3 C 0 km/h
2660 04-01-2020 05:35:00 3.2 C 5.6 g/m*3 3.2 C 0 km/h
2661 04-01-2020 05:40:00 3.1 C 5.57 g/m*3 3.1 C 0 km/h
2662 04-01-2020 05:45:00 2.9 C 5.49 g/m*3 2.9 C 3.2 km/h
2663 04-01-2020 05:50:00 2.9 C 5.49 g/m*3 2.9 C 4.8 km/h
2664 04-01-2020 05:55:00 2.8 C 5.51 g/m*3 2.8 C 4.8 km/h
2665 04-01-2020 06:00:00 2.8 C 5.51 g/m*3 2.8 C 4.8 km/h
2666 04-01-2020 06:05:00 2.8 C 5.51 g/m*3 2.8 C 4.8 km/h
2667 04-01-2020 06:10:00 2.8 C 5.51 g/m*3 1.05 C 6.4 km/h
2668 04-01-2020 06:15:00 2.9 C 5.55 g/m*3 0.64 C 8.1 km/h
2669 04-01-2020 06:20:00 2.9 C 5.55 g/m*3 2.9 C 4.8 km/h
2670 04-01-2020 06:25:00 3 C 5.59 g/m*3 1.28 C 6.4 km/h
2671 04-01-2020 06:30:00 2.9 C 5.55 g/m*3 2.9 C 4.8 km/h
2672 04-01-2020 06:35:00 2.9 C 5.55 g/m*3 0.64 C 8.1 km/h
2673 04-01-2020 06:40:00 2.9 C 5.55 g/m*3 2.9 C 4.8 km/h
2674 04-01-2020 06:45:00 2.9 C 5.55 g/m*3 0.22 C 9.7 km/h
2675 04-01-2020 06:50:00 3 C 5.59 g/m*3 0.76 C 8.1 km/h
Sensor: Nr:Datum:Temp:Abs-Feuchte:Windchill:Wind:
Aussen-T/F 2676 04-01-2020 06:55:00 3.1 C 5.57 g/m*3 3.1 C 3.2 km/h
2677 04-01-2020 07:00:00 3.1 C 5.57 g/m*3 0.46 C 9.7 km/h
2678 04-01-2020 07:05:00 3.1 C 5.57 g/m*3 1.4 C 6.4 km/h
2679 04-01-2020 07:10:00 3 C 5.53 g/m*3 3 C 3.2 km/h
2680 04-01-2020 07:15:00 3.1 C 5.57 g/m*3 1.4 C 6.4 km/h
2681 04-01-2020 07:20:00 3.1 C 5.57 g/m*3 3.1 C 4.8 km/h
2682 04-01-2020 07:25:00 3.1 C 5.57 g/m*3 1.4 C 6.4 km/h
2683 04-01-2020 07:30:00 2.9 C 5.49 g/m*3 2.9 C 3.2 km/h
2684 04-01-2020 07:35:00 2.8 C 5.46 g/m*3 2.8 C 3.2 km/h
2685 04-01-2020 07:40:00 2.8 C 5.46 g/m*3 2.8 C 4.8 km/h
2686 04-01-2020 07:45:00 2.8 C 5.46 g/m*3 2.8 C 3.2 km/h
2687 04-01-2020 07:50:00 2.7 C 5.42 g/m*3 2.7 C 3.2 km/h
2688 04-01-2020 07:55:00 2.7 C 5.42 g/m*3 2.7 C 1.6 km/h
2689 04-01-2020 08:00:00 2.6 C 5.38 g/m*3 2.6 C 0 km/h
2690 04-01-2020 08:05:00 2.5 C 5.35 g/m*3 2.5 C 0 km/h
2691 04-01-2020 08:10:00 2.4 C 5.31 g/m*3 2.4 C 1.6 km/h
2692 04-01-2020 08:15:00 2.4 C 5.37 g/m*3 2.4 C 1.6 km/h
2693 04-01-2020 08:20:00 2.3 C 5.33 g/m*3 2.3 C 0 km/h
2694 04-01-2020 08:25:00 2.2 C 5.29 g/m*3 2.2 C 4.8 km/h
2695 04-01-2020 08:30:00 2.2 C 5.29 g/m*3 2.2 C 0 km/h
2696 04-01-2020 08:35:00 2.2 C 5.29 g/m*3 2.2 C 4.8 km/h
2697 04-01-2020 08:40:00 2.1 C 5.26 g/m*3 2.1 C 1.6 km/h
2698 04-01-2020 08:45:00 2.1 C 5.26 g/m*3 0.24 C 6.4 km/h
2699 04-01-2020 08:50:00 2.1 C 5.26 g/m*3 2.1 C 3.2 km/h
2700 04-01-2020 08:55:00 2.1 C 5.26 g/m*3 2.1 C 3.2 km/h
Sensor: Nr:Datum:Temp:Abs-Feuchte:Windchill:Wind:
Aussen-T/F 2701 04-01-2020 09:00:00 2 C 5.22 g/m*3 2 C 1.6 km/h
2702 04-01-2020 09:05:00 1.9 C 5.19 g/m*3 1.9 C 3.2 km/h
2703 04-01-2020 09:10:00 1.9 C 5.19 g/m*3 1.9 C 1.6 km/h
2704 04-01-2020 09:15:00 1.9 C 5.24 g/m*3 1.9 C 1.6 km/h
2705 04-01-2020 09:20:00 1.9 C 5.24 g/m*3 1.9 C 0 km/h
2706 04-01-2020 09:25:00 1.9 C 5.24 g/m*3 1.9 C 1.6 km/h
2707 04-01-2020 09:30:00 2 C 5.28 g/m*3 2 C 1.6 km/h
2708 04-01-2020 09:35:00 2.1 C 5.31 g/m*3 2.1 C 3.2 km/h
2709 04-01-2020 09:40:00 2.2 C 5.35 g/m*3 2.2 C 0 km/h
2710 04-01-2020 09:45:00 2.3 C 5.39 g/m*3 0.47 C 6.4 km/h
2711 04-01-2020 09:50:00 2.4 C 5.42 g/m*3 2.4 C 1.6 km/h
2712 04-01-2020 09:55:00 2.4 C 5.42 g/m*3 2.4 C 3.2 km/h
2713 04-01-2020 10:00:00 2.6 C 5.56 g/m*3 0.82 C 6.4 km/h
2714 04-01-2020 10:05:00 2.7 C 5.54 g/m*3 0.94 C 6.4 km/h
2715 04-01-2020 10:10:00 2.8 C 5.57 g/m*3 2.8 C 3.2 km/h
2716 04-01-2020 10:15:00 2.8 C 5.57 g/m*3 2.8 C 4.8 km/h
2717 04-01-2020 10:20:00 2.9 C 5.61 g/m*3 2.9 C 3.2 km/h
2718 04-01-2020 10:50:00 4.6 C 6.15 g/m*3 2.64 C 8.1 km/h
2719 04-01-2020 10:55:00 4.9 C 6.14 g/m*3 2.27 C 11.3 km/h
2720 04-01-2020 11:00:00 5.2 C 6.2 g/m*3 3.34 C 8.1 km/h
2721 04-01-2020 11:05:00 5.3 C 6.17 g/m*3 1.96 C 16.1 km/h
2722 04-01-2020 11:10:00 5.6 C 6.22 g/m*3 2.33 C 16.1 km/h
2723 04-01-2020 11:15:00 5.7 C 6.26 g/m*3 3.56 C 9.7 km/h
2724 04-01-2020 11:20:00 5.7 C 6.19 g/m*3 4.4 C 6.4 km/h
2725 04-01-2020 11:25:00 5.8 C 6.23 g/m*3 3.68 C 9.7 km/h
Sensor: Nr:Datum:Temp:Abs-Feuchte:Windchill:Wind:
Aussen-T/F 2726 04-01-2020 11:30:00 5.8 C 6.23 g/m*3 4.52 C 6.4 km/h
2727 04-01-2020 11:35:00 5.8 C 6.23 g/m*3 4.05 C 8.1 km/h
2728 04-01-2020 11:40:00 5.9 C 6.27 g/m*3 4.63 C 6.4 km/h
2729 04-01-2020 11:45:00 5.9 C 6.27 g/m*3 5.9 C 4.8 km/h
2730 04-01-2020 11:50:00 6 C 6.24 g/m*3 4.75 C 6.4 km/h
2731 04-01-2020 11:55:00 6.1 C 6.28 g/m*3 3.72 C 11.3 km/h
2732 04-01-2020 12:00:00 6.1 C 6.28 g/m*3 3.18 C 14.5 km/h
2733 04-01-2020 12:05:00 6.2 C 6.32 g/m*3 4.15 C 9.7 km/h
2734 04-01-2020 12:10:00 6.3 C 6.37 g/m*3 5.1 C 6.4 km/h
2735 04-01-2020 12:15:00 6.3 C 6.29 g/m*3 4.27 C 9.7 km/h
2736 04-01-2020 12:20:00 6.4 C 6.33 g/m*3 4.39 C 9.7 km/h
2737 04-01-2020 12:25:00 6.5 C 6.37 g/m*3 3.67 C 14.5 km/h
2738 04-01-2020 12:30:00 6.6 C 6.42 g/m*3 4.63 C 9.7 km/h
2739 04-01-2020 12:35:00 6.6 C 6.42 g/m*3 4.32 C 11.3 km/h
2740 04-01-2020 12:40:00 6.6 C 6.42 g/m*3 4.32 C 11.3 km/h
2741 04-01-2020 12:45:00 6.7 C 6.46 g/m*3 5.56 C 6.4 km/h
2742 04-01-2020 12:50:00 6.7 C 6.46 g/m*3 4.75 C 9.7 km/h
2743 04-01-2020 12:55:00 6.8 C 6.5 g/m*3 5.22 C 8.1 km/h
2744 04-01-2020 13:00:00 6.8 C 6.5 g/m*3 4.29 C 12.9 km/h
2745 04-01-2020 13:05:00 6.9 C 6.54 g/m*3 5.34 C 8.1 km/h
2746 04-01-2020 13:10:00 7 C 6.51 g/m*3 4.8 C 11.3 km/h
2747 04-01-2020 13:15:00 7.1 C 6.55 g/m*3 4.65 C 12.9 km/h
2748 04-01-2020 13:20:00 7.1 C 6.55 g/m*3 4.19 C 16.1 km/h
2749 04-01-2020 13:25:00 7.1 C 6.55 g/m*3 4.65 C 12.9 km/h
2750 04-01-2020 13:30:00 7.1 C 6.55 g/m*3 4.92 C 11.3 km/h
Sensor: Nr:Datum:Temp:Abs-Feuchte:Windchill:Wind:
Aussen-T/F 2751 04-01-2020 13:35:00 7.2 C 6.52 g/m*3 4.77 C 12.9 km/h
2752 04-01-2020 13:40:00 7.2 C 6.59 g/m*3 4.77 C 12.9 km/h
2753 04-01-2020 13:45:00 7.2 C 6.52 g/m*3 4.53 C 14.5 km/h
2754 04-01-2020 13:50:00 7.3 C 6.56 g/m*3 5.16 C 11.3 km/h
2755 04-01-2020 13:55:00 7.4 C 6.6 g/m*3 4.78 C 14.5 km/h
2756 04-01-2020 14:00:00 7.4 C 6.6 g/m*3 4.36 C 17.7 km/h
2757 04-01-2020 14:05:00 7.4 C 6.6 g/m*3 5.58 C 9.7 km/h
2758 04-01-2020 14:10:00 7.4 C 6.6 g/m*3 5.93 C 8.1 km/h
2759 04-01-2020 14:15:00 7.4 C 6.52 g/m*3 4.56 C 16.1 km/h
2760 04-01-2020 14:20:00 7.5 C 6.64 g/m*3 5.14 C 12.9 km/h
2761 04-01-2020 14:25:00 7.5 C 6.56 g/m*3 5.14 C 12.9 km/h
2762 04-01-2020 14:30:00 7.6 C 6.61 g/m*3 5.26 C 12.9 km/h
2763 04-01-2020 14:35:00 7.6 C 6.53 g/m*3 5.53 C 11.3 km/h
2764 04-01-2020 14:40:00 7.5 C 6.56 g/m*3 5.7 C 9.7 km/h
2765 04-01-2020 14:45:00 7.5 C 6.56 g/m*3 5.7 C 9.7 km/h
2766 04-01-2020 14:50:00 7.5 C 6.56 g/m*3 4.9 C 14.5 km/h
2767 04-01-2020 14:55:00 7.5 C 6.56 g/m*3 5.14 C 12.9 km/h
2768 04-01-2020 15:00:00 7.4 C 6.52 g/m*3 5.58 C 9.7 km/h
2769 04-01-2020 15:05:00 7.5 C 6.64 g/m*3 5.41 C 11.3 km/h
2770 04-01-2020 15:10:00 7.5 C 6.64 g/m*3 6.05 C 8.1 km/h
2771 04-01-2020 15:15:00 7.5 C 6.64 g/m*3 6.05 C 8.1 km/h
2772 04-01-2020 15:20:00 7.4 C 6.6 g/m*3 5.58 C 9.7 km/h
2773 04-01-2020 15:25:00 7.4 C 6.6 g/m*3 5.28 C 11.3 km/h
2774 04-01-2020 15:30:00 7.4 C 6.6 g/m*3 5.58 C 9.7 km/h
2775 04-01-2020 15:35:00 7.4 C 6.6 g/m*3 5.28 C 11.3 km/h
Sensor: Nr:Datum:Temp:Abs-Feuchte:Windchill:Wind:
Aussen-T/F 2776 04-01-2020 15:40:00 7.4 C 6.6 g/m*3 5.93 C 8.1 km/h
2777 04-01-2020 15:45:00 7.4 C 6.6 g/m*3 6.37 C 6.4 km/h
2778 04-01-2020 15:50:00 7.4 C 6.6 g/m*3 5.28 C 11.3 km/h
2779 04-01-2020 15:55:00 7.3 C 6.56 g/m*3 5.47 C 9.7 km/h
2780 04-01-2020 16:00:00 7.3 C 6.56 g/m*3 5.47 C 9.7 km/h
2781 04-01-2020 16:05:00 7.3 C 6.56 g/m*3 5.81 C 8.1 km/h
2782 04-01-2020 16:10:00 7.3 C 6.56 g/m*3 6.25 C 6.4 km/h
2783 04-01-2020 16:15:00 7.3 C 6.56 g/m*3 6.25 C 6.4 km/h
2784 04-01-2020 16:20:00 7.3 C 6.56 g/m*3 5.47 C 9.7 km/h
2785 04-01-2020 16:25:00 7.3 C 6.56 g/m*3 4.9 C 12.9 km/h
2786 04-01-2020 16:30:00 7.3 C 6.56 g/m*3 6.25 C 6.4 km/h
2787 04-01-2020 16:35:00 7.2 C 6.52 g/m*3 5.35 C 9.7 km/h
2788 04-01-2020 16:40:00 7.2 C 6.52 g/m*3 5.35 C 9.7 km/h
2789 04-01-2020 16:45:00 7.2 C 6.52 g/m*3 5.69 C 8.1 km/h
2790 04-01-2020 16:50:00 7.2 C 6.52 g/m*3 5.35 C 9.7 km/h
2791 04-01-2020 16:55:00 7.2 C 6.52 g/m*3 5.69 C 8.1 km/h
2792 04-01-2020 17:00:00 7.2 C 6.44 g/m*3 4.77 C 12.9 km/h
2793 04-01-2020 17:05:00 7.2 C 6.44 g/m*3 5.35 C 9.7 km/h
2794 04-01-2020 17:10:00 7.2 C 6.52 g/m*3 4.77 C 12.9 km/h
2795 04-01-2020 17:15:00 7.2 C 6.52 g/m*3 6.13 C 6.4 km/h
2796 04-01-2020 17:20:00 7.2 C 6.52 g/m*3 5.69 C 8.1 km/h
2797 04-01-2020 17:25:00 7.2 C 6.52 g/m*3 5.35 C 9.7 km/h
2798 04-01-2020 17:30:00 7.2 C 6.52 g/m*3 4.77 C 12.9 km/h
2799 04-01-2020 17:35:00 7.2 C 6.52 g/m*3 6.13 C 6.4 km/h
2800 04-01-2020 17:40:00 7.2 C 6.52 g/m*3 5.69 C 8.1 km/h
Sensor: Nr:Datum:Temp:Abs-Feuchte:Windchill:Wind:
Aussen-T/F 2801 04-01-2020 17:45:00 7.1 C 6.47 g/m*3 4.92 C 11.3 km/h
2802 04-01-2020 17:50:00 7.1 C 6.47 g/m*3 6.02 C 6.4 km/h
2803 04-01-2020 17:55:00 7.1 C 6.47 g/m*3 4.92 C 11.3 km/h
2804 04-01-2020 18:00:00 7.1 C 6.47 g/m*3 5.58 C 8.1 km/h
2805 04-01-2020 18:05:00 7.1 C 6.47 g/m*3 5.23 C 9.7 km/h
2806 04-01-2020 18:10:00 7.1 C 6.47 g/m*3 4.92 C 11.3 km/h
2807 04-01-2020 18:15:00 7.1 C 6.47 g/m*3 5.23 C 9.7 km/h
2808 04-01-2020 18:20:00 7 C 6.43 g/m*3 5.11 C 9.7 km/h
2809 04-01-2020 18:25:00 7.1 C 6.47 g/m*3 5.23 C 9.7 km/h
2810 04-01-2020 18:30:00 7.1 C 6.47 g/m*3 4.65 C 12.9 km/h
2811 04-01-2020 18:35:00 7.1 C 6.47 g/m*3 4.41 C 14.5 km/h
2812 04-01-2020 18:40:00 7.1 C 6.47 g/m*3 5.58 C 8.1 km/h
2813 04-01-2020 18:45:00 7.1 C 6.47 g/m*3 5.23 C 9.7 km/h
2814 04-01-2020 18:50:00 7.1 C 6.47 g/m*3 5.23 C 9.7 km/h
2815 04-01-2020 18:55:00 7 C 6.43 g/m*3 4.8 C 11.3 km/h
2816 04-01-2020 19:00:00 7 C 6.43 g/m*3 5.9 C 6.4 km/h
2817 04-01-2020 19:05:00 7 C 6.43 g/m*3 5.11 C 9.7 km/h
2818 04-01-2020 19:10:00 7.1 C 6.47 g/m*3 4.92 C 11.3 km/h
2819 04-01-2020 19:15:00 7.1 C 6.47 g/m*3 4.65 C 12.9 km/h
2820 04-01-2020 19:20:00 7.1 C 6.47 g/m*3 5.23 C 9.7 km/h
2821 04-01-2020 19:25:00 7.1 C 6.47 g/m*3 4.92 C 11.3 km/h
2822 04-01-2020 19:30:00 7.1 C 6.55 g/m*3 4.92 C 11.3 km/h
2823 04-01-2020 19:35:00 7 C 6.59 g/m*3 5.9 C 6.4 km/h
2824 04-01-2020 19:40:00 6.9 C 6.62 g/m*3 4.68 C 11.3 km/h
2825 04-01-2020 19:45:00 6.8 C 6.58 g/m*3 5.67 C 6.4 km/h
Sensor: Nr:Datum:Temp:Abs-Feuchte:Windchill:Wind:
Aussen-T/F 2826 04-01-2020 19:50:00 6.7 C 6.61 g/m*3 6.7 C 4.8 km/h
2827 04-01-2020 19:55:00 6.7 C 6.61 g/m*3 5.56 C 6.4 km/h
2828 04-01-2020 20:00:00 6.6 C 6.57 g/m*3 4.63 C 9.7 km/h
2829 04-01-2020 20:05:00 6.6 C 6.57 g/m*3 5.44 C 6.4 km/h
2830 04-01-2020 20:10:00 6.5 C 6.6 g/m*3 5.33 C 6.4 km/h
2831 04-01-2020 20:15:00 6.5 C 6.6 g/m*3 6.5 C 4.8 km/h
2832 04-01-2020 20:20:00 6.5 C 6.6 g/m*3 5.33 C 6.4 km/h
2833 04-01-2020 20:25:00 6.5 C 6.6 g/m*3 5.33 C 6.4 km/h
2834 04-01-2020 20:30:00 6.5 C 6.52 g/m*3 4.87 C 8.1 km/h
2835 04-01-2020 20:35:00 6.5 C 6.52 g/m*3 6.5 C 4.8 km/h
2836 04-01-2020 20:40:00 6.5 C 6.52 g/m*3 6.5 C 4.8 km/h
2837 04-01-2020 20:45:00 6.6 C 6.57 g/m*3 6.6 C 3.2 km/h
2838 04-01-2020 20:50:00 6.6 C 6.57 g/m*3 4.63 C 9.7 km/h
2839 04-01-2020 20:55:00 6.6 C 6.64 g/m*3 4.99 C 8.1 km/h
2840 04-01-2020 21:00:00 6.7 C 6.69 g/m*3 5.56 C 6.4 km/h
2841 04-01-2020 21:05:00 6.7 C 6.69 g/m*3 5.56 C 6.4 km/h
2842 04-01-2020 21:10:00 6.7 C 6.76 g/m*3 5.11 C 8.1 km/h
2843 04-01-2020 21:15:00 6.7 C 6.76 g/m*3 5.56 C 6.4 km/h
2844 04-01-2020 21:20:00 6.6 C 6.79 g/m*3 4.99 C 8.1 km/h
2845 04-01-2020 21:25:00 6.6 C 6.87 g/m*3 6.6 C 0 km/h
2846 04-01-2020 21:30:00 6.4 C 6.78 g/m*3 6.4 C 4.8 km/h
2847 04-01-2020 21:35:00 6.4 C 6.78 g/m*3 6.4 C 4.8 km/h
2848 04-01-2020 21:40:00 6.3 C 6.81 g/m*3 5.1 C 6.4 km/h
2849 04-01-2020 21:45:00 6.2 C 6.77 g/m*3 3.84 C 11.3 km/h
2850 04-01-2020 21:50:00 6.2 C 6.77 g/m*3 4.98 C 6.4 km/h
Sensor: Nr:Datum:Temp:Abs-Feuchte:Windchill:Wind:
Aussen-T/F 2851 04-01-2020 21:55:00 6.2 C 6.84 g/m*3 6.2 C 4.8 km/h
2852 04-01-2020 22:00:00 6.2 C 6.84 g/m*3 4.98 C 6.4 km/h
2853 04-01-2020 22:05:00 6.2 C 6.84 g/m*3 6.2 C 4.8 km/h
2854 04-01-2020 22:10:00 6.2 C 6.84 g/m*3 6.2 C 4.8 km/h
2855 04-01-2020 22:15:00 6.1 C 6.87 g/m*3 6.1 C 4.8 km/h
2856 04-01-2020 22:20:00 6.1 C 6.87 g/m*3 6.1 C 4.8 km/h
2857 04-01-2020 22:25:00 6.1 C 6.87 g/m*3 4.86 C 6.4 km/h
2858 04-01-2020 22:30:00 6.1 C 6.87 g/m*3 4.4 C 8.1 km/h
2859 04-01-2020 22:35:00 6.1 C 6.87 g/m*3 4.86 C 6.4 km/h
2860 04-01-2020 22:40:00 6.1 C 6.87 g/m*3 6.1 C 4.8 km/h
2861 04-01-2020 22:45:00 6.1 C 6.87 g/m*3 4.86 C 6.4 km/h
2862 04-01-2020 22:50:00 6.1 C 6.87 g/m*3 6.1 C 3.2 km/h
2863 04-01-2020 22:55:00 6.1 C 6.87 g/m*3 6.1 C 3.2 km/h
2864 04-01-2020 23:00:00 6.1 C 6.87 g/m*3 6.1 C 3.2 km/h
2865 04-01-2020 23:05:00 6.1 C 6.87 g/m*3 6.1 C 4.8 km/h
2866 04-01-2020 23:10:00 6.1 C 6.87 g/m*3 6.1 C 3.2 km/h
2867 04-01-2020 23:15:00 6.1 C 6.87 g/m*3 4.86 C 6.4 km/h
2868 04-01-2020 23:20:00 6.1 C 6.79 g/m*3 4.86 C 6.4 km/h
2869 04-01-2020 23:25:00 6.1 C 6.79 g/m*3 4.4 C 8.1 km/h
2870 04-01-2020 23:30:00 6.1 C 6.79 g/m*3 4.86 C 6.4 km/h
2871 04-01-2020 23:35:00 6.1 C 6.79 g/m*3 4.86 C 6.4 km/h
2872 04-01-2020 23:40:00 6.2 C 6.84 g/m*3 6.2 C 4.8 km/h
2873 04-01-2020 23:45:00 6.2 C 6.84 g/m*3 4.98 C 6.4 km/h
2874 04-01-2020 23:50:00 6.2 C 6.84 g/m*3 6.2 C 4.8 km/h
2875 04-01-2020 23:55:00 6.2 C 6.84 g/m*3 6.2 C 3.2 km/h
Sensor: Nr:Datum:Temp:Abs-Feuchte:Windchill:Wind:
Aussen-T/F 2876 05-01-2020 00:00:00 6.2 C 6.84 g/m*3 6.2 C 3.2 km/h
2877 05-01-2020 00:05:00 6.2 C 6.84 g/m*3 6.2 C 4.8 km/h
2878 05-01-2020 00:10:00 6.2 C 6.84 g/m*3 6.2 C 3.2 km/h
2879 05-01-2020 00:15:00 6.2 C 6.84 g/m*3 6.2 C 1.6 km/h
2880 05-01-2020 00:20:00 6.2 C 6.84 g/m*3 6.2 C 3.2 km/h
2881 05-01-2020 00:25:00 6.1 C 6.79 g/m*3 6.1 C 1.6 km/h
2882 05-01-2020 00:30:00 6.1 C 6.79 g/m*3 6.1 C 1.6 km/h
2883 05-01-2020 00:35:00 6.1 C 6.79 g/m*3 6.1 C 4.8 km/h
2884 05-01-2020 00:40:00 6.1 C 6.79 g/m*3 6.1 C 4.8 km/h
2885 05-01-2020 00:45:00 6.1 C 6.79 g/m*3 6.1 C 4.8 km/h
2886 05-01-2020 00:50:00 6.1 C 6.79 g/m*3 4.86 C 6.4 km/h
2887 05-01-2020 00:55:00 6.1 C 6.79 g/m*3 6.1 C 3.2 km/h
2888 05-01-2020 01:00:00 6.1 C 6.79 g/m*3 6.1 C 4.8 km/h
2889 05-01-2020 01:05:00 6.1 C 6.79 g/m*3 6.1 C 3.2 km/h
2890 05-01-2020 01:10:00 6 C 6.75 g/m*3 6 C 4.8 km/h
2891 05-01-2020 01:15:00 6 C 6.82 g/m*3 6 C 1.6 km/h
2892 05-01-2020 01:20:00 5.9 C 6.78 g/m*3 5.9 C 3.2 km/h
2893 05-01-2020 01:25:00 5.9 C 6.78 g/m*3 5.9 C 4.8 km/h
2894 05-01-2020 01:30:00 5.9 C 6.78 g/m*3 5.9 C 4.8 km/h
2895 05-01-2020 01:35:00 5.8 C 6.73 g/m*3 5.8 C 1.6 km/h
2896 05-01-2020 01:40:00 5.8 C 6.73 g/m*3 5.8 C 1.6 km/h
2897 05-01-2020 01:45:00 5.8 C 6.73 g/m*3 5.8 C 3.2 km/h
2898 05-01-2020 01:50:00 5.8 C 6.73 g/m*3 5.8 C 1.6 km/h
2899 05-01-2020 01:55:00 5.7 C 6.69 g/m*3 5.7 C 3.2 km/h
2900 05-01-2020 02:00:00 5.7 C 6.69 g/m*3 5.7 C 3.2 km/h
Sensor: Nr:Datum:Temp:Abs-Feuchte:Windchill:Wind:
Aussen-T/F 2901 05-01-2020 02:05:00 5.7 C 6.76 g/m*3 5.7 C 4.8 km/h
2902 05-01-2020 02:10:00 5.7 C 6.76 g/m*3 5.7 C 4.8 km/h
2903 05-01-2020 02:15:00 5.7 C 6.76 g/m*3 5.7 C 3.2 km/h
2904 05-01-2020 02:20:00 5.6 C 6.72 g/m*3 5.6 C 0 km/h
2905 05-01-2020 02:25:00 5.6 C 6.72 g/m*3 5.6 C 0 km/h
2906 05-01-2020 02:30:00 5.6 C 6.72 g/m*3 5.6 C 0 km/h
2907 05-01-2020 02:35:00 5.6 C 6.72 g/m*3 5.6 C 0 km/h
2908 05-01-2020 02:40:00 5.6 C 6.72 g/m*3 5.6 C 0 km/h
2909 05-01-2020 02:45:00 5.6 C 6.72 g/m*3 5.6 C 0 km/h
2910 05-01-2020 02:50:00 5.6 C 6.72 g/m*3 5.6 C 4.8 km/h
2911 05-01-2020 02:55:00 5.5 C 6.67 g/m*3 5.5 C 1.6 km/h
2912 05-01-2020 03:00:00 5.5 C 6.67 g/m*3 5.5 C 4.8 km/h
2913 05-01-2020 03:05:00 5.4 C 6.63 g/m*3 5.4 C 1.6 km/h
2914 05-01-2020 03:10:00 5.4 C 6.63 g/m*3 5.4 C 3.2 km/h
2915 05-01-2020 03:15:00 5.4 C 6.63 g/m*3 5.4 C 0 km/h
2916 05-01-2020 03:20:00 5.4 C 6.63 g/m*3 5.4 C 0 km/h
2917 05-01-2020 03:25:00 5.3 C 6.58 g/m*3 5.3 C 1.6 km/h
2918 05-01-2020 03:30:00 5.3 C 6.58 g/m*3 5.3 C 0 km/h
2919 05-01-2020 03:35:00 5.3 C 6.58 g/m*3 5.3 C 0 km/h
2920 05-01-2020 03:40:00 5.3 C 6.58 g/m*3 5.3 C 0 km/h
2921 05-01-2020 03:45:00 5.3 C 6.58 g/m*3 5.3 C 0 km/h
2922 05-01-2020 03:50:00 5.3 C 6.58 g/m*3 5.3 C 0 km/h
2923 05-01-2020 03:55:00 5.3 C 6.58 g/m*3 5.3 C 0 km/h
2924 05-01-2020 04:00:00 5.3 C 6.65 g/m*3 5.3 C 1.6 km/h
2925 05-01-2020 04:05:00 5.3 C 6.65 g/m*3 5.3 C 3.2 km/h
Sensor: Nr:Datum:Temp:Abs-Feuchte:Windchill:Wind:
Aussen-T/F 2926 05-01-2020 04:10:00 5.3 C 6.65 g/m*3 5.3 C 1.6 km/h
2927 05-01-2020 04:15:00 5.3 C 6.65 g/m*3 5.3 C 1.6 km/h
2928 05-01-2020 04:20:00 5.3 C 6.65 g/m*3 5.3 C 0 km/h
2929 05-01-2020 04:25:00 5.3 C 6.65 g/m*3 5.3 C 0 km/h
2930 05-01-2020 04:30:00 5.3 C 6.65 g/m*3 5.3 C 0 km/h
2931 05-01-2020 04:35:00 5.3 C 6.65 g/m*3 5.3 C 0 km/h
2932 05-01-2020 04:40:00 5.2 C 6.61 g/m*3 5.2 C 3.2 km/h
2933 05-01-2020 04:45:00 5.2 C 6.61 g/m*3 5.2 C 0 km/h
2934 05-01-2020 04:50:00 5.2 C 6.61 g/m*3 5.2 C 0 km/h
2935 05-01-2020 04:55:00 5.2 C 6.61 g/m*3 5.2 C 0 km/h
2936 05-01-2020 05:00:00 5.3 C 6.65 g/m*3 5.3 C 1.6 km/h
2937 05-01-2020 05:05:00 5.3 C 6.65 g/m*3 5.3 C 1.6 km/h
2938 05-01-2020 05:10:00 5.3 C 6.65 g/m*3 5.3 C 0 km/h
2939 05-01-2020 05:15:00 5.3 C 6.65 g/m*3 5.3 C 0 km/h
2940 05-01-2020 05:20:00 5.3 C 6.65 g/m*3 5.3 C 0 km/h
2941 05-01-2020 05:25:00 5.3 C 6.65 g/m*3 5.3 C 0 km/h
2942 05-01-2020 05:30:00 5.3 C 6.65 g/m*3 5.3 C 0 km/h
2943 05-01-2020 05:35:00 5.3 C 6.65 g/m*3 5.3 C 0 km/h
2944 05-01-2020 05:40:00 5.3 C 6.65 g/m*3 5.3 C 1.6 km/h
2945 05-01-2020 05:45:00 5.3 C 6.65 g/m*3 5.3 C 0 km/h
2946 05-01-2020 05:50:00 5.4 C 6.7 g/m*3 5.4 C 1.6 km/h
2947 05-01-2020 05:55:00 5.4 C 6.7 g/m*3 5.4 C 0 km/h
2948 05-01-2020 06:00:00 5.4 C 6.7 g/m*3 5.4 C 1.6 km/h
2949 05-01-2020 06:05:00 5.4 C 6.7 g/m*3 5.4 C 0 km/h
2950 05-01-2020 06:10:00 5.4 C 6.7 g/m*3 5.4 C 0 km/h
Sensor: Nr:Datum:Temp:Abs-Feuchte:Windchill:Wind:
Aussen-T/F 2951 05-01-2020 06:15:00 5.4 C 6.7 g/m*3 5.4 C 0 km/h
2952 05-01-2020 06:20:00 5.4 C 6.7 g/m*3 5.4 C 3.2 km/h
2953 05-01-2020 06:25:00 5.4 C 6.7 g/m*3 5.4 C 3.2 km/h
2954 05-01-2020 06:30:00 5.4 C 6.7 g/m*3 5.4 C 0 km/h
2955 05-01-2020 06:35:00 5.4 C 6.7 g/m*3 5.4 C 0 km/h
2956 05-01-2020 06:40:00 5.4 C 6.7 g/m*3 5.4 C 1.6 km/h
2957 05-01-2020 06:45:00 5.4 C 6.7 g/m*3 5.4 C 0 km/h
2958 05-01-2020 06:50:00 5.4 C 6.7 g/m*3 5.4 C 0 km/h
2959 05-01-2020 06:55:00 5.4 C 6.7 g/m*3 5.4 C 1.6 km/h
2960 05-01-2020 07:00:00 5.4 C 6.7 g/m*3 5.4 C 0 km/h
2961 05-01-2020 07:05:00 5.4 C 6.7 g/m*3 5.4 C 0 km/h
2962 05-01-2020 07:10:00 5.4 C 6.7 g/m*3 5.4 C 0 km/h
2963 05-01-2020 07:15:00 5.4 C 6.7 g/m*3 5.4 C 0 km/h
2964 05-01-2020 07:20:00 5.4 C 6.7 g/m*3 5.4 C 0 km/h
2965 05-01-2020 07:25:00 5.4 C 6.7 g/m*3 5.4 C 1.6 km/h
2966 05-01-2020 07:30:00 5.4 C 6.7 g/m*3 5.4 C 0 km/h
2967 05-01-2020 07:35:00 5.4 C 6.7 g/m*3 5.4 C 0 km/h
2968 05-01-2020 07:40:00 5.3 C 6.65 g/m*3 5.3 C 0 km/h
2969 05-01-2020 07:45:00 5.3 C 6.65 g/m*3 5.3 C 0 km/h
2970 05-01-2020 07:50:00 5.3 C 6.65 g/m*3 5.3 C 1.6 km/h
2971 05-01-2020 07:55:00 5.3 C 6.65 g/m*3 5.3 C 0 km/h
2972 05-01-2020 08:00:00 5.2 C 6.61 g/m*3 5.2 C 0 km/h
2973 05-01-2020 08:05:00 5.2 C 6.61 g/m*3 5.2 C 1.6 km/h
2974 05-01-2020 08:10:00 5.2 C 6.61 g/m*3 5.2 C 1.6 km/h
2975 05-01-2020 08:15:00 5.2 C 6.61 g/m*3 5.2 C 0 km/h
Sensor: Nr:Datum:Temp:Abs-Feuchte:Windchill:Wind:
Aussen-T/F 2976 05-01-2020 08:20:00 5.2 C 6.61 g/m*3 5.2 C 0 km/h
2977 05-01-2020 08:25:00 5.2 C 6.61 g/m*3 5.2 C 0 km/h
2978 05-01-2020 08:30:00 5.2 C 6.61 g/m*3 5.2 C 0 km/h
2979 05-01-2020 08:35:00 5.1 C 6.57 g/m*3 5.1 C 1.6 km/h
2980 05-01-2020 08:40:00 5.2 C 6.61 g/m*3 5.2 C 1.6 km/h
2981 05-01-2020 08:45:00 5.2 C 6.61 g/m*3 5.2 C 0 km/h
2982 05-01-2020 09:10:00 5.2 C 6.61 g/m*3 5.2 C 4.8 km/h
2983 05-01-2020 09:15:00 5.2 C 6.61 g/m*3 5.2 C 3.2 km/h
2984 05-01-2020 09:20:00 5.3 C 6.65 g/m*3 5.3 C 4.8 km/h
2985 05-01-2020 09:25:00 5.3 C 6.65 g/m*3 5.3 C 3.2 km/h
2986 05-01-2020 09:30:00 5.3 C 6.65 g/m*3 5.3 C 1.6 km/h
2987 05-01-2020 09:35:00 5.3 C 6.65 g/m*3 5.3 C 4.8 km/h
2988 05-01-2020 09:40:00 5.4 C 6.7 g/m*3 4.06 C 6.4 km/h
2989 05-01-2020 09:45:00 5.4 C 6.7 g/m*3 4.06 C 6.4 km/h
2990 05-01-2020 09:50:00 5.4 C 6.7 g/m*3 4.06 C 6.4 km/h
2991 05-01-2020 09:55:00 5.5 C 6.74 g/m*3 4.17 C 6.4 km/h
2992 05-01-2020 10:00:00 5.6 C 6.79 g/m*3 5.6 C 3.2 km/h
2993 05-01-2020 10:05:00 5.6 C 6.79 g/m*3 4.29 C 6.4 km/h
2994 05-01-2020 10:10:00 5.7 C 6.83 g/m*3 4.4 C 6.4 km/h
2995 05-01-2020 10:15:00 5.7 C 6.83 g/m*3 5.7 C 4.8 km/h
2996 05-01-2020 10:20:00 5.8 C 6.81 g/m*3 4.52 C 6.4 km/h
2997 05-01-2020 10:25:00 5.8 C 6.81 g/m*3 5.8 C 4.8 km/h
2998 05-01-2020 10:30:00 5.8 C 6.81 g/m*3 3.36 C 11.3 km/h
2999 05-01-2020 10:35:00 5.9 C 6.85 g/m*3 5.9 C 4.8 km/h
3000 05-01-2020 10:40:00 5.9 C 6.85 g/m*3 4.17 C 8.1 km/h
Sensor: Nr:Datum:Temp:Abs-Feuchte:Windchill:Wind:
Aussen-T/F 3001 05-01-2020 10:45:00 5.9 C 6.85 g/m*3 4.63 C 6.4 km/h
3002 05-01-2020 10:50:00 5.9 C 6.78 g/m*3 5.9 C 4.8 km/h
3003 05-01-2020 10:55:00 6 C 6.82 g/m*3 6 C 3.2 km/h
3004 05-01-2020 11:00:00 6.1 C 6.87 g/m*3 6.1 C 4.8 km/h
3005 05-01-2020 11:05:00 6.1 C 6.87 g/m*3 4.86 C 6.4 km/h
3006 05-01-2020 11:10:00 6.2 C 6.91 g/m*3 4.52 C 8.1 km/h
3007 05-01-2020 11:15:00 6.2 C 6.91 g/m*3 6.2 C 1.6 km/h
3008 05-01-2020 11:20:00 6.2 C 6.84 g/m*3 4.52 C 8.1 km/h
3009 05-01-2020 11:25:00 6.2 C 6.91 g/m*3 6.2 C 4.8 km/h
3010 05-01-2020 11:30:00 6.3 C 6.88 g/m*3 6.3 C 4.8 km/h
3011 05-01-2020 11:35:00 6.3 C 6.88 g/m*3 6.3 C 4.8 km/h
3012 05-01-2020 11:40:00 6.3 C 6.88 g/m*3 4.64 C 8.1 km/h
3013 05-01-2020 11:45:00 6.4 C 6.93 g/m*3 6.4 C 3.2 km/h
3014 05-01-2020 11:50:00 6.4 C 6.93 g/m*3 5.21 C 6.4 km/h
3015 05-01-2020 11:55:00 6.4 C 6.93 g/m*3 6.4 C 4.8 km/h
3016 05-01-2020 12:00:00 6.5 C 6.97 g/m*3 4.87 C 8.1 km/h
3017 05-01-2020 12:05:00 6.5 C 6.9 g/m*3 4.87 C 8.1 km/h
3018 05-01-2020 12:10:00 6.5 C 6.97 g/m*3 6.5 C 4.8 km/h
3019 05-01-2020 12:15:00 6.5 C 6.9 g/m*3 5.33 C 6.4 km/h
3020 05-01-2020 12:20:00 6.6 C 6.95 g/m*3 6.6 C 3.2 km/h
3021 05-01-2020 12:25:00 6.6 C 6.95 g/m*3 6.6 C 4.8 km/h
3022 05-01-2020 12:30:00 6.6 C 6.95 g/m*3 6.6 C 4.8 km/h
3023 05-01-2020 12:35:00 6.6 C 6.95 g/m*3 6.6 C 3.2 km/h
3024 05-01-2020 12:40:00 6.7 C 6.99 g/m*3 6.7 C 4.8 km/h
3025 05-01-2020 12:45:00 6.7 C 6.99 g/m*3 5.56 C 6.4 km/h
Sensor: Nr:Datum:Temp:Abs-Feuchte:Windchill:Wind:
Aussen-T/F 3026 05-01-2020 12:50:00 6.7 C 6.99 g/m*3 5.56 C 6.4 km/h
3027 05-01-2020 12:55:00 6.7 C 6.99 g/m*3 6.7 C 3.2 km/h
3028 05-01-2020 13:00:00 6.8 C 7.04 g/m*3 6.8 C 4.8 km/h
3029 05-01-2020 13:05:00 6.8 C 7.04 g/m*3 6.8 C 4.8 km/h
3030 05-01-2020 13:10:00 6.8 C 7.04 g/m*3 6.8 C 4.8 km/h
3031 05-01-2020 13:15:00 6.9 C 7.08 g/m*3 5.79 C 6.4 km/h
3032 05-01-2020 13:20:00 6.9 C 7.01 g/m*3 5.79 C 6.4 km/h
3033 05-01-2020 13:25:00 6.9 C 7.01 g/m*3 5.34 C 8.1 km/h
3034 05-01-2020 13:30:00 6.9 C 7.01 g/m*3 6.9 C 4.8 km/h
3035 05-01-2020 13:35:00 6.9 C 7.01 g/m*3 6.9 C 4.8 km/h
3036 05-01-2020 13:40:00 7 C 7.05 g/m*3 7 C 3.2 km/h
3037 05-01-2020 13:45:00 7.1 C 7.1 g/m*3 7.1 C 3.2 km/h
3038 05-01-2020 13:50:00 7.1 C 7.1 g/m*3 7.1 C 4.8 km/h
3039 05-01-2020 13:55:00 7.1 C 7.1 g/m*3 6.02 C 6.4 km/h
3040 05-01-2020 14:00:00 7.1 C 7.1 g/m*3 7.1 C 3.2 km/h
3041 05-01-2020 14:05:00 7.2 C 7.06 g/m*3 7.2 C 4.8 km/h
3042 05-01-2020 14:10:00 7.2 C 7.06 g/m*3 7.2 C 4.8 km/h
3043 05-01-2020 14:15:00 7.2 C 7.06 g/m*3 7.2 C 3.2 km/h
3044 05-01-2020 14:20:00 7.2 C 7.06 g/m*3 7.2 C 1.6 km/h
3045 05-01-2020 14:25:00 7.2 C 7.06 g/m*3 7.2 C 3.2 km/h
3046 05-01-2020 14:30:00 7.2 C 7.06 g/m*3 7.2 C 1.6 km/h
3047 05-01-2020 14:35:00 7.2 C 7.06 g/m*3 7.2 C 3.2 km/h
3048 05-01-2020 14:40:00 7.2 C 7.06 g/m*3 7.2 C 1.6 km/h
3049 05-01-2020 14:45:00 7.2 C 7.06 g/m*3 7.2 C 0 km/h
3050 05-01-2020 14:50:00 7.3 C 7.11 g/m*3 7.3 C 0 km/h
Sensor: Nr:Datum:Temp:Abs-Feuchte:Windchill:Wind:
Aussen-T/F 3051 05-01-2020 14:55:00 7.3 C 7.11 g/m*3 6.25 C 6.4 km/h
3052 05-01-2020 15:00:00 7.3 C 7.11 g/m*3 7.3 C 3.2 km/h
3053 05-01-2020 15:05:00 7.2 C 7.06 g/m*3 7.2 C 3.2 km/h
3054 05-01-2020 15:10:00 7.2 C 7.06 g/m*3 7.2 C 3.2 km/h
3055 05-01-2020 15:15:00 7.2 C 7.06 g/m*3 7.2 C 0 km/h
3056 05-01-2020 15:20:00 7.2 C 7.06 g/m*3 7.2 C 0 km/h
3057 05-01-2020 15:25:00 7.3 C 7.11 g/m*3 7.3 C 0 km/h
3058 05-01-2020 15:30:00 7.2 C 7.14 g/m*3 7.2 C 0 km/h
3059 05-01-2020 15:35:00 7.2 C 7.14 g/m*3 7.2 C 0 km/h
3060 05-01-2020 15:40:00 7.2 C 7.14 g/m*3 7.2 C 0 km/h
3061 05-01-2020 15:45:00 7.2 C 7.14 g/m*3 7.2 C 0 km/h
3062 05-01-2020 15:50:00 7.2 C 7.14 g/m*3 7.2 C 0 km/h
3063 05-01-2020 15:55:00 7.1 C 7.1 g/m*3 7.1 C 0 km/h
3064 05-01-2020 16:00:00 7.1 C 7.1 g/m*3 7.1 C 0 km/h
3065 05-01-2020 16:05:00 7 C 7.05 g/m*3 7 C 0 km/h
3066 05-01-2020 16:10:00 7 C 7.13 g/m*3 7 C 0 km/h
3067 05-01-2020 16:15:00 6.9 C 7.08 g/m*3 6.9 C 0 km/h
3068 05-01-2020 16:20:00 6.9 C 7.08 g/m*3 6.9 C 0 km/h
3069 05-01-2020 16:25:00 6.8 C 7.04 g/m*3 6.8 C 0 km/h
3070 05-01-2020 16:30:00 6.8 C 7.04 g/m*3 6.8 C 0 km/h
3071 05-01-2020 16:35:00 6.7 C 6.99 g/m*3 6.7 C 0 km/h
3072 05-01-2020 16:40:00 6.6 C 6.95 g/m*3 6.6 C 0 km/h
3073 05-01-2020 16:45:00 6.6 C 6.95 g/m*3 6.6 C 0 km/h
3074 05-01-2020 16:50:00 6.6 C 6.95 g/m*3 6.6 C 0 km/h
3075 05-01-2020 16:55:00 6.5 C 6.9 g/m*3 6.5 C 0 km/h
Sensor: Nr:Datum:Temp:Abs-Feuchte:Windchill:Wind:
Aussen-T/F 3076 05-01-2020 17:00:00 6.4 C 6.85 g/m*3 6.4 C 0 km/h
3077 05-01-2020 17:05:00 6.4 C 6.85 g/m*3 6.4 C 0 km/h
3078 05-01-2020 17:10:00 6.3 C 6.81 g/m*3 6.3 C 0 km/h
3079 05-01-2020 17:15:00 6.3 C 6.81 g/m*3 6.3 C 0 km/h
3080 05-01-2020 17:20:00 6.3 C 6.81 g/m*3 6.3 C 3.2 km/h
3081 05-01-2020 17:25:00 6.2 C 6.77 g/m*3 6.2 C 1.6 km/h
3082 05-01-2020 17:30:00 6.2 C 6.77 g/m*3 6.2 C 1.6 km/h
3083 05-01-2020 17:35:00 6.2 C 6.77 g/m*3 6.2 C 3.2 km/h
3084 05-01-2020 17:40:00 6.2 C 6.77 g/m*3 6.2 C 3.2 km/h
3085 05-01-2020 17:45:00 6.1 C 6.72 g/m*3 6.1 C 3.2 km/h
3086 05-01-2020 17:50:00 6.1 C 6.65 g/m*3 6.1 C 1.6 km/h
3087 05-01-2020 17:55:00 6.2 C 6.69 g/m*3 6.2 C 3.2 km/h
3088 05-01-2020 18:00:00 6.2 C 6.69 g/m*3 6.2 C 1.6 km/h
3089 05-01-2020 18:05:00 6.2 C 6.77 g/m*3 6.2 C 1.6 km/h
3090 05-01-2020 18:10:00 6.2 C 6.69 g/m*3 6.2 C 3.2 km/h
3091 05-01-2020 18:15:00 6.2 C 6.69 g/m*3 6.2 C 1.6 km/h
3092 05-01-2020 18:20:00 6.1 C 6.65 g/m*3 6.1 C 1.6 km/h
3093 05-01-2020 18:25:00 6.1 C 6.58 g/m*3 6.1 C 3.2 km/h
3094 05-01-2020 18:30:00 6.1 C 6.58 g/m*3 6.1 C 3.2 km/h
3095 05-01-2020 18:35:00 6.1 C 6.58 g/m*3 6.1 C 3.2 km/h
3096 05-01-2020 18:40:00 6.2 C 6.62 g/m*3 6.2 C 1.6 km/h
3097 05-01-2020 18:45:00 6.2 C 6.62 g/m*3 6.2 C 4.8 km/h
3098 05-01-2020 18:50:00 6.2 C 6.55 g/m*3 6.2 C 1.6 km/h
3099 05-01-2020 18:55:00 6.2 C 6.62 g/m*3 6.2 C 0 km/h
3100 05-01-2020 19:00:00 6.2 C 6.55 g/m*3 6.2 C 0 km/h
Sensor: Nr:Datum:Temp:Abs-Feuchte:Windchill:Wind:
Aussen-T/F 3101 05-01-2020 19:05:00 6.2 C 6.62 g/m*3 6.2 C 0 km/h
3102 05-01-2020 19:10:00 6.2 C 6.62 g/m*3 6.2 C 1.6 km/h
3103 05-01-2020 19:15:00 6.1 C 6.5 g/m*3 6.1 C 1.6 km/h
3104 05-01-2020 19:20:00 6.1 C 6.5 g/m*3 6.1 C 0 km/h
3105 05-01-2020 19:25:00 6.1 C 6.58 g/m*3 6.1 C 0 km/h
3106 05-01-2020 19:30:00 6.1 C 6.58 g/m*3 6.1 C 0 km/h
3107 05-01-2020 19:35:00 6.1 C 6.58 g/m*3 6.1 C 0 km/h
3108 05-01-2020 19:40:00 6.1 C 6.58 g/m*3 6.1 C 1.6 km/h
3109 05-01-2020 19:45:00 6.1 C 6.58 g/m*3 6.1 C 0 km/h
3110 05-01-2020 19:50:00 6.1 C 6.58 g/m*3 6.1 C 0 km/h
3111 05-01-2020 19:55:00 6 C 6.53 g/m*3 6 C 0 km/h
3112 05-01-2020 20:00:00 6 C 6.6 g/m*3 6 C 0 km/h
3113 05-01-2020 20:05:00 5.9 C 6.56 g/m*3 5.9 C 1.6 km/h
3114 05-01-2020 20:10:00 5.9 C 6.49 g/m*3 5.9 C 1.6 km/h
3115 05-01-2020 20:15:00 5.9 C 6.49 g/m*3 5.9 C 0 km/h
3116 05-01-2020 20:20:00 5.9 C 6.49 g/m*3 5.9 C 0 km/h
3117 05-01-2020 20:25:00 5.9 C 6.49 g/m*3 5.9 C 0 km/h
3118 05-01-2020 20:30:00 5.9 C 6.49 g/m*3 5.9 C 1.6 km/h
3119 05-01-2020 20:35:00 5.9 C 6.49 g/m*3 5.9 C 0 km/h
3120 05-01-2020 20:40:00 5.9 C 6.49 g/m*3 5.9 C 0 km/h
3121 05-01-2020 20:45:00 5.9 C 6.49 g/m*3 5.9 C 0 km/h
3122 05-01-2020 20:50:00 5.9 C 6.49 g/m*3 5.9 C 0 km/h
3123 05-01-2020 20:55:00 5.9 C 6.49 g/m*3 5.9 C 0 km/h
3124 05-01-2020 21:00:00 5.9 C 6.49 g/m*3 5.9 C 0 km/h
3125 05-01-2020 21:05:00 5.9 C 6.56 g/m*3 5.9 C 0 km/h
Sensor: Nr:Datum:Temp:Abs-Feuchte:Windchill:Wind:
Aussen-T/F 3126 05-01-2020 21:10:00 5.9 C 6.56 g/m*3 5.9 C 0 km/h
3127 05-01-2020 21:15:00 5.8 C 6.45 g/m*3 5.8 C 0 km/h
3128 05-01-2020 21:20:00 5.8 C 6.52 g/m*3 5.8 C 0 km/h
3129 05-01-2020 21:25:00 5.8 C 6.52 g/m*3 5.8 C 0 km/h
3130 05-01-2020 21:30:00 5.8 C 6.52 g/m*3 5.8 C 0 km/h
3131 05-01-2020 21:35:00 5.8 C 6.52 g/m*3 5.8 C 0 km/h
3132 05-01-2020 21:40:00 5.8 C 6.52 g/m*3 5.8 C 0 km/h
3133 05-01-2020 21:45:00 5.7 C 6.48 g/m*3 5.7 C 0 km/h
3134 05-01-2020 21:50:00 5.7 C 6.48 g/m*3 5.7 C 0 km/h
3135 05-01-2020 21:55:00 5.7 C 6.55 g/m*3 5.7 C 0 km/h
3136 05-01-2020 22:00:00 5.7 C 6.55 g/m*3 5.7 C 0 km/h
3137 05-01-2020 22:05:00 5.7 C 6.55 g/m*3 5.7 C 0 km/h
3138 05-01-2020 22:10:00 5.7 C 6.55 g/m*3 5.7 C 0 km/h
3139 05-01-2020 22:15:00 5.6 C 6.5 g/m*3 5.6 C 0 km/h
3140 05-01-2020 22:20:00 5.6 C 6.5 g/m*3 5.6 C 0 km/h
3141 05-01-2020 22:25:00 5.6 C 6.5 g/m*3 5.6 C 0 km/h
3142 05-01-2020 22:30:00 5.6 C 6.5 g/m*3 5.6 C 0 km/h
3143 05-01-2020 22:35:00 5.6 C 6.5 g/m*3 5.6 C 0 km/h
3144 05-01-2020 22:40:00 5.5 C 6.46 g/m*3 5.5 C 0 km/h
3145 05-01-2020 22:45:00 5.5 C 6.46 g/m*3 5.5 C 0 km/h
3146 05-01-2020 22:50:00 5.5 C 6.46 g/m*3 5.5 C 0 km/h
3147 05-01-2020 22:55:00 5.4 C 6.42 g/m*3 5.4 C 0 km/h
3148 05-01-2020 23:00:00 5.4 C 6.49 g/m*3 5.4 C 0 km/h
3149 05-01-2020 23:05:00 5.4 C 6.49 g/m*3 5.4 C 0 km/h
3150 05-01-2020 23:10:00 5.4 C 6.49 g/m*3 5.4 C 0 km/h
Sensor: Nr:Datum:Temp:Abs-Feuchte:Windchill:Wind:
Aussen-T/F 3151 05-01-2020 23:15:00 5.4 C 6.49 g/m*3 5.4 C 0 km/h
3152 05-01-2020 23:20:00 5.3 C 6.45 g/m*3 5.3 C 0 km/h
3153 05-01-2020 23:25:00 5.3 C 6.45 g/m*3 5.3 C 0 km/h
3154 05-01-2020 23:30:00 5.3 C 6.45 g/m*3 5.3 C 0 km/h
3155 05-01-2020 23:35:00 5.3 C 6.45 g/m*3 5.3 C 0 km/h
3156 05-01-2020 23:40:00 5.3 C 6.45 g/m*3 5.3 C 0 km/h
3157 05-01-2020 23:45:00 5.2 C 6.33 g/m*3 5.2 C 0 km/h
3158 05-01-2020 23:50:00 5.2 C 6.33 g/m*3 5.2 C 0 km/h
3159 05-01-2020 23:55:00 5.2 C 6.33 g/m*3 5.2 C 0 km/h
3160 06-01-2020 00:00:00 5.2 C 6.33 g/m*3 5.2 C 0 km/h
3161 06-01-2020 00:05:00 5.2 C 6.33 g/m*3 5.2 C 0 km/h
3162 06-01-2020 00:10:00 5.1 C 6.29 g/m*3 5.1 C 0 km/h
3163 06-01-2020 00:15:00 5.1 C 6.29 g/m*3 5.1 C 0 km/h
3164 06-01-2020 00:20:00 5.1 C 6.29 g/m*3 5.1 C 0 km/h
3165 06-01-2020 00:25:00 5.1 C 6.29 g/m*3 5.1 C 0 km/h
3166 06-01-2020 00:30:00 5.1 C 6.29 g/m*3 5.1 C 0 km/h
3167 06-01-2020 00:35:00 5.1 C 6.29 g/m*3 5.1 C 0 km/h
3168 06-01-2020 00:40:00 5.1 C 6.29 g/m*3 5.1 C 0 km/h
3169 06-01-2020 00:45:00 5.1 C 6.29 g/m*3 5.1 C 0 km/h
3170 06-01-2020 00:50:00 5.1 C 6.29 g/m*3 5.1 C 0 km/h
3171 06-01-2020 00:55:00 5.1 C 6.29 g/m*3 5.1 C 0 km/h
3172 06-01-2020 01:00:00 5.1 C 6.29 g/m*3 5.1 C 0 km/h
3173 06-01-2020 01:05:00 5.1 C 6.29 g/m*3 5.1 C 0 km/h
3174 06-01-2020 01:10:00 5 C 6.25 g/m*3 5 C 0 km/h
3175 06-01-2020 01:15:00 5 C 6.18 g/m*3 5 C 0 km/h
Sensor: Nr:Datum:Temp:Abs-Feuchte:Windchill:Wind:
Aussen-T/F 3176 06-01-2020 01:20:00 5 C 6.18 g/m*3 5 C 0 km/h
3177 06-01-2020 01:25:00 5 C 6.18 g/m*3 5 C 0 km/h
3178 06-01-2020 01:30:00 5 C 6.25 g/m*3 5 C 0 km/h
3179 06-01-2020 01:35:00 5 C 6.18 g/m*3 5 C 0 km/h
3180 06-01-2020 01:40:00 4.9 C 6.14 g/m*3 4.9 C 0 km/h
3181 06-01-2020 01:45:00 4.9 C 6.14 g/m*3 4.9 C 0 km/h
3182 06-01-2020 01:50:00 4.9 C 6.14 g/m*3 4.9 C 0 km/h
3183 06-01-2020 01:55:00 4.9 C 6.14 g/m*3 4.9 C 0 km/h
3184 06-01-2020 02:00:00 4.9 C 6.14 g/m*3 4.9 C 0 km/h
3185 06-01-2020 02:05:00 4.9 C 6.14 g/m*3 4.9 C 0 km/h
3186 06-01-2020 02:10:00 4.9 C 6.14 g/m*3 4.9 C 0 km/h
3187 06-01-2020 02:15:00 4.9 C 6.14 g/m*3 4.9 C 0 km/h
3188 06-01-2020 02:20:00 4.9 C 6.14 g/m*3 4.9 C 0 km/h
3189 06-01-2020 02:25:00 4.8 C 6.1 g/m*3 4.8 C 0 km/h
3190 06-01-2020 02:30:00 4.8 C 6.1 g/m*3 4.8 C 0 km/h
3191 06-01-2020 02:35:00 4.8 C 6.1 g/m*3 4.8 C 0 km/h
3192 06-01-2020 02:40:00 4.8 C 6.1 g/m*3 4.8 C 0 km/h
3193 06-01-2020 02:45:00 4.8 C 6.1 g/m*3 4.8 C 0 km/h
3194 06-01-2020 02:50:00 4.8 C 6.1 g/m*3 4.8 C 0 km/h
3195 06-01-2020 02:55:00 4.8 C 6.1 g/m*3 4.8 C 0 km/h
3196 06-01-2020 03:00:00 4.8 C 6.1 g/m*3 4.8 C 0 km/h
3197 06-01-2020 03:05:00 4.8 C 6.1 g/m*3 4.8 C 0 km/h
3198 06-01-2020 03:10:00 4.7 C 6.06 g/m*3 4.7 C 0 km/h
3199 06-01-2020 03:15:00 4.7 C 6.06 g/m*3 4.7 C 0 km/h
3200 06-01-2020 03:20:00 4.7 C 6.06 g/m*3 4.7 C 0 km/h
Sensor: Nr:Datum:Temp:Abs-Feuchte:Windchill:Wind:
Aussen-T/F 3201 06-01-2020 03:25:00 4.7 C 6.06 g/m*3 4.7 C 0 km/h
3202 06-01-2020 03:30:00 4.7 C 6.06 g/m*3 4.7 C 0 km/h
3203 06-01-2020 03:35:00 4.7 C 6.13 g/m*3 4.7 C 0 km/h
3204 06-01-2020 03:40:00 4.7 C 6.13 g/m*3 4.7 C 0 km/h
3205 06-01-2020 03:45:00 4.7 C 6.06 g/m*3 4.7 C 0 km/h
3206 06-01-2020 03:50:00 4.7 C 6.06 g/m*3 4.7 C 0 km/h
3207 06-01-2020 03:55:00 4.7 C 6.06 g/m*3 4.7 C 0 km/h
3208 06-01-2020 04:00:00 4.7 C 6.13 g/m*3 4.7 C 0 km/h
3209 06-01-2020 04:05:00 4.7 C 6.13 g/m*3 4.7 C 0 km/h
3210 06-01-2020 04:10:00 4.7 C 6.06 g/m*3 4.7 C 0 km/h
3211 06-01-2020 04:15:00 4.6 C 6.02 g/m*3 4.6 C 0 km/h
3212 06-01-2020 04:20:00 4.6 C 6.02 g/m*3 4.6 C 1.6 km/h
3213 06-01-2020 04:25:00 4.6 C 6.02 g/m*3 4.6 C 0 km/h
3214 06-01-2020 04:30:00 4.6 C 6.02 g/m*3 4.6 C 0 km/h
3215 06-01-2020 04:35:00 4.6 C 6.02 g/m*3 4.6 C 0 km/h
3216 06-01-2020 04:40:00 4.6 C 6.02 g/m*3 4.6 C 0 km/h
3217 06-01-2020 04:45:00 4.6 C 6.02 g/m*3 4.6 C 0 km/h
3218 06-01-2020 04:50:00 4.6 C 6.02 g/m*3 4.6 C 0 km/h
3219 06-01-2020 04:55:00 4.5 C 5.98 g/m*3 4.5 C 0 km/h
3220 06-01-2020 05:00:00 4.5 C 5.98 g/m*3 4.5 C 0 km/h
3221 06-01-2020 05:05:00 4.5 C 6.05 g/m*3 4.5 C 0 km/h
3222 06-01-2020 05:10:00 4.5 C 6.05 g/m*3 4.5 C 0 km/h
3223 06-01-2020 05:15:00 4.5 C 6.05 g/m*3 4.5 C 0 km/h
3224 06-01-2020 05:20:00 4.4 C 6.01 g/m*3 4.4 C 0 km/h
3225 06-01-2020 05:25:00 4.4 C 6.01 g/m*3 4.4 C 0 km/h
Sensor: Nr:Datum:Temp:Abs-Feuchte:Windchill:Wind:
Aussen-T/F 3226 06-01-2020 05:30:00 4.4 C 6.01 g/m*3 4.4 C 0 km/h
3227 06-01-2020 05:35:00 4.4 C 6.01 g/m*3 4.4 C 0 km/h
3228 06-01-2020 05:40:00 4.3 C 5.97 g/m*3 4.3 C 0 km/h
3229 06-01-2020 05:45:00 4.3 C 5.97 g/m*3 4.3 C 0 km/h
3230 06-01-2020 05:50:00 4.3 C 5.97 g/m*3 4.3 C 0 km/h
3231 06-01-2020 05:55:00 4.3 C 5.97 g/m*3 4.3 C 0 km/h
3232 06-01-2020 06:00:00 4.3 C 5.97 g/m*3 4.3 C 0 km/h
3233 06-01-2020 06:05:00 4.2 C 5.93 g/m*3 4.2 C 0 km/h
3234 06-01-2020 06:10:00 4.2 C 5.93 g/m*3 4.2 C 0 km/h
3235 06-01-2020 06:15:00 4.2 C 5.93 g/m*3 4.2 C 0 km/h
3236 06-01-2020 06:20:00 4.2 C 5.93 g/m*3 4.2 C 0 km/h
32